[[{"header":{"parameterUnit":"m.s-1","parameterCategory":1,"la1":30.6,"la2":29.2853,"lo1":-89.7004,"lo2":-87.6739,"dy":0.0162,"dx":0.0183,"nx":112,"ny":82,"refTime":"2024-04-12T06:00:00:Z","depth":0,"parameterNumber":2,"parameterNumberName":"U-component_of_WINDS"},"data":[0.0,0.0,0.0,0.0,0.0,0.0,0.0,0.0,0.0,0.0,0.0,0.0,0.0,0.0,0.0,0.0,0.0,0.0,0.0,0.0,0.0,0.0,0.0,0.0,0.0,0.0,0.0,0.0,0.0,0.0,0.0,0.0,0.0,0.0,0.0,0.0,0.0,0.0,0.0,0.0,0.0,0.0,0.0,0.0,0.0,0.0,0.0,0.0,0.0,0.0,0.0,0.0,0.0,0.0,0.0,0.0,0.0,0.0,0.0,0.0,0.0,0.0,0.0,0.0,0.0,0.0,0.0,0.0,0.0,0.0,0.0,0.0,0.0,0.0,0.0,0.0,0.0,0.0,0.0,0.0,0.0,0.0,0.0,0.0,0.0,0.0,0.0,0.0,0.0,0.0,-4.7848,-4.5617,-4.5357,-4.5288,-4.5288,-4.5378,-4.5477,-4.5595,0.0,0.0,0.0,0.0,0.0,0.0,0.0,0.0,0.0,0.0,0.0,0.0,0.0,0.0,0.0,0.0,0.0,0.0,0.0,0.0,0.0,0.0,0.0,0.0,0.0,0.0,0.0,0.0,0.0,0.0,0.0,0.0,0.0,0.0,0.0,0.0,0.0,0.0,0.0,0.0,0.0,0.0,0.0,0.0,0.0,0.0,0.0,0.0,0.0,0.0,0.0,0.0,0.0,0.0,0.0,0.0,0.0,0.0,0.0,0.0,0.0,0.0,0.0,0.0,0.0,0.0,0.0,0.0,0.0,0.0,0.0,0.0,0.0,0.0,0.0,0.0,0.0,0.0,0.0,0.0,0.0,0.0,0.0,0.0,0.0,0.0,0.0,0.0,0.0,0.0,0.0,0.0,0.0,0.0,0.0,0.0,0.0,0.0,0.0,0.0,0.0,0.0,0.0,0.0,-4.6564,-4.5413,-4.5367,-4.5378,-4.5288,-4.5378,-4.5477,-4.5595,0.0,0.0,0.0,0.0,0.0,0.0,0.0,0.0,0.0,0.0,0.0,0.0,0.0,0.0,0.0,0.0,0.0,0.0,0.0,0.0,0.0,0.0,0.0,0.0,0.0,0.0,0.0,0.0,0.0,0.0,0.0,0.0,0.0,0.0,0.0,0.0,0.0,0.0,0.0,0.0,0.0,0.0,0.0,0.0,0.0,0.0,0.0,0.0,0.0,0.0,0.0,0.0,0.0,0.0,0.0,0.0,0.0,0.0,0.0,0.0,0.0,0.0,0.0,0.0,0.0,0.0,0.0,0.0,0.0,0.0,0.0,0.0,0.0,0.0,0.0,0.0,0.0,0.0,0.0,0.0,0.0,0.0,0.0,0.0,0.0,0.0,0.0,0.0,0.0,0.0,0.0,0.0,0.0,0.0,0.0,0.0,0.0,0.0,0.0,0.0,0.0,0.0,0.0,-4.6439,-4.5729,-4.5326,-4.5367,-4.5398,-4.5367,-4.5388,-4.5438,-4.5526,-4.5657,0.0,0.0,0.0,0.0,0.0,0.0,0.0,0.0,0.0,0.0,0.0,0.0,0.0,0.0,0.0,0.0,0.0,0.0,0.0,0.0,0.0,0.0,0.0,0.0,0.0,0.0,0.0,0.0,0.0,0.0,0.0,0.0,0.0,0.0,0.0,0.0,0.0,0.0,0.0,0.0,0.0,0.0,0.0,0.0,0.0,0.0,0.0,0.0,0.0,0.0,0.0,0.0,0.0,0.0,0.0,0.0,0.0,0.0,0.0,0.0,0.0,0.0,0.0,0.0,0.0,0.0,0.0,0.0,0.0,0.0,0.0,0.0,0.0,0.0,0.0,0.0,0.0,0.0,0.0,0.0,0.0,0.0,0.0,0.0,0.0,0.0,0.0,0.0,0.0,0.0,0.0,0.0,0.0,0.0,0.0,0.0,0.0,0.0,0.0,0.0,0.0,0.0,-4.566,-4.5288,-4.5288,-4.5367,-4.5398,-4.5388,-4.5398,-4.5409,-4.5457,-4.5526,0.0,0.0,0.0,0.0,0.0,0.0,0.0,0.0,0.0,0.0,0.0,0.0,0.0,0.0,0.0,0.0,0.0,0.0,0.0,0.0,0.0,0.0,0.0,0.0,0.0,0.0,0.0,0.0,0.0,0.0,0.0,0.0,0.0,0.0,0.0,0.0,0.0,0.0,0.0,0.0,0.0,0.0,0.0,0.0,0.0,0.0,0.0,0.0,0.0,0.0,0.0,0.0,0.0,0.0,0.0,0.0,0.0,0.0,0.0,0.0,0.0,0.0,0.0,0.0,0.0,0.0,0.0,0.0,0.0,0.0,0.0,0.0,0.0,0.0,0.0,0.0,0.0,0.0,0.0,0.0,0.0,0.0,0.0,0.0,0.0,0.0,0.0,0.0,0.0,0.0,0.0,0.0,0.0,0.0,0.0,0.0,0.0,0.0,0.0,0.0,0.0,0.0,-4.5326,-4.5288,-4.5288,-4.5367,-4.5388,-4.5298,-4.5378,-4.539,-4.541,-4.5419,0.0,0.0,0.0,0.0,0.0,0.0,0.0,0.0,0.0,0.0,0.0,0.0,0.0,0.0,0.0,0.0,0.0,0.0,0.0,0.0,0.0,0.0,0.0,0.0,0.0,0.0,0.0,0.0,0.0,0.0,0.0,0.0,0.0,0.0,0.0,0.0,0.0,0.0,0.0,0.0,0.0,0.0,0.0,0.0,0.0,0.0,0.0,0.0,0.0,0.0,0.0,0.0,0.0,0.0,0.0,0.0,0.0,0.0,0.0,0.0,0.0,0.0,0.0,0.0,0.0,0.0,0.0,0.0,0.0,0.0,0.0,0.0,0.0,0.0,0.0,0.0,0.0,0.0,0.0,0.0,0.0,0.0,0.0,0.0,0.0,0.0,0.0,0.0,0.0,0.0,0.0,0.0,0.0,0.0,0.0,0.0,0.0,0.0,0.0,0.0,0.0,0.0,-4.5736,-4.6042,-4.6042,-4.6094,-4.6153,-4.6094,-4.5656,-4.539,-4.54,0.0,0.0,0.0,0.0,0.0,0.0,0.0,0.0,0.0,0.0,0.0,0.0,0.0,0.0,0.0,0.0,0.0,0.0,0.0,0.0,0.0,0.0,0.0,0.0,0.0,0.0,0.0,0.0,0.0,0.0,0.0,0.0,0.0,0.0,0.0,0.0,0.0,0.0,0.0,0.0,0.0,0.0,0.0,0.0,0.0,0.0,0.0,0.0,0.0,0.0,0.0,0.0,0.0,0.0,0.0,0.0,0.0,0.0,0.0,0.0,0.0,0.0,0.0,0.0,0.0,0.0,0.0,0.0,0.0,0.0,0.0,0.0,0.0,0.0,0.0,0.0,0.0,0.0,0.0,0.0,0.0,0.0,0.0,0.0,0.0,0.0,0.0,0.0,0.0,0.0,0.0,0.0,0.0,0.0,0.0,0.0,0.0,0.0,0.0,0.0,0.0,0.0,-4.5551,-4.6275,-4.6679,-4.6528,-4.6303,-4.6094,-4.5788,-4.5033,-4.4556,-4.4576,0.0,0.0,0.0,0.0,0.0,0.0,0.0,0.0,0.0,0.0,0.0,0.0,0.0,0.0,0.0,0.0,0.0,0.0,0.0,0.0,0.0,0.0,0.0,0.0,0.0,0.0,0.0,0.0,0.0,0.0,0.0,0.0,0.0,0.0,0.0,0.0,0.0,0.0,0.0,0.0,0.0,0.0,0.0,0.0,0.0,0.0,0.0,0.0,0.0,0.0,0.0,0.0,0.0,0.0,0.0,0.0,0.0,0.0,0.0,0.0,0.0,0.0,0.0,0.0,0.0,0.0,0.0,0.0,0.0,0.0,0.0,0.0,0.0,0.0,0.0,0.0,0.0,0.0,0.0,0.0,0.0,0.0,0.0,0.0,0.0,0.0,0.0,0.0,0.0,0.0,0.0,0.0,0.0,0.0,0.0,0.0,0.0,0.0,0.0,0.0,0.0,0.0,-4.6064,-4.6796,-4.7074,-4.6544,-4.5774,-4.4972,-4.4083,-4.3291,-4.2814,0.0,0.0,0.0,0.0,0.0,0.0,0.0,0.0,0.0,0.0,0.0,0.0,0.0,0.0,0.0,0.0,0.0,0.0,0.0,0.0,0.0,0.0,0.0,0.0,0.0,0.0,0.0,0.0,0.0,0.0,0.0,0.0,0.0,0.0,0.0,0.0,0.0,0.0,0.0,0.0,0.0,0.0,0.0,0.0,0.0,0.0,0.0,0.0,0.0,0.0,0.0,0.0,0.0,0.0,0.0,0.0,0.0,0.0,0.0,0.0,0.0,0.0,0.0,0.0,0.0,0.0,0.0,0.0,0.0,0.0,0.0,0.0,0.0,0.0,0.0,0.0,0.0,0.0,0.0,0.0,0.0,0.0,0.0,0.0,0.0,0.0,0.0,0.0,0.0,0.0,0.0,0.0,0.0,0.0,0.0,0.0,0.0,0.0,0.0,0.0,0.0,0.0,0.0,-4.5796,-4.6666,-4.7011,-4.6288,-4.6172,-4.5812,-4.4972,-4.4131,-4.3405,-4.2852,0.0,0.0,0.0,0.0,0.0,0.0,0.0,0.0,0.0,0.0,0.0,0.0,0.0,0.0,0.0,0.0,0.0,0.0,0.0,0.0,0.0,0.0,0.0,0.0,0.0,0.0,0.0,0.0,0.0,0.0,0.0,0.0,0.0,0.0,0.0,0.0,0.0,0.0,0.0,0.0,0.0,0.0,0.0,0.0,0.0,0.0,0.0,0.0,0.0,0.0,0.0,0.0,0.0,0.0,0.0,0.0,0.0,0.0,0.0,0.0,0.0,0.0,0.0,0.0,0.0,0.0,0.0,0.0,0.0,0.0,0.0,0.0,0.0,0.0,0.0,0.0,0.0,0.0,0.0,0.0,0.0,0.0,0.0,0.0,0.0,0.0,0.0,0.0,0.0,0.0,0.0,0.0,0.0,0.0,0.0,0.0,0.0,0.0,0.0,0.0,0.0,0.0,-4.5514,-4.6307,-4.6666,-4.601,-4.5786,-4.5188,-4.406,-4.3175,-4.2411,-4.167,0.0,0.0,0.0,0.0,0.0,0.0,0.0,0.0,0.0,0.0,0.0,0.0,0.0,0.0,0.0,0.0,0.0,0.0,0.0,0.0,0.0,0.0,0.0,0.0,0.0,0.0,0.0,0.0,0.0,0.0,0.0,0.0,0.0,0.0,0.0,0.0,0.0,0.0,0.0,0.0,0.0,0.0,0.0,0.0,0.0,0.0,0.0,0.0,0.0,0.0,0.0,0.0,0.0,0.0,0.0,0.0,0.0,0.0,0.0,0.0,0.0,0.0,0.0,0.0,0.0,0.0,0.0,0.0,0.0,0.0,0.0,0.0,0.0,0.0,0.0,0.0,0.0,0.0,0.0,0.0,0.0,0.0,0.0,0.0,0.0,0.0,0.0,0.0,0.0,0.0,0.0,0.0,0.0,0.0,0.0,0.0,0.0,0.0,0.0,0.0,0.0,0.0,-4.5222,-4.5807,-4.61,-4.5617,-4.4871,-4.3721,-4.2018,-4.1254,-4.0528,-3.9916,0.0,0.0,0.0,0.0,0.0,0.0,0.0,0.0,0.0,0.0,0.0,0.0,0.0,0.0,0.0,0.0,0.0,0.0,0.0,0.0,0.0,0.0,0.0,0.0,0.0,0.0,0.0,0.0,0.0,0.0,0.0,0.0,0.0,0.0,0.0,0.0,0.0,0.0,0.0,0.0,0.0,0.0,0.0,0.0,0.0,0.0,0.0,0.0,0.0,0.0,0.0,0.0,0.0,0.0,0.0,0.0,0.0,0.0,0.0,0.0,-5.2018,-5.1928,0.0,0.0,0.0,0.0,0.0,0.0,0.0,0.0,0.0,0.0,0.0,0.0,0.0,0.0,0.0,0.0,0.0,0.0,0.0,0.0,0.0,0.0,0.0,0.0,0.0,0.0,0.0,0.0,0.0,0.0,0.0,0.0,0.0,0.0,0.0,0.0,0.0,0.0,0.0,0.0,-4.4888,-4.5197,-4.517,-4.4429,-4.4391,-4.3721,-4.2018,-4.1755,-4.1067,-3.9662,-3.9599,0.0,0.0,0.0,0.0,0.0,0.0,0.0,0.0,0.0,0.0,0.0,0.0,0.0,0.0,0.0,0.0,0.0,0.0,0.0,0.0,0.0,0.0,0.0,0.0,0.0,0.0,0.0,0.0,0.0,0.0,0.0,0.0,0.0,0.0,0.0,0.0,0.0,0.0,0.0,0.0,0.0,0.0,0.0,0.0,0.0,0.0,0.0,0.0,0.0,0.0,0.0,0.0,0.0,0.0,0.0,0.0,0.0,0.0,0.0,-5.1059,-5.1389,0.0,0.0,0.0,0.0,0.0,0.0,0.0,0.0,0.0,0.0,0.0,0.0,0.0,0.0,0.0,0.0,0.0,0.0,0.0,0.0,0.0,0.0,0.0,0.0,0.0,0.0,0.0,0.0,0.0,0.0,0.0,0.0,0.0,0.0,0.0,0.0,0.0,0.0,0.0,0.0,-4.4232,-4.4294,-4.4227,-4.382,-4.3871,-4.3311,-4.1661,-4.1512,-4.0863,-3.941,-3.9311,0.0,0.0,0.0,0.0,0.0,0.0,0.0,0.0,0.0,0.0,0.0,0.0,0.0,0.0,0.0,0.0,0.0,0.0,0.0,0.0,0.0,0.0,0.0,0.0,0.0,0.0,0.0,0.0,0.0,0.0,0.0,0.0,0.0,0.0,0.0,0.0,0.0,0.0,0.0,0.0,0.0,0.0,0.0,0.0,0.0,0.0,0.0,0.0,0.0,0.0,0.0,0.0,0.0,-4.9235,-4.9275,-4.939,-4.939,-4.939,-4.9427,-5.0068,-5.0839,-5.1593,-5.1593,0.0,0.0,0.0,0.0,0.0,0.0,0.0,0.0,0.0,0.0,0.0,0.0,0.0,0.0,0.0,0.0,0.0,0.0,0.0,0.0,0.0,0.0,-4.4305,-4.3644,-4.3625,-4.4048,-4.5406,0.0,0.0,0.0,0.0,0.0,0.0,0.0,0.0,0.0,0.0,0.0,-4.3571,-4.3515,-4.3515,-4.3515,-4.3515,-4.291,-4.1425,-4.1168,-4.0562,-3.9318,-3.911,-3.9137,0.0,0.0,0.0,0.0,0.0,0.0,0.0,0.0,0.0,0.0,0.0,0.0,0.0,0.0,0.0,0.0,0.0,0.0,0.0,0.0,0.0,0.0,0.0,0.0,0.0,0.0,0.0,0.0,0.0,0.0,0.0,0.0,-5.1096,-5.1525,0.0,0.0,0.0,0.0,0.0,0.0,0.0,0.0,0.0,0.0,0.0,0.0,0.0,-4.7416,-4.7416,-4.7416,-4.7579,-4.7876,-4.7876,-4.8061,-4.8489,-4.8489,-4.8489,-4.8489,-4.86,0.0,-4.9941,-4.9941,0.0,0.0,0.0,0.0,0.0,0.0,0.0,0.0,0.0,0.0,0.0,0.0,0.0,0.0,0.0,0.0,0.0,0.0,0.0,0.0,0.0,0.0,-4.3625,-4.3551,-4.4011,-4.4599,-4.4801,-4.4232,-4.3681,-4.3808,-4.4305,-4.4728,0.0,0.0,0.0,0.0,0.0,0.0,-4.3497,-4.3515,-4.3515,-4.3515,-4.3515,-4.313,-4.2213,-4.1515,-4.0724,-3.9853,-3.9118,-3.8862,-3.9137,-3.9263,0.0,0.0,0.0,0.0,0.0,0.0,0.0,0.0,0.0,0.0,0.0,0.0,0.0,0.0,0.0,0.0,0.0,0.0,0.0,0.0,0.0,0.0,0.0,0.0,0.0,0.0,0.0,0.0,0.0,-4.9825,-4.9764,-5.0002,-4.9643,-4.9258,0.0,0.0,0.0,0.0,0.0,0.0,0.0,0.0,0.0,-4.7449,-4.7069,-4.689,-4.689,-4.689,-4.6981,-4.7204,-4.7204,-4.7313,-4.7506,-4.7506,-4.7669,-4.7915,-4.7915,-4.853,-4.9647,-5.0088,-5.0472,-5.0839,0.0,0.0,0.0,0.0,-5.0508,-5.0618,-4.9444,-4.9003,-4.8783,-4.7388,0.0,0.0,0.0,0.0,0.0,0.0,0.0,-4.3515,-4.3515,-4.3515,-4.3515,-4.3515,-4.3754,-4.4011,-4.4011,-4.3754,-4.3772,-4.4672,-4.4782,-4.4691,-4.4691,-4.4691,0.0,0.0,0.0,-4.3515,-4.3515,-4.3515,-4.3515,-4.3515,-4.3515,-4.3167,-4.2359,-4.1992,-4.1258,-3.9974,-3.957,-3.9228,-3.8885,-3.8899,-3.912,0.0,0.0,0.0,0.0,0.0,0.0,0.0,0.0,0.0,0.0,0.0,0.0,0.0,0.0,0.0,0.0,0.0,0.0,0.0,0.0,0.0,0.0,0.0,0.0,0.0,0.0,0.0,0.0,-4.9154,-4.8706,-4.8534,-4.8017,-4.7603,0.0,0.0,0.0,0.0,0.0,0.0,-4.6531,-4.6531,-4.6531,-4.6531,-4.6531,-4.6531,-4.6531,-4.6531,-4.6602,-4.6742,-4.6742,-4.6753,-4.689,-4.689,-4.7093,-4.7421,-4.7421,-4.7974,-4.8997,-5.0061,-5.0618,-5.0875,-5.1463,-5.1316,-5.0765,-5.0325,-5.0178,-5.0031,-4.9003,-4.8656,-4.8362,-4.6507,-4.5883,-4.5663,-4.4488,0.0,0.0,0.0,0.0,-4.3925,-4.3925,-4.3853,-4.3707,-4.3488,-4.3452,-4.3379,-4.3214,-4.3178,-4.3597,-4.5003,-4.4819,-4.4378,-4.4378,-4.4378,0.0,-4.3571,-4.3515,-4.3515,-4.3515,-4.3515,-4.3515,-4.3515,-4.3515,-4.324,-4.2653,-4.2433,-4.1699,-4.0304,-4.001,-3.9533,-3.8726,-3.8689,-3.8689,-3.8689,0.0,0.0,0.0,0.0,0.0,0.0,0.0,0.0,0.0,0.0,0.0,0.0,0.0,0.0,0.0,0.0,0.0,0.0,0.0,0.0,0.0,0.0,0.0,0.0,0.0,0.0,0.0,0.0,0.0,-4.7844,-4.7707,0.0,0.0,0.0,0.0,-4.5553,-4.5511,-4.5511,-4.5476,-4.5476,-4.5476,-4.5476,-4.5476,-4.5476,-4.5476,-4.5476,-4.5727,-4.6253,-4.6253,-4.6459,-4.689,-4.689,-4.689,-4.6913,-4.6913,-4.6972,-4.7169,-4.894,-5.0105,-5.0802,-5.0839,-5.0839,-5.0618,-4.9003,-4.8453,-4.8196,-4.6617,-4.6104,-4.6067,-4.592,-4.5883,-4.5883,-4.581,-4.5773,0.0,0.0,-4.5439,-4.5108,-4.5108,-4.4803,-4.425,-4.3486,-4.3307,-4.3114,-4.242,-4.2277,-4.2518,-4.3448,-4.3588,-4.3534,-4.3534,0.0,-4.3551,-4.3515,-4.3515,-4.3515,-4.3515,-4.3515,-4.3515,-4.3515,-4.3515,-4.3478,-4.3441,-4.2727,-4.1956,-4.1095,-4.0304,-3.9533,-3.8726,-3.8689,-3.8689,-3.8689,-3.8726,0.0,0.0,0.0,0.0,0.0,0.0,0.0,0.0,0.0,0.0,0.0,0.0,0.0,0.0,0.0,0.0,0.0,0.0,0.0,0.0,0.0,0.0,0.0,0.0,0.0,0.0,0.0,0.0,-4.7044,-4.6535,0.0,-4.5845,-4.5811,-4.5707,-4.5432,-4.588,-4.6155,-4.6155,-4.6603,-4.6879,-4.6879,-4.6879,-4.6879,-4.6879,-4.6879,-4.6988,-4.7168,-4.7168,-4.6995,-4.6723,-4.6723,-4.661,-4.6459,-4.6459,-4.6625,-4.6949,-4.7593,-4.8013,-4.8337,-4.8864,-4.8756,-4.8229,-4.7616,-4.7399,-4.7327,-4.6729,-4.6549,-4.6477,-4.5936,-4.541,-4.5014,-4.5014,-4.5014,-4.5014,-4.5014,-4.489,-4.4742,-4.4742,-4.4243,-4.3672,-4.3387,-4.2944,-4.2516,-4.2251,-4.2216,-4.2297,-4.2616,-4.292,-4.3105,-4.3105,-4.334,-4.3428,-4.3142,-4.3321,-4.3428,-4.3142,-4.3321,-4.3515,-4.3515,-4.3463,-4.3447,-4.3447,-4.3101,-4.2572,-4.1855,-4.1029,-4.0203,-3.9496,-3.8982,-3.8689,-3.8689,-3.8627,-3.8575,0.0,0.0,0.0,0.0,0.0,0.0,0.0,0.0,0.0,0.0,0.0,0.0,0.0,0.0,0.0,0.0,0.0,0.0,0.0,0.0,0.0,0.0,0.0,0.0,0.0,-4.6989,-4.6357,-4.6136,-4.5861,-4.5723,-4.5811,-4.6017,-4.6155,-4.6155,-4.6672,-4.6975,-4.6975,-4.7431,-4.7672,-4.7672,-4.7672,-4.7672,-4.7672,-4.7672,-4.7672,-4.7672,-4.7672,-4.7431,-4.6975,-4.6975,-4.6715,-4.6314,-4.6314,-4.6375,-4.6376,-4.6376,-4.6376,-4.6471,-4.7345,-4.7354,-4.689,-4.689,-4.689,-4.689,-4.689,-4.689,-4.6819,-4.6261,-4.5762,-4.5312,-4.5312,-4.5312,-4.5312,-4.5312,-4.52,-4.4994,-4.4746,-4.4173,-4.353,-4.3001,-4.2494,-4.207,-4.1823,-4.1753,-4.1753,-4.1753,-4.2257,-4.2635,-4.2635,-4.2865,-4.2958,-4.2693,-4.2846,-4.2902,-4.2635,-4.2808,-4.294,-4.294,-4.2884,-4.2846,-4.2846,-4.2902,-4.2576,-4.1741,-4.127,-4.0524,-3.9419,-3.9008,-3.8672,-3.8401,-3.8428,-3.846,-3.846,0.0,0.0,0.0,0.0,0.0,0.0,0.0,0.0,0.0,0.0,0.0,0.0,0.0,0.0,0.0,0.0,0.0,0.0,0.0,0.0,0.0,0.0,0.0,-4.6088,-4.6116,-4.5898,-4.5314,-4.5863,-4.6399,-4.6603,-4.7258,-4.7707,-4.7672,-4.7707,-4.7707,-4.7707,-4.7741,-4.7775,-4.7775,-4.7775,-4.7775,-4.7775,-4.7775,-4.7775,-4.7775,-4.7775,-4.7741,-4.7707,-4.7707,-4.7327,-4.6631,-4.6631,-4.6155,-4.5432,-4.5397,-4.5397,-4.5502,-4.6448,-4.6845,-4.6845,-4.6845,-4.6845,-4.6845,-4.6845,-4.6845,-4.6845,-4.6845,-4.6845,-4.6845,-4.6845,-4.6845,-4.6845,-4.6845,-4.6531,-4.5993,-4.5185,-4.462,-4.3897,-4.2378,-4.1999,-4.1792,-4.1067,-4.0894,-4.0894,-4.0894,-4.1578,-4.2175,-4.2175,-4.2195,-4.2195,-4.2175,-4.2077,0.0,-4.1958,-4.1874,-4.181,-4.181,-4.181,-4.181,-4.181,-4.2206,-4.1944,-4.0707,-4.1022,-4.0402,-3.8443,-3.8795,-3.8618,-3.7827,-3.8204,-3.8368,-3.8368,0.0,0.0,0.0,0.0,0.0,0.0,0.0,0.0,0.0,0.0,0.0,0.0,0.0,0.0,0.0,0.0,0.0,0.0,0.0,0.0,0.0,-4.4712,-4.4615,-4.5767,-4.6039,-4.602,-4.587,-4.6632,-4.7168,-4.7258,-4.743,-4.7595,-4.7672,-4.8105,-4.8386,-4.8499,-4.9079,-4.939,-4.939,-4.939,-4.939,-4.939,-4.939,-4.939,-4.939,-4.939,-4.9079,-4.8499,-4.8499,-4.8086,-4.7389,-4.6837,-4.6493,-4.6224,-4.5638,-4.5397,-4.5423,-4.5701,-4.5829,-4.5829,-4.5829,-4.5829,-4.5829,-4.5829,-4.5829,-4.5829,-4.5829,-4.5829,-4.5829,-4.5829,-4.5829,-4.5829,-4.5829,-4.5727,-4.5425,-4.4688,-4.3998,-4.3241,-4.224,-4.1585,-4.1136,-4.0929,-4.0894,-4.0894,-4.0894,-4.1035,-4.1232,-4.1499,-4.1746,-4.1789,-4.1442,-4.166,-4.1746,-4.1397,-4.1617,-4.181,-4.181,-4.176,-4.1717,-4.1717,-4.176,-4.1676,-4.1413,-4.0919,-4.043,-3.9979,-3.9534,-3.8899,-3.8042,-3.8121,-3.7929,0.0,0.0,0.0,0.0,0.0,0.0,0.0,0.0,0.0,0.0,0.0,0.0,0.0,0.0,0.0,0.0,0.0,0.0,0.0,0.0,0.0,0.0,-4.3863,-4.4042,-4.5593,-4.5867,-4.609,-4.6419,-4.7221,-4.7786,-4.7843,-4.818,-4.8409,-4.8552,-4.8844,-4.9114,-4.9292,-4.9769,-5.0011,-5.0011,-5.0011,-5.0011,-5.0011,-5.0011,-5.0011,-5.0011,-5.0011,-4.9769,-4.9292,-4.9292,-4.8879,-4.812,-4.7734,-4.7182,-4.6562,-4.6086,-4.5707,-4.5397,0.0,0.0,0.0,0.0,-4.5397,-4.5397,-4.5397,-4.5397,-4.5397,-4.5397,-4.5397,-4.5397,-4.5397,-4.5397,-4.5397,-4.5397,-4.5156,-4.4768,-4.4035,-4.3276,-4.2516,-4.1723,-4.1205,-4.0894,-4.0894,-4.0847,-4.0834,-4.0834,-4.0655,0.0,-4.0849,-4.1094,-4.1162,-4.0896,-4.1024,-4.1071,-4.0802,-4.0955,-4.1082,-4.1082,-4.1047,-4.1036,-4.1036,-4.1139,0.0,0.0,0.0,-4.046,-4.0232,-3.9454,0.0,0.0,0.0,-3.831,-3.7888,-3.8125,0.0,0.0,-3.8007,-3.7987,0.0,0.0,0.0,0.0,0.0,0.0,0.0,0.0,0.0,0.0,0.0,0.0,0.0,0.0,0.0,0.0,-4.3589,-4.4075,-4.5369,-4.5654,-4.606,-4.6995,-4.7767,-4.8332,-4.8514,-4.9124,-4.956,-4.9708,-4.9708,-4.9801,-5.0011,-5.0011,0.0,0.0,0.0,-5.0011,-5.0011,-5.0011,-5.0011,-5.0011,-5.0011,-5.0011,-5.0011,-5.0011,-4.9631,-4.8913,-4.8844,-4.8017,-4.6734,-4.6631,-4.6148,-4.5397,-4.5397,-4.5397,-4.5397,-4.5397,-4.5397,-4.5397,-4.5397,0.0,0.0,-4.5397,-4.5397,-4.5397,-4.5397,-4.5397,-4.5397,-4.5397,-4.4872,-4.4138,-4.3379,-4.262,-4.1802,-4.1043,-4.0871,-4.0871,-4.0847,-4.0752,-4.069,-4.069,-4.0461,-4.0288,-4.0288,-4.0387,-4.0461,-4.0461,-4.0362,-4.0263,-4.0263,-4.0163,-4.0113,-4.0113,-4.0113,0.0,-4.0113,-4.05,-4.0538,-4.0138,-4.05,-4.0421,-3.9767,-3.9055,-3.8879,-3.9259,-3.9153,-3.9054,-3.895,-3.8696,-3.8562,-3.8585,-3.8955,-3.9091,0.0,0.0,0.0,0.0,0.0,0.0,0.0,0.0,0.0,0.0,0.0,0.0,0.0,0.0,0.0,-4.3559,-4.359,-4.3881,-4.4756,-4.5336,-4.6189,-4.7575,-4.8613,-4.9236,-4.9266,-4.9521,-4.9737,-4.9918,-4.9801,-4.9801,-5.0011,-5.0011,-5.0011,-5.0011,-5.0011,-5.0011,-5.0011,-5.0011,-5.0011,-5.0011,-5.0011,0.0,-5.0011,-5.0011,-4.9942,-4.9735,-4.9085,-4.8293,-4.7431,-4.6872,-4.6148,-4.5397,-4.5397,-4.5397,-4.5397,-4.5397,-4.5397,-4.5397,-4.5397,-4.5397,-4.5397,-4.5397,-4.5397,-4.5397,-4.5397,-4.5397,0.0,-4.5397,-4.4872,-4.4138,-4.3379,-4.262,-4.1778,-4.0958,-4.0762,-4.0704,-4.0607,-4.0558,-4.0534,-4.0534,-4.0412,-4.0288,-4.0288,-4.0238,-4.0188,-4.0188,-4.0163,-4.0138,-4.0138,-4.0113,-4.0113,-4.0113,-4.0113,-4.0113,-4.0113,-4.0179,-4.0213,-4.0113,-4.0213,-4.0161,-4.0025,-3.9889,-3.954,-3.9047,-3.9024,-3.8727,-3.8114,-3.8656,-3.8914,-3.888,-3.8421,-3.8138,0.0,0.0,0.0,0.0,0.0,0.0,0.0,0.0,0.0,0.0,0.0,-4.3,-4.265,0.0,-4.3203,-4.3546,-4.3577,-4.397,-4.5061,-4.5479,-4.6106,-4.7209,-4.8152,-4.87,-4.87,-4.9073,-4.9411,-4.9594,-4.95,-4.956,-4.983,-4.986,-4.9889,-5.0011,-5.0011,-5.0011,-5.0011,-5.0011,-5.0011,-5.0011,-5.0011,-5.0011,-5.0011,-5.0011,-5.0011,-4.9976,-4.9597,-4.8741,-4.7603,-4.6466,-4.5742,-4.5397,-4.5397,-4.5397,-4.5397,-4.5397,-4.5397,-4.5397,-4.5397,-4.5397,-4.5397,-4.5397,-4.5397,-4.5397,-4.5397,-4.5397,-4.5328,-4.487,-4.4216,-4.3459,-4.2618,-4.1837,-4.1126,-4.071,-4.0583,-4.0583,-4.051,-4.0436,-4.0387,-4.0387,-4.0288,-4.0188,-4.0188,-4.0138,-4.0113,-4.0113,-4.0113,-4.0113,-4.0113,-4.0113,-4.0113,-4.0113,-4.0113,-4.0113,-4.0113,-4.0113,-4.0113,-4.0113,-4.0113,-4.0113,-4.0113,-4.0113,-3.9943,-3.9571,-3.9571,-3.9368,-3.9005,-3.9368,-3.9571,-3.9512,-3.9174,-3.9005,0.0,0.0,0.0,0.0,0.0,0.0,0.0,0.0,-4.1955,-4.2509,-4.2694,-4.2786,-4.2786,-4.291,-4.3156,-4.3716,-4.3809,-4.4186,-4.5342,-4.5478,-4.5697,-4.6272,-4.7171,-4.777,-4.7901,-4.8513,-4.8984,-4.9229,-4.926,-4.9381,-4.9649,-4.9649,-4.9737,-4.9952,-4.9918,-4.9982,-5.0011,-5.0011,-5.0011,-5.0011,-5.0011,-5.0011,-5.0011,-5.0011,-4.9982,-4.9918,-4.9642,-4.8844,-4.7569,-4.6017,-4.5397,-4.5397,-4.5397,-4.5397,-4.5397,-4.5397,-4.5397,-4.5397,-4.5397,-4.5397,-4.5397,-4.5397,-4.5397,-4.5397,-4.5397,-4.5294,-4.5,-4.4302,-4.3426,-4.2551,-4.18,-4.1057,-4.051,-4.0461,-4.0461,-4.0461,-4.0436,-4.0337,-4.0263,-4.0263,-4.0163,-4.0113,-4.0113,-4.0113,-4.0113,-4.0113,-4.0113,-4.0113,-4.0113,-4.0113,-4.0113,-4.0113,-4.0113,-4.0113,-4.0113,-4.0113,-4.0113,-4.0113,-4.0113,-4.0113,-4.0113,-4.0113,-4.0113,-4.0113,-4.0113,-4.0113,-4.0113,-4.0113,-4.0113,-4.0113,-4.0113,-4.0113,-4.1886,-4.178,-4.182,-4.1727,-4.1727,-4.1846,0.0,0.0,-4.2509,-4.2602,-4.3063,-4.3501,-4.3501,-4.3994,-4.4425,-4.4486,-4.4517,-4.4517,-4.4723,-4.4723,-4.4761,-4.4836,-4.617,-4.734,-4.7997,-4.8288,-4.8731,-4.9411,-4.9441,-4.9471,-4.95,-4.95,-4.959,-4.9737,-4.9737,-4.983,-5.0011,-5.0011,-5.0011,-5.0011,-5.0011,-5.0011,-5.0011,-5.0011,-4.9889,-4.9669,-4.8363,-4.7733,-4.7569,-4.6017,-4.5397,-4.5397,-4.5397,-4.5397,-4.5397,-4.5397,-4.5397,-4.5397,-4.5397,-4.5397,-4.5397,-4.5397,-4.5397,-4.5397,-4.5397,-4.4836,-4.4207,-4.4138,-4.2997,-4.1731,-4.1638,-4.1057,-4.0485,-4.0337,-4.0313,-4.0288,-4.0188,-4.0138,-4.0138,-4.0138,-4.0113,-4.0113,-4.0113,-4.0113,-4.0113,-4.0113,-4.0113,-4.0113,-4.0113,-4.0113,-4.0113,-4.0113,-4.0113,-4.0113,-4.0113,-4.0113,-4.0113,-4.0113,-4.0113,-4.0113,-4.0113,-4.0113,-4.0113,-4.0113,-4.0113,-4.0113,-4.0113,-4.0113,-4.0113,-4.0113,-4.0113,-4.0113,-4.104,-4.1278,-4.1586,0.0,-4.1894,-4.2355,-4.3002,-4.3156,-4.3279,-4.3679,-4.3994,-4.4209,-4.4209,-4.4425,-4.461,0.0,-4.461,-4.461,-4.461,-4.461,-4.461,-4.461,-4.5184,-4.5885,-4.6625,-4.7171,-4.777,-4.8511,-4.8574,-4.8796,-4.929,-4.932,-4.9411,-4.956,-4.959,-4.9619,-4.9713,-4.9801,-4.983,-4.983,-4.9918,-5.0011,-5.0011,-5.0011,-4.9947,-4.9791,-4.8277,-4.7679,-4.7569,-4.6017,-4.5397,-4.5397,-4.5397,-4.5397,-4.5397,-4.5397,-4.5397,-4.5397,-4.5397,-4.5397,-4.5397,-4.5397,-4.5397,-4.5397,-4.5397,-4.4854,-4.4079,-4.3511,-4.2484,-4.1476,-4.0857,-4.0492,-4.0263,-4.0188,-4.0188,-4.0163,-4.0113,-4.0113,-4.0113,-4.0113,-4.0113,-4.0113,-4.0113,-4.0113,-4.0113,-4.0113,-4.0113,-4.0113,-4.0113,-4.0113,-4.0113,-4.0113,-4.0113,-4.0113,-4.0113,-4.0113,-4.0113,-4.0113,-4.0113,-4.0113,-4.0113,-4.0113,-4.0113,-4.0113,-4.0113,-4.0113,-4.0113,-4.0113,-4.0113,-4.0113,-4.0113,-4.0113,-4.0782,0.0,0.0,-4.2109,-4.2509,-4.3033,-4.3747,-4.3901,-4.4024,-4.4517,-4.461,-4.461,-4.461,-4.461,-4.461,-4.461,-4.461,-4.461,-4.461,-4.461,-4.461,-4.461,-4.461,-4.4836,-4.5363,-4.6056,-4.6795,-4.7539,-4.7968,-4.8493,-4.9099,-4.9351,-4.9535,-4.9752,-4.9547,-4.9441,-4.95,-4.959,-4.9649,-4.9649,-4.983,-4.9918,-4.9918,-4.9918,-4.9952,-4.9907,-4.8333,-4.7617,-4.7513,-4.5964,-4.5344,-4.5344,-4.5344,-4.5371,-4.5397,-4.5397,-4.5371,-4.5344,-4.5344,-4.5318,-4.5291,-4.5291,-4.5291,-4.5291,-4.5344,-4.4629,-4.3658,-4.2997,-4.2031,-4.1009,-4.0299,-4.0113,-4.0113,-4.0113,-4.0113,-4.0113,-4.0113,-4.0113,-4.0113,-4.0113,-4.0113,-4.0113,-4.0113,-4.0113,-4.0113,-4.0113,-4.0113,-4.0113,-4.0113,-4.0113,-4.0113,-4.0113,-4.0113,-4.0113,-4.0113,-4.0113,-4.0113,-4.0113,-4.0113,-4.0113,-4.0113,-4.0113,-4.0113,-4.0113,-4.0113,-4.0113,-4.0113,-4.0113,-4.0113,-4.0113,-4.0113,-4.0113,0.0,0.0,-4.2725,-4.3377,-4.3562,-4.3747,-4.4425,-4.4579,-4.4579,-4.461,-4.461,-4.461,-4.461,-4.461,-4.461,-4.461,-4.461,-4.461,-4.461,-4.461,-4.461,-4.461,-4.461,-4.461,0.0,-4.5326,-4.6056,-4.6793,-4.8163,-4.8995,-4.8995,-4.9683,-5.0161,-5.0351,-4.9637,-4.929,-4.95,-4.95,-4.95,-4.95,-4.9649,-4.9708,-4.9708,-4.9708,-4.983,-4.9907,-4.822,-4.7511,-4.7374,-4.5856,-4.5203,-4.5203,-4.5203,-4.5291,-4.5397,-4.5397,-4.5318,-4.5203,-4.5203,-4.5096,-4.5022,-4.5022,-4.5022,-4.5049,-4.515,-4.3955,-4.2584,-4.2748,-4.1503,-4.0146,-4.0113,-4.0113,-4.0113,-4.0113,-4.0113,-4.0113,-4.0113,-4.0113,-4.0113,-4.0113,-4.0113,-4.0113,-4.0113,-4.0113,-4.0113,-4.0113,-4.0113,-4.0113,-4.0113,-4.0113,-4.0113,-4.0113,-4.0113,-4.0113,-4.0113,-4.0113,-4.0113,-4.0113,-4.0113,-4.0113,-4.0113,-4.0113,-4.0113,-4.0113,-4.0113,-4.0113,-4.0113,-4.0113,-4.0113,-4.0113,-4.0113,-4.0113,0.0,0.0,-4.3347,-4.3562,-4.3932,-4.4332,-4.4579,-4.461,-4.461,-4.461,-4.4941,-4.5126,-4.4664,-4.4941,-4.5133,-4.4702,-4.461,-4.461,-4.461,-4.461,-4.461,-4.461,-4.461,0.0,0.0,0.0,0.0,-4.6621,-4.7699,-4.8651,-4.9622,-5.005,-5.0323,-5.0385,-4.9759,-4.9411,-4.95,-4.95,-4.95,-4.95,-4.953,-4.956,-4.956,-4.9649,-4.9737,-4.9727,-4.8242,-4.7595,-4.7374,-4.5829,-4.515,-4.5076,-4.5076,-4.5157,-4.5291,-4.5291,-4.523,-4.5203,-4.5203,-4.515,-4.5096,-4.5049,-4.5022,-4.5022,-4.5042,-4.3928,-4.2628,-4.2602,-4.1469,-4.0213,-4.0138,-4.0113,-4.0113,-4.0113,-4.0113,-4.0113,-4.0113,-4.0113,-4.0113,-4.0113,-4.0113,-4.0113,-4.0113,-4.0113,-4.0113,-4.0113,-4.0113,-4.0113,-4.0113,-4.0113,-4.0113,-4.0113,-4.0113,-4.0113,-4.0113,-4.0113,-4.0113,-4.0113,-4.0113,-4.0113,-4.0113,-4.0113,-4.0113,-4.0113,-4.0113,-4.0113,-4.0113,-4.0113,-4.0113,-4.0113,-4.0113,-4.0113,0.0,-4.3433,-4.3963,-4.3963,-4.4302,-4.461,-4.461,-4.461,-4.461,-4.461,-4.5126,-4.5372,-4.4695,-4.5126,-4.5372,-4.4733,-4.461,-4.461,-4.461,-4.461,-4.461,-4.461,-4.461,-4.461,0.0,0.0,0.0,-4.6222,-4.7262,-4.8365,-4.9509,-5.0026,-5.0249,-5.0249,-4.9678,-4.9381,-4.9381,-4.9381,-4.9381,-4.9381,-4.9381,-4.9411,-4.95,-4.959,-4.9619,-4.9551,-4.8461,-4.7773,-4.7289,-4.6049,-4.5309,-4.5022,-4.4968,-4.5022,-4.5123,-4.5177,-4.5203,-4.5177,-4.515,-4.5096,-4.5015,-4.4913,-4.4858,-4.4824,-4.4606,-4.3625,-4.2482,-4.2184,-4.118,-4.0213,-4.0138,-4.0113,-4.0113,-4.0113,-4.0113,-4.0113,-4.0113,-4.0113,-4.0113,-4.0113,-4.0113,-4.0113,-4.0113,-4.0113,-4.0113,-4.0113,-4.0113,-4.0113,-4.0113,-4.0113,-4.0113,-4.0113,-4.0113,-4.0113,-4.0113,-4.0113,-4.0113,-4.0113,-4.0113,-4.0113,-4.0113,-4.0113,-4.0113,-4.0113,-4.0113,-4.0113,-4.0113,-4.0113,-4.0113,-4.0113,-4.0113,-4.0113,-4.347,-4.4117,-4.461,-4.461,-4.461,-4.461,-4.461,-4.461,-4.461,-4.461,-4.5126,-4.5372,0.0,0.0,-4.5372,-4.4733,-4.461,-4.461,-4.461,-4.461,-4.461,0.0,0.0,0.0,0.0,0.0,0.0,-4.568,-4.7049,-4.8105,-4.8769,-4.9577,-4.9986,-4.9987,-4.9474,-4.9229,-4.9229,-4.9199,-4.9199,-4.9199,-4.9199,-4.929,-4.9471,-4.9471,-4.9471,-4.9436,-4.8831,-4.8049,-4.7119,-4.6396,-4.5644,-4.4968,-4.4831,-4.4886,-4.5022,-4.5123,-4.5177,-4.515,-4.5049,-4.4913,-4.4776,-4.4637,-4.4615,-4.4507,-4.3933,-4.3071,-4.2178,-4.1622,-4.0824,-4.0113,-4.0113,-4.0113,-4.0113,-4.0113,-4.0113,-4.0113,-4.0113,-4.0113,-4.0113,-4.0113,-4.0113,-4.0113,-4.0113,-4.0113,-4.0113,-4.0113,-4.0113,-4.0113,-4.0113,-4.0113,-4.0113,-4.0113,-4.0113,-4.0113,-4.0113,-4.0113,-4.0113,-4.0113,-4.0113,-4.0113,-4.0113,-4.0113,-4.0113,-4.0113,-4.0113,-4.0113,-4.0113,-4.0113,-4.0113,-4.0113,-4.0113,-4.0113,-4.4178,-4.4486,-4.461,-4.461,-4.461,-4.461,-4.461,-4.461,-4.461,-4.461,-4.5126,-4.5372,0.0,0.0,0.0,-4.4733,-4.461,0.0,-4.461,-4.461,0.0,-4.461,0.0,-4.5341,-4.5341,-4.5926,0.0,-4.7065,-4.7981,-4.8643,-4.8801,-4.972,-4.9992,-4.946,-4.9424,-4.9411,-4.9411,-4.926,-4.9138,-4.9046,-4.9046,-4.9077,-4.9107,-4.9229,-4.929,-4.9256,-4.8685,-4.7904,-4.7009,-4.626,-4.5456,-4.4692,-4.4637,-4.472,-4.4858,-4.4886,-4.4968,-4.5049,-4.4913,-4.4886,-4.494,-4.4776,-4.4665,-4.4581,-4.4406,-4.3423,-4.2279,-4.2102,-4.112,-4.0113,-4.0113,-4.0113,-4.0113,-4.0113,-4.0113,-4.0113,-4.0113,-4.0113,-4.0113,-4.0113,-4.0113,-4.0113,-4.0113,-4.0113,-4.0113,-4.0113,-4.0113,-4.0113,-4.0113,-4.0113,-4.0113,-4.0113,-4.0113,-4.0113,-4.0113,-4.0113,-4.0113,-4.0113,-4.0113,-4.0113,-4.0113,-4.0113,-4.0113,-4.0113,-4.0113,-4.0113,-4.0113,-4.0113,-4.0113,-4.0113,-4.0113,-4.0113,-4.4425,-4.461,-4.461,-4.461,-4.461,-4.461,-4.461,-4.461,-4.461,-4.461,-4.5126,0.0,0.0,0.0,0.0,0.0,0.0,0.0,-4.461,-4.461,-4.4733,0.0,-4.5372,0.0,-4.5988,-4.6634,-4.7188,-4.7588,-4.8,-4.8403,-4.8684,-4.8973,-4.9132,-4.9085,-4.8952,-4.9043,-4.935,-4.926,-4.9138,-4.9018,-4.9018,-4.9018,-4.8984,-4.9077,-4.9107,-4.9107,-4.8848,-4.8094,-4.6986,-4.6544,-4.5762,-4.4748,-4.4671,-4.4665,-4.4803,-4.4803,-4.4858,-4.4913,-4.4886,-4.4913,-4.4886,-4.4748,-4.4671,-4.4547,-4.4181,-4.3234,-4.2219,-4.1914,-4.0967,-4.0113,-4.0113,-4.0113,-4.0113,-4.0113,-4.0113,-4.0113,-4.0113,-4.0113,-4.0113,-4.0113,-4.0113,-4.0113,-4.0113,-4.0113,-4.0113,-4.0113,-4.0113,-4.0113,-4.0113,-4.0113,-4.0113,-4.0113,-4.0113,-3.9978,-3.9722,-3.9722,-3.9722,-3.9722,-3.9454,-3.9428,-3.9696,-3.9454,-3.9322,-3.9322,-3.9592,-3.9722,-3.9722,-3.9952,-4.0113,-4.0113,-4.0113,-4.0113,-4.4456,-4.461,-4.461,-4.461,-4.461,-4.461,-4.461,-4.4548,-4.4517,-4.461,0.0,-4.5157,-4.4702,-4.5103,-4.5249,-4.4664,0.0,-4.461,-4.461,-4.461,-4.4856,-4.5495,-4.568,-4.5988,-4.6665,-4.7342,-4.7742,-4.7742,-4.7742,-4.7999,-4.8584,-4.8013,-4.7994,-4.8644,-4.8298,-4.8448,-4.9168,-4.9168,-4.9107,-4.9018,-4.9018,-4.9018,-4.9018,-4.9018,-4.9018,-4.9018,-4.9107,-4.8388,-4.7126,-4.7024,-4.6226,-4.505,-4.4732,-4.4699,-4.4776,-4.4776,-4.4776,-4.4776,-4.4913,-4.4886,-4.4748,-4.4671,-4.4615,-4.4479,-4.3775,-4.3031,-4.2286,-4.1542,-4.0798,-4.0214,-4.0146,-4.0113,-4.0113,-4.0113,-4.0113,-4.0113,-4.0113,-4.0113,-4.0113,-4.0113,-4.0113,-4.0113,-4.0113,-4.0113,-4.0113,-4.0113,-4.0113,-4.0087,-3.9978,-3.9952,-3.9952,-3.9952,-3.9901,-3.967,-3.9109,-3.9082,-3.9082,-3.9082,-3.8585,-3.853,-3.9055,-3.8557,-3.8306,-3.8306,-3.881,-3.9082,-3.9082,-3.9696,-3.9952,-3.9978,-4.0062,-4.0113,-4.473,-4.461,-4.461,-4.461,-4.461,-4.461,-4.461,-4.4178,0.0,0.0,-4.4271,-4.4086,-4.4548,-4.4702,-4.4764,-4.4641,0.0,0.0,0.0,0.0,-4.4856,0.0,0.0,0.0,0.0,0.0,0.0,0.0,-4.845,-4.8531,-4.8749,-4.8078,-4.7805,-4.8067,-4.7968,-4.8289,-4.9015,-4.9015,-4.9015,-4.9018,-4.9018,-4.9018,-4.9018,-4.9018,-4.9018,-4.9018,-4.9015,-4.8541,-4.7695,-4.7086,-4.6336,-4.549,-4.4852,-4.4615,-4.4643,-4.4643,-4.4643,-4.4643,-4.4671,-4.4637,-4.4671,-4.472,-4.4665,-4.4581,-4.4418,-4.3842,-4.3064,-4.232,-4.1576,-4.0865,-4.0282,-4.0113,-4.0113,-4.0113,-4.0113,-4.0113,-4.0113,-4.0113,-4.0113,-4.0113,-4.0113,-4.0113,-4.0113,-4.0113,-4.0113,-4.0113,-4.0113,-3.9901,-3.9435,-3.9382,-3.9382,-3.9382,-3.892,-3.8557,-3.8446,-3.8446,-3.8446,-3.8446,-3.8362,-3.8334,-3.8446,-3.8362,-3.8306,-3.8306,-3.839,-3.8446,-3.8446,-3.9055,-3.9382,-3.9382,-3.985,-4.0113,-4.529,-4.488,-4.461,-4.461,-4.461,-4.4517,-4.4178,0.0,0.0,0.0,-4.3593,-4.3716,-4.4024,0.0,0.0,0.0,0.0,0.0,0.0,0.0,0.0,0.0,0.0,0.0,0.0,0.0,-4.8604,-4.8604,-4.8604,-4.8615,-4.8689,-4.8082,-4.7416,-4.6759,-4.7506,-4.8064,-4.8418,-4.8798,-4.9018,-4.9018,-4.9018,-4.9018,-4.9018,-4.9018,-4.9018,-4.9018,-4.9018,-4.8578,-4.7838,-4.709,-4.6404,-4.5716,-4.4948,-4.4637,-4.4726,-4.4643,-4.4615,-4.4615,-4.4615,-4.4615,-4.4615,-4.4699,-4.4671,-4.4615,-4.4615,-4.4045,-4.3267,-4.2489,-4.1779,-4.1035,-4.0282,-4.0113,-4.0113,-4.0113,-4.0113,-4.0113,-4.0113,-4.0113,-4.0113,-4.0113,-4.0113,-4.0011,-3.9696,-3.9644,-3.954,-3.9216,-3.9428,-3.9401,-3.881,-3.8756,-3.8756,-3.8756,-3.8474,-3.8165,-3.7854,-3.7825,-3.7825,-3.7825,-3.7533,-3.7504,-3.7825,-3.7533,-3.7356,-3.7356,-3.7679,-3.7825,-3.7825,-3.8451,-3.8756,-3.8756,-3.9348,-3.9644,-4.5805,-4.529,-4.4799,-4.4648,-4.461,-4.4425,-4.3747,-4.3501,0.0,0.0,-4.3002,-4.3439,-4.3562,0.0,0.0,0.0,0.0,0.0,0.0,0.0,0.0,0.0,0.0,0.0,0.0,-4.8604,0.0,-4.8604,-4.8604,-4.8481,-4.8204,-4.788,-4.7081,-4.5728,-4.6967,-4.7737,-4.7901,-4.8608,-4.9018,-4.9018,-4.9018,-4.9018,-4.9018,-4.9018,-4.9018,-4.9018,-4.9018,-4.868,-4.8041,-4.7158,-4.6506,-4.6011,-4.4981,-4.4637,-4.472,-4.4643,-4.4615,-4.4615,-4.4615,-4.4615,-4.4615,-4.4615,-4.4615,-4.4615,-4.4615,-4.4147,-4.3504,-4.276,-4.2016,-4.1271,-4.0553,-4.0214,-4.0113,-4.0113,-4.0113,-4.0113,-4.0113,-4.0113,-4.0113,-4.0113,-4.0113,-3.9901,-3.9295,-3.9189,-3.9001,-3.839,-3.8728,-3.881,-3.8165,-3.8108,-3.8051,-3.7908,-3.7908,-3.7738,-3.7238,-3.7208,-3.7208,-3.7208,-3.6754,-3.6723,-3.7178,-3.6754,-3.6507,-3.6507,-3.6968,-3.7208,-3.7208,-3.7825,-3.8165,-3.8306,-3.892,-3.9242,-4.606,-4.566,-4.5442,-4.4761,-4.461,-4.4425,-4.3747,0.0,0.0,-4.2633,-4.2663,-4.2879,-4.3501,-4.4148,-4.461,0.0,0.0,0.0,0.0,0.0,0.0,0.0,0.0,0.0,0.0,-4.8604,-4.8604,-4.8604,-4.8604,-4.8081,-4.685,-4.7425,-4.7156,-4.5728,-4.6448,-4.7204,-4.7868,-4.8608,-4.9018,-4.9018,-4.9018,-4.9018,-4.9018,-4.9018,-4.9018,-4.9018,-4.9018,-4.8951,-4.8781,-4.7361,-4.6781,-4.6578,-4.5156,-4.4615,-4.4615,-4.4615,-4.4615,-4.4615,-4.4615,-4.4615,-4.4615,-4.4615,-4.4615,-4.4615,-4.4615,-4.4547,-4.4316,-4.3538,-4.276,-4.2016,-4.1305,-4.0595,-4.0113,-4.0113,-4.0113,-4.0113,-4.0113,-4.0113,-4.0113,-4.0113,-4.0113,-3.9901,-3.9295,-3.9189,-3.9001,-3.839,-3.8334,-3.8137,-3.7533,-3.7506,-3.7268,-3.6723,-3.6662,-3.6631,-3.6569,-3.6569,-3.6569,-3.6569,-3.6507,-3.6507,-3.6569,-3.6507,-3.6507,-3.6507,-3.6538,-3.6569,-3.6569,-3.7178,-3.7767,-3.8306,-3.892,-3.9513,-4.7171,-4.6378,-4.5624,-4.5363,-4.4918,-4.4295,-4.3248,0.0,-4.2386,-4.1489,-4.1709,-4.2202,-4.2848,-4.3562,-4.4148,0.0,0.0,0.0,0.0,0.0,0.0,0.0,0.0,0.0,0.0,0.0,-4.8604,-4.8604,-4.8604,-4.8019,-4.6665,-4.6928,-4.643,-4.5092,-4.5769,-4.6483,-4.7204,-4.7967,-4.8545,-4.9018,-4.9018,-4.9018,-4.9018,-4.9018,-4.9018,-4.9018,-4.9018,-4.9018,-4.8917,-4.7902,-4.7192,-4.6684,-4.5669,-4.4993,-4.4615,-4.4615,-4.4615,-4.4615,-4.4615,-4.4615,-4.4615,-4.4615,-4.4615,-4.4615,-4.4615,-4.4615,-4.4418,-4.3639,-4.2861,-4.2117,-4.1407,-4.0629,-4.0113,-4.0113,-4.0113,-4.0113,-4.0113,-4.0113,-4.0113,-4.0113,-3.9799,-3.9348,-3.8783,-3.8367,-3.7911,-3.7296,-3.7533,-3.7533,-3.6938,-3.7178,-3.7178,-3.6538,-3.6507,-3.6507,-3.6507,-3.6507,-3.6507,-3.6507,-3.6507,-3.6507,-3.6507,-3.6507,-3.6507,-3.6507,-3.6507,-3.6507,-3.6507,-3.6754,-3.6967,-3.7207,-3.7825,-3.8451,-4.79,-4.6967,-4.5985,-4.5769,-4.4986,-4.3987,0.0,0.0,-4.1955,-4.0751,-4.1093,-4.1801,-4.2479,-4.3125,-4.384,0.0,0.0,0.0,0.0,0.0,0.0,0.0,0.0,-4.7127,0.0,-4.8604,-4.8604,-4.8604,-4.8604,-4.8019,-4.6665,-4.6603,-4.5988,-4.4641,-4.5326,-4.5949,-4.648,-4.7406,-4.8161,-4.8704,-4.8892,-4.9018,-4.9018,-4.9018,-4.9018,-4.9018,-4.9018,-4.9018,-4.8951,-4.8176,-4.7462,-4.6718,-4.6007,-4.5229,-4.4615,-4.4615,-4.4615,-4.4615,-4.4615,-4.4615,-4.4615,-4.4615,-4.4615,-4.4615,-4.4615,-4.4615,-4.4479,-4.391,-4.3064,-4.2083,-4.1102,-4.0493,-4.0113,-4.0113,-4.0113,-4.0113,-4.0113,-4.0113,-4.0113,-4.0113,-3.9618,-3.9001,-3.839,-3.7796,-3.7178,-3.6569,-3.6877,-3.6998,-3.6538,-3.6877,-3.6967,-3.6538,-3.6507,-3.6507,-3.6507,-3.6507,-3.6507,-3.6507,-3.6507,-3.6507,-3.6507,-3.6507,-3.6507,-3.6507,-3.6507,-3.6507,-3.6507,-3.6507,-3.6569,-3.6785,-3.7148,-3.7738,-4.7897,-4.7339,-4.6588,-4.5877,-4.4642,-4.3439,0.0,0.0,-4.1401,-4.0628,-4.1093,-4.1801,-4.2479,-4.3125,-4.384,-4.4517,-4.461,0.0,0.0,0.0,0.0,0.0,0.0,-4.7127,-4.8481,-4.8604,-4.8604,-4.8604,-4.8604,-4.8019,-4.6665,-4.6603,-4.5988,-4.4641,-4.5326,-4.5697,-4.5697,-4.7171,-4.7901,-4.7934,-4.8639,-4.9018,-4.9018,-4.9018,-4.9018,-4.9018,-4.9018,-4.9018,-4.8951,-4.8176,-4.7462,-4.6718,-4.6007,-4.5229,-4.4615,-4.4615,-4.4615,-4.4615,-4.4615,-4.4615,-4.4615,-4.4615,-4.4615,-4.4615,-4.4615,-4.4615,-4.4615,-4.4581,-4.3498,-4.1948,-4.0485,-4.0113,-4.0113,-4.0113,-4.0113,-4.0113,-4.0113,-4.0113,-4.0113,-4.0113,-3.9618,-3.9001,-3.839,-3.7796,-3.7178,-3.6569,-3.6538,-3.6538,-3.6507,-3.6538,-3.6538,-3.6507,-3.6507,-3.6507,-3.6507,-3.6507,-3.6507,-3.6507,-3.6507,-3.6507,-3.6507,-3.6507,-3.6507,-3.6507,-3.6507,-3.6507,-3.6507,-3.6507,-3.6816,-3.7387,-3.7207,-3.7674,-4.7897,-4.7374,-4.6726,-4.6515,-4.5011,-4.3439,-4.2756,0.0,-4.1401,-4.0628,-4.0689,-4.1217,-4.2386,-4.2786,-4.3279,-4.4425,-4.461,0.0,0.0,0.0,0.0,0.0,0.0,-4.8142,0.0,-4.8604,-4.8604,-4.8604,-4.8604,-4.8019,-4.6665,-4.6603,-4.5988,-4.4641,-4.4836,-4.5179,-4.5697,-4.6657,-4.7406,-4.7934,-4.8639,-4.9018,-4.9018,-4.9018,-4.9018,-4.9018,-4.9018,-4.9018,-4.8984,-4.8748,-4.824,-4.7496,-4.6752,-4.6007,-4.5297,-4.4818,-4.4615,-4.4615,-4.4615,-4.4615,-4.4615,-4.4615,-4.4615,-4.4615,-4.4615,-4.4615,-4.4378,-4.3301,-4.2685,-4.1948,-4.0485,-4.0113,-4.0113,-4.0113,-4.0113,-4.0113,-4.0113,-4.0113,-3.9952,-3.9566,-3.9001,-3.839,-3.7796,-3.7178,-3.6723,-3.6507,-3.6507,-3.6507,-3.6507,-3.6507,-3.6507,-3.6507,-3.6507,-3.6507,-3.6507,-3.6507,-3.6507,-3.6507,-3.6507,-3.6507,-3.6507,-3.6507,-3.6507,-3.6507,-3.6352,-3.6289,-3.6289,-3.6195,-3.6258,-3.6445,-3.6814,-3.7324,0.0,-4.6742,-4.6018,-4.6018,-4.4401,0.0,0.0,0.0,-4.1063,-4.0597,-4.072,-4.1278,-4.2386,-4.2817,-4.331,-4.4418,-4.461,0.0,0.0,0.0,0.0,0.0,0.0,0.0,0.0,-4.8604,-4.8604,-4.8604,-4.8604,-4.8019,-4.6665,-4.6603,-4.5988,-4.4641,-4.461,-4.4836,-4.529,-4.602,-4.6761,-4.7473,-4.8225,-4.8736,-4.9018,-4.9018,-4.9018,-4.9018,-4.9018,-4.9018,0.0,-4.9018,-4.8578,-4.7804,-4.709,-4.6346,-4.5602,-4.4886,-4.4615,-4.4615,-4.4615,-4.4615,-4.4615,-4.4615,-4.4615,-4.4615,-4.4615,-4.4615,-4.4344,-4.3064,-4.2523,-4.2016,-4.0857,-4.0316,-4.0113,-4.0113,-3.9927,-3.9825,-4.0062,-3.9901,-3.9644,-3.9242,-3.8695,-3.8108,-3.7506,-3.6907,-3.6507,-3.6507,-3.6507,-3.6507,-3.6507,-3.6507,-3.6507,-3.6507,-3.6507,-3.6507,-3.6507,-3.6507,-3.6507,-3.6507,-3.6507,-3.6507,-3.6507,-3.6507,-3.6507,-3.6507,-3.6383,-3.6289,-3.6196,-3.6068,-3.5973,-3.5879,-3.6508,-3.6966,0.0,-4.568,-4.4723,-4.4723,-4.3137,-4.1586,0.0,0.0,0.0,0.0,-4.1124,-4.1832,-4.254,-4.3156,-4.384,-4.4517,-4.461,0.0,0.0,0.0,0.0,0.0,-4.8235,0.0,-4.8604,-4.8604,-4.8604,-4.8604,-4.8604,-4.8019,-4.6665,-4.6603,-4.5988,-4.4641,-4.461,-4.461,-4.461,-4.5326,-4.6092,-4.6828,-4.7539,-4.829,-4.9018,-4.9018,-4.9018,-4.9018,-4.9018,-4.9018,-4.9018,-4.9018,-4.8612,-4.7872,-4.709,-4.638,-4.5669,-4.4886,-4.4615,-4.4615,-4.4615,-4.4615,-4.4615,-4.4615,-4.4615,-4.4615,-4.4615,-4.4615,-4.4418,-4.3639,-4.2834,-4.2064,-4.1407,-4.0603,-4.0062,-4.0087,-3.967,-3.9435,-3.9901,-3.9618,-3.9162,-3.9082,-3.8645,-3.8023,-3.7447,-3.6877,-3.6507,-3.6507,-3.6507,-3.6507,-3.6507,-3.6507,-3.6507,-3.6507,-3.6507,-3.6507,-3.6507,-3.6507,-3.6507,-3.6507,-3.6507,-3.6507,-3.6507,-3.6507,-3.6507,-3.6507,-3.6507,-3.6352,-3.6133,-3.6037,-3.5878,-3.5688,-3.6321,-3.6538,-4.5089,0.0,-4.4723,-4.4723,-4.3137,-4.1586,0.0,0.0,0.0,0.0,0.0,0.0,0.0,0.0,-4.384,-4.4517,-4.461,-4.4795,0.0,0.0,0.0,-4.8266,-4.8512,-4.8604,-4.8604,-4.8604,-4.8604,-4.8604,-4.8604,-4.8019,-4.6665,-4.6603,-4.5988,-4.4641,-4.461,-4.461,-4.461,-4.5326,-4.6092,-4.6828,-4.7539,-4.829,-4.9018,-4.9018,-4.9018,-4.9018,-4.9018,-4.9018,-4.9018,-4.9018,-4.8917,-4.8612,-4.7293,-4.6684,-4.638,-4.5089,-4.4615,-4.4615,-4.4615,-4.4615,-4.4615,-4.4615,-4.4615,-4.4615,-4.4615,-4.4615,-4.4418,-4.3639,-4.2534,-4.1543,-4.1268,-4.0318,-3.954,-3.9978,-3.9978,-3.9799,-3.9487,-3.9295,-3.892,-3.7998,-3.7709,-3.7447,-3.6816,-3.66,-3.6507,-3.6507,-3.6507,-3.6507,-3.6507,-3.6507,-3.6507,-3.6507,-3.6507,-3.6507,-3.6507,-3.6507,-3.6507,-3.6507,-3.6507,-3.6507,-3.6507,-3.6507,-3.6507,-3.6507,-3.6258,-3.5973,-3.5651,-3.5619,-3.5587,-3.5554,-3.5716,-3.6005,-4.4179,-4.388,-4.3686,-4.3686,-4.2378,-4.1186,-4.1524,0.0,0.0,0.0,0.0,0.0,0.0,0.0,0.0,0.0,-4.4849,0.0,0.0,0.0,0.0,-4.8543,-4.8604,-4.8604,-4.8604,-4.8604,-4.8604,-4.8604,-4.8327,-4.7681,-4.6665,-4.6296,-4.5649,-4.4603,-4.461,-4.461,-4.461,-4.4993,-4.5733,-4.6795,-4.7204,-4.7967,-4.9018,-4.9018,-4.9018,-4.9018,-4.9018,-4.9018,-4.9018,-4.9018,-4.9018,-4.8883,-4.7767,-4.709,-4.665,-4.55,-4.4886,-4.4615,-4.4615,-4.4615,-4.4615,-4.4615,-4.4615,-4.4615,-4.4615,-4.4615,-4.4513,-4.4079,-4.2719,-4.1388,-4.1324,-4.0038,-3.8892,-3.9216,-3.9082,-3.8865,-3.881,-3.859,-3.8169,-3.7535,-3.7417,-3.7208,-3.66,-3.6507,-3.6507,-3.6507,-3.6507,-3.6507,-3.6507,-3.6507,-3.6507,-3.6507,-3.6507,-3.6507,-3.6507,-3.6507,-3.6507,-3.6507,-3.6507,-3.6507,-3.6507,-3.6507,-3.6507,-3.6507,-3.6226,-3.5973,-3.5748,-3.5651,-3.5554,-3.5519,-3.5519,-3.5683,-4.3706,-4.308,-4.2651,-4.2525,-4.1584,-4.0843,-4.1586,0.0,0.0,0.0,0.0,0.0,0.0,0.0,0.0,0.0,0.0,0.0,0.0,0.0,-4.7958,-4.8543,-4.8604,-4.8604,-4.8604,-4.8604,-4.8604,-4.8604,-4.7989,-4.7311,-4.6634,-4.5957,-4.528,-4.4641,-4.461,-4.461,-4.461,-4.461,-4.529,-4.6622,-4.6759,-4.7505,-4.8829,-4.8923,-4.9018,-4.9018,-4.9018,-4.9018,-4.9018,-4.9018,-4.9018,-4.8951,-4.8176,-4.7462,-4.6718,-4.5974,-4.5229,-4.4615,-4.4615,-4.4615,-4.4615,-4.4615,-4.4615,-4.4615,-4.4615,-4.4615,-4.4615,-4.4615,-4.3059,-4.1394,-4.1262,-3.9789,-3.8294,-3.8311,-3.7911,-3.765,-3.8051,-3.7767,-3.7387,-3.7268,-3.7268,-3.7088,-3.6569,-3.6507,-3.6507,-3.6507,-3.6507,-3.6507,-3.6507,-3.6507,-3.6507,-3.6507,-3.6507,-3.6507,-3.6507,-3.6507,-3.6507,-3.6507,-3.6507,-3.6507,-3.6507,-3.6507,-3.6476,-3.6445,-3.6289,-3.6101,-3.5941,-3.5784,-3.5621,-3.5519,-3.5519,-3.5519,-4.3706,-4.3442,-4.3267,-4.2742,-4.1997,-4.1617,0.0,0.0,0.0,0.0,0.0,0.0,0.0,0.0,0.0,0.0,0.0,-4.6726,0.0,0.0,-4.8481,-4.8604,-4.8604,-4.8604,-4.8604,-4.8604,-4.8604,-4.8604,-4.7989,-4.7311,-4.6634,-4.5957,-4.528,-4.4641,-4.461,-4.461,-4.461,-4.461,-4.503,-4.5877,-4.6483,-4.7271,-4.8096,-4.8736,-4.9018,-4.9018,-4.9018,-4.9018,-4.9018,-4.9018,-4.9018,-4.8951,-4.8176,-4.7462,-4.6718,-4.5974,-4.5229,-4.4615,-4.4615,-4.4615,-4.4615,-4.4615,-4.4615,-4.4615,-4.4615,-4.4615,-4.4615,-4.4615,-4.3111,-4.1341,-4.0726,-3.9445,-3.8352,-3.8327,-3.8222,-3.8055,-3.7621,-3.7476,-3.7238,-3.6723,-3.6631,-3.66,-3.6538,-3.6507,-3.6507,-3.6507,-3.6507,-3.6507,-3.6507,-3.6507,-3.6507,-3.6507,-3.6507,-3.6507,-3.6507,-3.6507,-3.6507,-3.6507,-3.6507,-3.6507,-3.6507,-3.6507,-3.6414,-3.6227,-3.6196,-3.6038,-3.5752,-3.572,-3.5621,-3.5519,-3.5519,-3.5519,-4.3852,-4.3877,-4.4039,-4.3329,-4.2638,-4.2325,-4.2971,0.0,0.0,0.0,0.0,0.0,0.0,0.0,0.0,0.0,0.0,-4.7373,-4.805,-4.8419,-4.8604,-4.8604,-4.8604,-4.8604,-4.8604,-4.8604,-4.8604,-4.8604,-4.765,-4.6942,-4.6603,-4.5618,-4.4949,-4.4641,-4.461,-4.461,-4.461,-4.461,-4.4955,-4.5697,-4.648,-4.7171,-4.7901,-4.8225,-4.8608,-4.8987,-4.8576,-4.8608,-4.9018,-4.9018,-4.9018,-4.8984,-4.8646,-4.8037,-4.7259,-4.6109,-4.5229,-4.4615,-4.4615,-4.4615,-4.4615,-4.4615,-4.4615,-4.4615,-4.4615,-4.4615,-4.4497,-4.4121,-4.2792,-4.132,-4.064,-3.9179,-3.7779,-3.7426,-3.7326,-3.7237,-3.6967,-3.6906,-3.6846,-3.6538,-3.6507,-3.6507,-3.6507,-3.6507,-3.6507,-3.6507,-3.6507,-3.6507,-3.6507,-3.6507,-3.6507,-3.6507,-3.6507,-3.6507,-3.6507,-3.6507,-3.6507,-3.6507,-3.6507,-3.6507,-3.6507,-3.6507,-3.6445,-3.6352,-3.6352,-3.6195,-3.5878,-3.5878,-3.5718,-3.5519,-3.5519,-3.5519,-4.42,-4.4399,-4.4712,-4.3806,-4.3187,-4.3002,-4.3685,0.0,0.0,0.0,0.0,0.0,0.0,0.0,0.0,-4.6603,-4.7281,-4.7835,-4.8512,-4.8604,-4.8604,-4.8604,-4.8604,-4.8604,-4.8604,-4.8604,-4.8604,-4.8604,-4.7373,-4.6603,-4.6603,-4.5311,-4.461,-4.461,-4.461,-4.461,-4.461,-4.461,-4.488,-4.5442,-4.6375,-4.7069,-4.7638,-4.7803,-4.8289,-4.8954,-4.8225,-4.8225,-4.8767,-4.8923,-4.8892,-4.8767,-4.8923,-4.8443,-4.7496,-4.6177,-4.5229,-4.4615,-4.4615,-4.4615,-4.4615,-4.4615,-4.4615,-4.4615,-4.4615,-4.4615,-4.4468,-4.3914,-4.2772,-4.1517,-4.0522,-3.8998,-3.7523,-3.6692,-3.6507,-3.6507,-3.6507,-3.6507,-3.6507,-3.6507,-3.6507,-3.6507,-3.6507,-3.6507,-3.6507,-3.6507,-3.6507,-3.6507,-3.6507,-3.6507,-3.6507,-3.6507,-3.6507,-3.6507,-3.6507,-3.6507,-3.6507,-3.6507,-3.6507,-3.6507,-3.6507,-3.6507,-3.6507,-3.6507,-3.6507,-3.632,-3.6005,-3.6005,-3.5844,-3.5519,-3.5519,-3.5519,-4.482,-4.5111,-4.5289,-4.393,-4.3562,0.0,-4.4394,-4.4548,0.0,0.0,0.0,0.0,0.0,0.0,-4.5957,-4.7311,-4.7558,-4.7835,-4.8512,-4.8604,-4.8604,-4.8604,-4.8604,-4.8604,-4.8604,-4.8604,-4.8604,-4.8604,-4.7373,-4.6603,-4.6603,-4.5311,-4.461,-4.461,-4.461,-4.461,-4.461,-4.461,-4.461,-4.4685,-4.6127,-4.6828,-4.6898,-4.7572,-4.8289,-4.8954,-4.8225,-4.7934,-4.8032,-4.8736,-4.8576,-4.8064,-4.8736,-4.8139,-4.6786,-4.6007,-4.5229,-4.4615,-4.4615,-4.4615,-4.4615,-4.4615,-4.4615,-4.4615,-4.4615,-4.4615,-4.4587,-4.4559,-4.3495,-4.2007,-4.0069,-3.8997,-3.8108,-3.6815,-3.6507,-3.6507,-3.6507,-3.6507,-3.6507,-3.6507,-3.6507,-3.6507,-3.6507,-3.6507,-3.6507,-3.6507,-3.6507,-3.6507,-3.6507,-3.6507,-3.6507,-3.6507,-3.6507,-3.6507,-3.6507,-3.6507,-3.6507,-3.6507,-3.6507,-3.6507,-3.6507,-3.6507,-3.6507,-3.6507,-3.6507,-3.632,-3.6005,-3.6005,-3.5844,-3.5519,-3.5519,-3.5519,-4.6218,-4.6191,-4.6166,-4.5173,0.0,0.0,0.0,0.0,0.0,0.0,0.0,0.0,0.0,0.0,-4.7004,-4.7527,-4.7958,-4.8327,-4.8573,-4.8604,-4.8604,-4.8604,-4.8604,-4.8604,-4.8604,-4.8604,-4.8604,-4.8604,-4.7742,-4.7034,-4.6603,-4.5711,-4.5041,-4.4641,-4.461,-4.461,-4.461,-4.461,-4.461,-4.461,-4.5624,-4.6375,-4.6828,-4.7069,-4.7869,-4.8954,-4.8225,-4.8161,-4.8608,-4.8892,-4.8829,-4.8608,-4.8892,-4.8105,-4.6752,-4.6481,-4.5635,-4.4615,-4.4615,-4.4615,-4.4615,-4.4615,-4.4615,-4.4615,-4.4615,-4.4615,-4.4615,-4.4615,-4.3591,-4.2231,-4.1047,-3.9629,-3.8262,-3.7338,-3.6784,-3.6507,-3.6507,-3.6507,-3.6507,-3.6507,-3.6507,-3.6507,-3.6507,-3.6507,-3.6507,-3.6507,-3.6507,-3.6507,-3.6507,-3.6507,-3.6507,-3.6507,-3.6507,-3.6507,-3.6507,-3.6507,-3.6507,-3.6507,-3.6507,-3.6507,-3.6507,-3.6383,-3.632,-3.632,-3.6226,-3.6068,-3.5816,-3.5816,-3.5718,-3.5519,-3.5519,-3.5519,-4.701,-4.6778,-4.6585,0.0,0.0,0.0,0.0,0.0,0.0,0.0,0.0,0.0,0.0,0.0,0.0,0.0,-4.8296,-4.8604,-4.8604,-4.8604,-4.8604,-4.8604,-4.8604,-4.8604,-4.8604,-4.8604,-4.8604,-4.8604,-4.7989,-4.7311,-4.6634,-4.5957,-4.528,-4.4641,-4.461,-4.461,-4.461,-4.461,-4.461,-4.461,-4.5104,-4.5877,-4.6828,-4.6828,-4.7472,-4.8608,-4.8129,-4.8064,-4.8354,-4.8798,-4.9018,-4.9018,-4.9018,-4.8105,-4.6786,-4.6786,-4.5872,-4.4615,-4.4615,-4.4615,-4.4615,-4.4615,-4.4615,-4.4615,-4.4615,-4.4615,-4.4615,-4.4615,-4.3739,-4.2639,-4.1967,-4.0325,-3.86,-3.7707,-3.7153,-3.6753,-3.6538,-3.6507,-3.6507,-3.6507,-3.6507,-3.6507,-3.6507,-3.6507,-3.6507,-3.6507,-3.6507,-3.6507,-3.6507,-3.6507,-3.6507,-3.6507,-3.6507,-3.6507,-3.6507,-3.6507,-3.6507,-3.6507,-3.6445,-3.6414,-3.6414,-3.6289,-3.6164,-3.6133,-3.6068,-3.591,-3.5688,-3.5688,-3.5621,-3.5519,-3.5519,-3.5519,-4.7041,-4.6828,-4.648,0.0,0.0,0.0,0.0,0.0,0.0,0.0,0.0,0.0,0.0,0.0,0.0,-4.8512,-4.8604,-4.8604,-4.8604,-4.8604,-4.8604,-4.8604,-4.8604,-4.8604,-4.8604,-4.8604,-4.8604,-4.8604,-4.7989,-4.7311,-4.6634,-4.5957,-4.528,-4.4641,-4.461,-4.461,-4.461,-4.461,-4.461,-4.461,-4.461,-4.54,-4.6793,-4.6828,-4.7204,-4.7901,-4.7901,-4.7473,-4.6898,-4.8386,-4.9018,-4.8984,-4.9018,-4.8105,-4.6819,-4.6786,-4.5872,-4.4615,-4.4615,-4.4615,-4.4615,-4.4615,-4.4615,-4.4615,-4.4615,-4.4615,-4.4615,-4.4615,-4.4059,-4.3317,-4.2676,-4.102,-3.9152,-3.7831,-3.7523,-3.7338,-3.6661,-3.6507,-3.6507,-3.6507,-3.6507,-3.6507,-3.6507,-3.6507,-3.6507,-3.6507,-3.6507,-3.6507,-3.6507,-3.6507,-3.6507,-3.6507,-3.6507,-3.6507,-3.6507,-3.6507,-3.6507,-3.6507,-3.632,-3.6196,-3.6196,-3.6196,-3.6133,-3.6005,-3.6005,-3.591,-3.5688,-3.5688,-3.5621,-3.5519,-3.5519,-3.5519,-4.8416,-4.7605,0.0,0.0,0.0,0.0,0.0,0.0,0.0,0.0,0.0,-4.7527,-4.8173,-4.8296,0.0,-4.8573,-4.8604,-4.8604,-4.8604,-4.8604,-4.8604,-4.8604,-4.8604,-4.8604,-4.8604,-4.8604,-4.8604,-4.8604,-4.8419,-4.7804,-4.6665,-4.6419,-4.5772,-4.4641,-4.461,-4.461,-4.461,-4.461,-4.461,-4.461,-4.461,-4.5104,-4.6056,-4.6553,-4.6931,-4.7171,-4.8193,-4.829,-4.7638,-4.8608,-4.8671,-4.8257,-4.8798,-4.8409,-4.753,-4.6989,-4.6177,-4.5297,-4.4784,-4.4615,-4.4615,-4.4615,-4.4615,-4.4615,-4.4615,-4.4615,-4.4468,-4.3972,-4.335,-4.2645,-4.1981,-4.1002,-3.9982,-3.9123,-3.8569,-3.8169,-3.7954,-3.7923,-3.7923,-3.7923,-3.7923,-3.7923,-3.7923,-3.7923,-3.7738,-3.7277,-3.7184,-3.703,-3.6569,-3.6507,-3.6507,-3.6507,-3.6507,-3.6445,-3.632,-3.6289,-3.6258,-3.6163,-3.61,-3.61,-3.6196,-3.5975,-3.5816,-3.5784,-3.5716,-3.5619,-3.5554,-3.5554,-3.5554,-3.5519,-3.5519,-3.5759,-4.874,0.0,0.0,0.0,0.0,0.0,0.0,0.0,0.0,0.0,0.0,-4.8142,-4.8543,-4.8604,-4.8604,-4.8604,-4.8604,-4.8604,-4.8604,-4.8604,-4.8604,-4.8604,-4.8604,-4.8604,-4.8604,-4.8604,-4.8604,-4.8604,-4.8604,-4.8142,-4.7065,-4.6726,-4.6111,-4.5041,-4.4764,-4.461,-4.461,-4.461,-4.461,-4.461,-4.461,-4.4836,-4.5326,-4.634,-4.6655,-4.6445,-4.7605,-4.8032,-4.7967,-4.8704,-4.8736,-4.8386,-4.8829,-4.8545,-4.7804,-4.7056,-4.6346,-4.5602,-4.4886,-4.4615,-4.4615,-4.4615,-4.4615,-4.4615,-4.4615,-4.4615,-4.4497,-4.4059,-4.3439,-4.2738,-4.2078,-4.1393,-4.0665,-3.9711,-3.9216,-3.8846,-3.8569,-3.8508,-3.8508,-3.8508,-3.8508,-3.8508,-3.8508,-3.8508,-3.8385,-3.7954,-3.7677,-3.7338,-3.6938,-3.6661,-3.6507,-3.6507,-3.6507,-3.6414,-3.6196,-3.6196,-3.6133,-3.6005,-3.5941,-3.5911,-3.6006,-3.5816,-3.5655,-3.5621,-3.5554,-3.5519,-3.5519,-3.5519,-3.5519,-3.5519,-3.5519,-3.5848,-4.846,0.0,0.0,0.0,0.0,0.0,0.0,0.0,0.0,0.0,0.0,-4.8604,-4.8604,-4.8604,-4.8604,-4.8604,-4.8604,-4.8604,-4.8604,-4.8604,-4.8604,-4.8604,-4.8604,-4.8604,-4.8604,-4.8604,-4.8604,-4.8604,-4.8604,-4.8327,-4.765,-4.6973,-4.6296,-4.5618,-4.4941,-4.461,-4.461,-4.461,-4.461,-4.461,-4.461,-4.461,-4.4648,-4.6056,-4.6375,-4.5841,-4.6553,-4.7238,-4.7869,-4.8576,-4.8892,-4.8892,-4.8892,-4.8517,-4.7872,-4.709,-4.638,-4.5703,-4.4857,-4.4615,-4.4615,-4.4615,-4.4615,-4.4615,-4.4615,-4.4615,-4.4587,-4.444,-4.3972,-4.3317,-4.252,-4.1917,-4.117,-3.9908,-3.9582,-3.9398,-3.8816,-3.8692,-3.8692,-3.8692,-3.8692,-3.8692,-3.8692,-3.8692,-3.8662,-3.86,-3.8015,-3.7584,-3.7584,-3.7061,-3.6661,-3.6661,-3.6661,-3.6598,-3.6379,-3.6379,-3.6346,-3.6155,-3.5905,-3.5778,-3.5778,-3.5718,-3.5621,-3.5519,-3.5519,-3.5519,-3.5519,-3.5519,-3.5519,-3.5519,-3.5519,-3.5878,0.0,-4.8233,0.0,0.0,0.0,0.0,0.0,0.0,0.0,-4.8573,-4.8604,-4.8604,-4.8604,-4.8604,-4.8604,-4.8604,-4.8604,-4.8604,-4.8604,-4.8604,-4.8604,-4.8604,-4.8604,-4.8604,-4.8604,-4.8604,-4.8604,-4.8604,-4.8604,-4.8327,-4.765,-4.6973,-4.6296,-4.5618,-4.4941,-4.461,-4.461,-4.461,-4.461,-4.461,-4.461,-4.461,-4.461,-4.5515,-4.6163,-4.6588,-4.7339,-4.7406,-4.7069,-4.7836,-4.8129,-4.8129,-4.8129,-4.8381,-4.8612,-4.7293,-4.6684,-4.638,-4.5055,-4.4615,-4.4615,-4.4615,-4.4615,-4.4615,-4.4615,-4.4615,-4.4384,-4.3259,-4.3196,-4.3106,-4.136,-4.1194,-4.1295,-4.0461,-4.029,-4.0228,-4.0105,-4.0074,-4.0074,-4.0074,-4.0074,-4.0074,-4.0074,-4.0074,-3.989,-3.9336,-3.8723,-3.8292,-3.8292,-3.8169,-3.8077,-3.8077,-3.8077,-3.7947,-3.7618,-3.775,-3.7651,-3.7121,-3.6709,-3.6438,-3.6334,-3.5824,-3.5522,-3.5519,-3.5519,-3.5519,-3.5519,-3.5519,-3.5519,-3.5519,-3.5519,-3.6118,0.0,0.0,0.0,0.0,0.0,0.0,0.0,0.0,0.0,-4.8604,-4.8604,-4.8604,-4.8604,-4.8604,-4.8604,-4.8604,-4.8604,-4.8604,-4.8604,-4.8604,-4.8604,-4.8604,-4.8604,-4.8604,-4.8604,-4.8604,-4.8604,-4.8604,-4.8604,-4.845,-4.8112,-4.7434,-4.6757,-4.608,-4.5403,-4.491,-4.461,-4.461,-4.461,-4.461,-4.461,-4.461,-4.461,-4.5332,-4.6127,-4.6828,-4.7204,-4.7339,-4.7339,-4.7737,-4.8096,-4.845,-4.845,-4.8639,-4.8815,-4.7327,-4.6786,-4.6583,-4.5122,-4.4615,-4.4615,-4.4615,-4.4615,-4.4615,-4.4615,-4.4615,-4.4384,-4.3257,-4.3015,-4.2707,-4.1327,-4.099,-4.0922,-4.0578,-4.0505,-4.0505,-4.0505,-4.0505,-4.0505,-4.0505,-4.0505,-4.0505,-4.0505,-4.0505,-4.0382,-4.0013,-3.9398,-3.9,-3.9,-3.8723,-3.8508,-3.8508,-3.8508,-3.8376,-3.8175,-3.8241,-3.8077,-3.7605,-3.7308,-3.7098,-3.6926,-3.6596,-3.6118,-3.5519,-3.5519,-3.5519,-3.5519,-3.5519,-3.5519,-3.5519,-3.5818,-3.6477,0.0,0.0,0.0,0.0,0.0,0.0,0.0,0.0,0.0,-4.8604,-4.8604,-4.8604,-4.8604,-4.8604,-4.8604,-4.8604,-4.8604,-4.8604,-4.8604,-4.8604,-4.8604,-4.8604,-4.8604,-4.8604,-4.8604,-4.8604,-4.8604,-4.8604,-4.8604,-4.8604,-4.8604,-4.7958,-4.7281,-4.6603,-4.5926,-4.5249,-4.4641,-4.461,-4.461,-4.461,-4.461,-4.461,-4.461,-4.5332,-4.602,-4.662,-4.6726,-4.7137,-4.7704,-4.7704,-4.8129,-4.8798,-4.8673,-4.8767,-4.8818,-4.7342,-4.6798,-4.6616,-4.5263,-4.4716,-4.4615,-4.4615,-4.4615,-4.4615,-4.4615,-4.4615,-4.4412,-4.3558,-4.3015,-4.2458,-4.1558,-4.099,-4.0646,-4.0539,-4.0505,-4.0505,-4.0505,-4.0505,-4.0505,-4.0505,-4.0505,-4.0505,-4.0505,-4.0505,-4.0505,-4.0505,-4.0013,-3.9644,-3.9644,-3.9216,-3.8877,-3.8877,-3.8877,-3.8811,-3.8644,-3.8678,-3.851,-3.8137,-3.7982,-3.7824,-3.7687,-3.7499,-3.6926,-3.5881,-3.5729,-3.5669,-3.5669,-3.5669,-3.5669,-3.5699,-3.6357,-3.6985,0.0,0.0,0.0,0.0,0.0,0.0,0.0,0.0,-4.8604,0.0,-4.8604,-4.8604,-4.8604,-4.8604,-4.8604,-4.8604,-4.8604,-4.8604,-4.8604,-4.8604,-4.8604,-4.8604,-4.8604,-4.8604,-4.8604,-4.8604,-4.8604,-4.8604,-4.8604,-4.8604,-4.8604,-4.7958,-4.7281,-4.6603,-4.5926,-4.5249,-4.4641,-4.461,-4.461,-4.461,-4.461,-4.461,-4.461,-4.5332,-4.5769,-4.5877,-4.6518,-4.6862,-4.6965,-4.6965,-4.7372,-4.7999,-4.7339,-4.7869,-4.8821,-4.7356,-4.6809,-4.6684,-4.5838,-4.5128,-4.4615,-4.4615,-4.4615,-4.4615,-4.4615,-4.4615,-4.4327,-4.2984,-4.2984,-4.2953,-4.1125,-4.099,-4.1225,-4.0646,-4.0505,-4.0505,-4.0505,-4.0505,-4.0505,-4.0505,-4.0505,-4.0505,-4.0505,-4.0505,-4.0505,-4.0505,-4.0413,-4.0351,-4.0351,-4.029,-4.0228,-4.0228,-4.0228,-4.0159,-4.0021,-4.0125,-4.0056,-3.9702,-3.9126,-3.8827,-3.8793,-3.7876,-3.7413,-3.7432,-3.6727,-3.6357,-3.6357,-3.6357,-3.6357,-3.6357,-3.6985,-3.7644,0.0,0.0,0.0,0.0,0.0,0.0,0.0,0.0,-4.8715,-4.8715,-4.8035,-4.7711,-4.8481,-4.8604,-4.8604,-4.8604,-4.8604,-4.8604,-4.8604,-4.8604,-4.8604,-4.8604,-4.8604,-4.8604,-4.8604,-4.8604,-4.8604,-4.8604,-4.8604,-4.8604,-4.8604,-4.8327,-4.7865,-4.7188,-4.6511,-4.5834,-4.5195,-4.4795,-4.461,-4.461,-4.461,-4.461,-4.461,-4.4918,-4.5515,-4.634,-4.6234,-4.6657,-4.7372,-4.6999,-4.7204,-4.7934,-4.7999,-4.8194,-4.8318,-4.7678,-4.691,-4.614,-4.5794,-4.5196,-4.4615,-4.4615,-4.4615,-4.4615,-4.4615,-4.4615,-4.4384,-4.338,-4.3015,-4.2645,-4.1393,-4.099,-4.0885,-4.0578,-4.0505,-4.0505,-4.0505,-4.0505,-4.0505,-4.0505,-4.0505,-4.0505,-4.0505,-4.0505,-4.0505,-4.0505,-4.0505,-4.0505,-4.0505,-4.0505,-4.0505,-4.0505,-4.0505,-4.047,-4.0296,-4.0331,-4.0226,-3.9839,-3.9672,-3.9485,-3.9209,-3.8903,-3.8682,-3.8647,-3.7558,-3.7015,-3.7015,-3.7015,-3.7015,-3.7015,-3.7674,-3.8123,0.0,0.0,0.0,0.0,0.0,0.0,0.0,0.0,-4.9031,0.0,-4.7754,-4.7181,-4.8183,-4.8358,-4.8419,-4.8573,-4.8604,-4.8604,-4.8604,-4.8604,-4.8604,-4.8604,-4.8604,-4.8604,-4.8604,-4.8604,-4.8604,-4.8604,-4.8604,-4.8604,-4.8604,-4.8604,-4.8296,-4.7619,-4.7127,-4.6449,-4.5588,-4.4949,-4.461,-4.461,-4.461,-4.461,-4.461,-4.461,-4.5326,-4.6515,-4.5949,-4.6413,-4.7572,-4.7033,-4.7204,-4.7934,-4.8322,-4.8354,-4.8126,-4.7753,-4.7053,-4.6193,-4.5824,-4.5322,-4.4852,-4.4682,-4.4615,-4.4615,-4.4615,-4.4615,-4.444,-4.3706,-4.3136,-4.2552,-4.1722,-4.1125,-4.0715,-4.0509,-4.0505,-4.0505,-4.0505,-4.0505,-4.0505,-4.0505,-4.0505,-4.0505,-4.0505,-4.0505,-4.0505,-4.0505,-4.0505,-4.0505,-4.0505,-4.0505,-4.0505,-4.0505,-4.0505,-4.047,-4.0296,-4.0296,-4.0156,-3.9803,-3.9874,-3.9803,-3.9553,-3.9589,-3.9589,-3.9481,-3.8422,-3.7823,-3.7644,-3.7644,-3.7644,-3.7674,-3.8332,-3.8661,0.0,0.0,0.0,0.0,0.0,0.0,0.0,0.0,-4.9636,-4.8955,-4.8187,-4.7659,-4.7648,-4.765,-4.7865,-4.8512,-4.8604,-4.8604,-4.8604,-4.8604,-4.8604,-4.8604,-4.8604,-4.8604,-4.8604,-4.8604,-4.8604,-4.8604,-4.8604,-4.8604,-4.8604,-4.8604,-4.8296,-4.7619,-4.7558,-4.6911,-4.5588,-4.4949,-4.461,-4.461,-4.461,-4.461,-4.461,-4.461,-4.503,-4.5769,-4.5697,-4.6163,-4.6862,-4.6828,-4.7204,-4.7803,-4.7171,-4.7737,-4.8767,-4.7373,-4.7242,-4.7582,-4.6196,-4.5644,-4.5534,-4.4852,-4.4615,-4.4615,-4.4615,-4.4615,-4.444,-4.3706,-4.3466,-4.3136,-4.182,-4.1459,-4.126,-4.0646,-4.0505,-4.0505,-4.0505,-4.0505,-4.0505,-4.0505,-4.0505,-4.0505,-4.0505,-4.0505,-4.0505,-4.0505,-4.0505,-4.0505,-4.0505,-4.0505,-4.0505,-4.0505,-4.0505,-4.047,-4.0296,-4.0296,-4.0191,-4.0011,-3.9803,-3.9803,-3.9975,-3.9589,-3.9481,-3.9696,-3.9421,-3.899,-3.8332,-3.8332,-3.8332,-3.8362,-3.905,-3.9379,0.0,0.0,0.0,0.0,0.0,0.0,0.0,-5.0879,-4.9967,-4.9684,-4.7919,-4.6534,-4.6955,-4.7362,-4.7835,-4.8512,-4.8604,-4.8604,-4.8604,-4.8604,-4.8604,-4.8604,-4.8604,-4.8604,-4.8604,-4.8604,-4.8604,-4.8604,-4.8604,-4.8604,-4.8604,-4.8604,-4.8512,-4.8266,-4.7835,-4.6942,-4.5588,-4.4949,-4.461,-4.461,-4.461,-4.461,-4.461,-4.461,-4.4761,-4.503,-4.5985,-4.6585,-4.6828,-4.6828,-4.7204,-4.7868,-4.7605,-4.7836,-4.8225,-4.7704,-4.7078,-4.642,-4.5886,-4.5374,-4.4979,-4.471,-4.4615,-4.4615,-4.4615,-4.4615,-4.4525,-4.4265,-4.3885,-4.3376,-4.2923,-4.2141,-4.1327,-4.0646,-4.0505,-4.0505,-4.0505,-4.0505,-4.0505,-4.0505,-4.0505,-4.0505,-4.0505,-4.0505,-4.0505,-4.0505,-4.0505,-4.0505,-4.0505,-4.0505,-4.0505,-4.0505,-4.0505,-4.047,-4.0296,-4.0187,-4.0016,-3.9803,-3.9732,-3.9661,-3.9619,-3.9589,-3.9553,-3.9517,-3.9445,-3.929,-3.905,-3.905,-3.905,-3.905,-3.932,-3.9373,0.0,0.0,0.0,0.0,0.0,0.0,-5.2131,0.0,-5.0693,-5.019,-4.8346,-4.6785,-4.6719,-4.7192,-4.7787,-4.8214,-4.845,-4.8604,-4.8604,-4.8604,-4.8604,-4.8604,-4.8604,-4.8604,-4.8604,-4.8604,-4.8604,-4.8604,-4.8604,-4.8604,-4.8604,-4.8604,-4.8604,-4.8604,-4.7742,-4.685,-4.5926,-4.5033,-4.461,-4.461,-4.461,-4.461,-4.461,-4.461,-4.461,-4.4685,-4.5913,-4.6585,-4.6828,-4.7101,-4.7439,-4.7901,-4.7901,-4.7901,-4.7869,-4.7605,-4.7077,-4.6321,-4.5571,-4.5306,-4.5249,-4.4767,-4.4754,-4.4925,-4.4682,-4.4615,-4.4615,-4.4615,-4.4236,-4.3794,-4.3555,-4.252,-4.1393,-4.0922,-4.0646,-4.0505,-4.0505,-4.0505,-4.0505,-4.0505,-4.0505,-4.0505,-4.0505,-4.0505,-4.0505,-4.0505,-4.0505,-4.0505,-4.0505,-4.0505,-4.0505,-4.0505,-4.0505,-4.047,-4.0296,-4.0187,-3.998,-3.9732,-3.9696,-3.9625,-3.9409,-3.9517,-3.9553,-3.9373,-3.9373,-3.9373,-3.9373,-3.9373,-3.9373,-3.9373,-3.9373,-3.9373,0.0,0.0,0.0,0.0,0.0,0.0,-5.2097,-5.2266,-5.1865,-5.0458,-4.9558,-4.8555,-4.7071,-4.734,-4.7729,-4.7657,-4.8173,-4.8604,-4.8604,-4.8604,-4.8604,-4.8604,-4.8604,-4.8604,-4.8604,-4.8604,-4.8604,-4.8604,-4.8604,-4.8604,-4.8604,-4.8604,-4.8604,-4.8604,-4.7311,-4.6603,-4.6603,-4.528,-4.4641,-4.461,-4.461,-4.461,-4.461,-4.461,-4.461,-4.4648,-4.54,-4.6127,-4.6795,-4.7539,-4.7901,-4.7901,-4.7901,-4.7901,-4.7803,-4.7069,-4.7238,-4.754,-4.54,-4.5556,-4.6481,-4.509,-4.5113,-4.5573,-4.4823,-4.4649,-4.4649,-4.4615,-4.4587,-4.4412,-4.3676,-4.252,-4.1558,-4.1525,-4.099,-4.0509,-4.0474,-4.0505,-4.0505,-4.0505,-4.0505,-4.0505,-4.0505,-4.0505,-4.0505,-4.0505,-4.0505,-4.0505,-4.0505,-4.0505,-4.0505,-4.0505,-4.0505,-4.047,-4.0296,-4.0296,-4.0121,-3.9768,-3.9732,-3.9625,-3.9409,-3.9409,-3.9409,-3.9373,-3.9373,-3.9373,-3.9373,-3.9373,-3.9373,-3.9373,-3.9373,-3.9373,-4.9154,0.0,0.0,0.0,0.0,0.0,-5.1352,-5.1522,-5.1524,-5.1663,-5.0693,-4.9654,-4.9243,-4.879,-4.8495,-4.8451,-4.855,-4.8604,-4.8604,-4.8604,-4.8604,-4.8604,-4.8604,-4.8604,-4.8604,-4.8604,-4.8604,-4.8604,-4.8604,-4.8604,-4.8604,-4.8604,-4.8604,-4.8604,-4.7773,-4.7096,-4.6603,-4.5741,-4.5103,-4.461,-4.461,-4.461,-4.461,-4.461,-4.461,-4.4648,-4.54,-4.5805,-4.6056,-4.6795,-4.7406,-4.7869,-4.7305,-4.7406,-4.7803,-4.7069,-4.6931,-4.6937,-4.5782,-4.5317,-4.5257,-4.5337,-4.5509,-4.5654,-4.5457,-4.5399,-4.5263,-4.475,-4.4207,-4.3647,-4.2953,-4.2862,-4.2707,-4.1723,-4.136,-4.1091,-4.0612,-4.0505,-4.0505,-4.0505,-4.0505,-4.0505,-4.0505,-4.0505,-4.0505,-4.0505,-4.0505,-4.0505,-4.0505,-4.0505,-4.0505,-4.0505,-4.0505,-4.0505,-4.047,-4.0366,-4.0226,-4.0121,-3.998,-3.9803,-3.9625,-3.9625,-3.9553,-3.9373,-3.9373,-3.9373,-3.9373,-3.9373,-3.9373,-3.9373,-3.9373,-3.9373,0.0,0.0,0.0,0.0,0.0,0.0,-5.0642,-5.1217,-5.1691,-5.1826,-5.1429,-5.0827,-5.0223,-4.9916,-4.9673,-4.9373,-4.9237,-4.9015,-4.8646,-4.8604,-4.8604,-4.8604,-4.8604,-4.8604,-4.8604,-4.8604,-4.8604,-4.8604,-4.8604,-4.8604,-4.8604,-4.8604,-4.8604,-4.8604,-4.7958,-4.7404,-4.7034,-4.6049,-4.5372,-4.5003,-4.4726,-4.461,-4.461,-4.461,-4.461,-4.461,-4.5067,-4.5405,-4.5733,-4.6163,-4.6761,-4.7406,-4.7305,-4.7305,-4.7372,-4.6965,-4.6828,-4.6694,-4.5963,-4.5626,-4.5533,-4.5636,-4.5925,-4.614,-4.614,-4.6143,-4.6075,-4.5635,-4.4997,-4.4393,-4.4301,-4.3918,-4.3411,-4.2975,-4.2396,-4.1866,-4.1457,-4.1395,-4.1181,-4.0597,-4.0505,-4.0505,-4.0505,-4.0505,-4.0505,-4.0505,-4.0505,-4.0505,-4.0436,-4.047,-4.0505,-4.0436,-4.047,-4.0505,-4.0436,-4.0331,-4.0226,-4.0051,-3.9945,-3.9768,-3.9589,-3.9589,-3.9517,-3.9373,-3.9373,-3.9373,-3.9373,-3.9373,-3.9373,-3.9373,-3.9373,-3.9373,0.0,0.0,0.0,0.0,-4.9627,0.0,-5.0101,-5.1116,-5.1894,-5.1319,-5.1792,-5.1932,-5.0592,-5.0852,-5.1001,-5.0359,-5.0121,-4.9749,-4.8852,-4.8646,-4.8604,-4.8604,-4.8604,-4.8604,-4.8604,-4.8604,-4.8604,-4.8604,-4.8604,-4.8604,-4.8604,-4.8604,-4.8604,-4.8604,-4.8019,-4.7681,-4.7619,-4.6326,-4.5649,-4.5588,-4.491,-4.461,-4.461,-4.461,-4.461,-4.461,-4.461,-4.4955,-4.5588,-4.566,-4.6127,-4.6896,-4.7506,-4.7372,-4.6828,-4.6828,-4.6828,-4.6692,-4.5949,-4.6127,-4.656,-4.5914,-4.6191,-4.6808,-4.6791,-4.6862,-4.6887,-4.6731,-4.624,-4.5965,-4.6514,-4.5251,-4.3975,-4.4572,-4.3654,-4.2692,-4.2622,-4.2603,-4.2232,-4.0966,-4.072,-4.072,-4.072,-4.072,-4.0689,-4.0628,-4.0597,-4.0562,-4.0327,-4.0401,-4.0436,-4.0261,-4.0366,-4.0401,-4.0261,-4.0261,-4.0121,-3.9768,-3.9732,-3.9661,-3.9445,-3.9409,-3.9409,-3.9373,-3.9373,-3.9373,-3.9373,-3.9373,-3.9373,-3.9373,-3.9499,-3.9493,0.0,0.0,0.0,0.0,-4.9965,0.0,-5.0101,-5.0304,-5.0642,-5.1116,-5.1792,-5.2233,-5.1932,-5.1996,-5.2004,-5.1897,-5.1303,-5.0576,-4.9749,-4.9056,-4.8604,-4.8604,-4.8604,-4.8604,-4.8604,-4.8604,-4.8604,-4.8604,-4.8604,-4.8604,-4.8604,-4.8604,-4.8604,-4.8604,-4.8481,-4.8173,-4.7619,-4.6819,-4.6111,-4.5588,-4.491,-4.461,-4.461,-4.461,-4.461,-4.461,-4.461,-4.4685,-4.4874,-4.5473,-4.6127,-4.6828,-4.6965,-4.6931,-4.6828,-4.6828,-4.6828,-4.6692,-4.5949,-4.5805,-4.5881,-4.5754,-4.6185,-4.681,-4.6809,-4.7206,-4.7443,-4.6319,-4.6274,-4.6484,-4.6088,-4.5616,-4.5203,-4.4788,-4.4032,-4.3277,-4.2709,-4.2618,-4.254,-4.2263,-4.2202,-4.2202,-4.2202,-4.2202,-4.2017,-4.1463,-4.1401,-4.1115,-4.0388,-4.0296,-4.0261,-4.0081,-4.0081,-4.0117,-4.0081,-4.0081,-4.0046,-3.9975,-3.994,-3.9839,-3.9661,-3.9661,-3.9553,-3.9373,-3.9373,-3.9373,-3.9373,-3.9373,-3.9373,-3.9403,-3.9948,-4.0217,0.0,0.0,0.0,-5.0845,0.0,0.0,0.0,-5.0371,-5.0642,-5.0642,-5.1251,-5.186,-5.2232,-5.2303,-5.2434,-5.2836,-5.2236,-5.1586,-5.1177,-5.0026,-4.9228,-4.9228,-4.8852,-4.8604,-4.8604,-4.8604,-4.8604,-4.8604,-4.8604,-4.8604,-4.8604,-4.8604,-4.8604,-4.8604,-4.8604,-4.845,-4.8112,-4.7096,-4.6419,-4.608,-4.5103,-4.461,-4.461,-4.461,-4.461,-4.461,-4.461,-4.461,-4.461,-4.4993,-4.5588,-4.6304,-4.6655,-4.6585,-4.6304,-4.6689,-4.6585,-4.6269,-4.6269,-4.6269,-4.6269,-4.6269,-4.6515,-4.69,-4.7243,-4.7883,-4.8314,-4.7603,-4.7376,-4.7345,-4.7376,-4.6828,-4.6183,-4.5831,-4.5175,-4.4461,-4.3751,-4.3598,-4.3587,-4.3587,-4.3587,-4.3371,-4.2725,-4.2602,-4.2509,-4.214,-4.2109,-4.1884,-4.1367,-4.1031,-4.071,-4.0532,-4.0193,-3.9975,-3.9839,-3.9839,-3.9803,-3.9727,-3.9727,-3.9661,-3.9553,-3.9553,-3.9667,-3.9888,-3.9918,-4.0068,-4.0397,-4.0397,-4.0217,-3.9918,-4.0576,-4.0876,0.0,0.0,0.0,0.0,0.0,-5.1217,0.0,0.0,0.0,-5.0439,-5.0811,-5.1386,0.0,-5.2097,-5.23,-5.2942,-5.2636,-5.232,-5.232,-5.1192,-5.0299,-5.0143,-4.9349,-4.8852,-4.8852,-4.8687,-4.8604,-4.8604,-4.8604,-4.8604,-4.8604,-4.8604,-4.8604,-4.8604,-4.8604,-4.8604,-4.8604,-4.7404,-4.6726,-4.6573,-4.5372,-4.4695,-4.461,-4.461,-4.461,-4.461,-4.461,-4.461,-4.461,-4.461,-4.4955,-4.5588,-4.648,-4.6445,-4.5985,-4.6585,-4.6445,-4.5949,-4.6269,-4.6585,-4.6793,-4.6622,-4.6689,-4.6931,-4.7506,-4.8193,-4.8798,-4.8798,-4.8482,-4.8225,-4.8861,-4.8015,-4.7008,-4.7008,-4.6355,-4.5544,-4.4946,-4.4693,-4.461,-4.461,-4.461,-4.4271,-4.3156,-4.3002,-4.294,-4.2817,-4.2786,-4.2652,-4.2346,-4.1826,-4.1412,-4.1231,-4.0673,-4.0268,-4.0094,-4.0022,-3.998,-3.9798,-3.9798,-3.9798,-3.9798,-3.9798,-4.0038,-4.0576,-4.0576,-4.0846,-4.1422,-4.1542,-4.1235,-4.0606,-4.1265,-4.1602,0.0,0.0,0.0,0.0,-5.2198,-5.1995,-5.1251,0.0,-5.1183,-5.1116,0.0,-5.1251,-5.1319,0.0,0.0,-5.1454,-5.193,-5.2302,-5.2302,-5.2157,-5.1769,-5.1032,-5.026,-4.9749,-4.9749,-4.9056,-4.8604,-4.8604,-4.8604,-4.8604,-4.8604,-4.8604,-4.8604,-4.8604,-4.8604,-4.8604,-4.8604,-4.7865,-4.7188,-4.6573,-4.5834,-4.5157,-4.461,-4.461,-4.461,-4.461,-4.461,-4.461,-4.461,-4.461,-4.4648,-4.4874,-4.6269,-4.6759,-4.6689,-4.6793,-4.6759,-4.6515,-4.529,-4.5697,-4.6689,-4.6056,-4.6269,-4.6828,-4.6896,-4.7439,-4.8032,-4.8032,-4.845,-4.8892,-4.8987,-4.8383,-4.7769,-4.7769,-4.67,-4.5678,-4.557,-4.5042,-4.461,-4.461,-4.461,-4.4579,-4.4425,-4.4356,-4.4178,-4.3593,-4.3501,-4.3211,-4.2377,-4.2255,-4.2084,-4.193,-4.1654,-4.1519,-4.1482,-4.1295,-4.1212,-4.1145,-4.1145,-4.1145,-4.1145,-4.1145,-4.1205,-4.1265,-4.1265,-4.1294,-4.1422,-4.2021,-4.1961,-4.1294,-4.1991,-4.2291,0.0,0.0,0.0,0.0,-5.301,-5.2807,-5.2029,-5.186,-5.1725,-5.1286,0.0,0.0,0.0,0.0,0.0,0.0,-5.1826,-5.23,-5.23,-5.2707,-5.2729,-5.1878,-5.0653,-4.971,-4.9219,-4.8811,-4.8604,-4.8604,-4.8604,-4.8604,-4.8604,-4.8604,-4.8604,-4.8604,-4.8604,-4.8604,-4.8604,-4.7958,-4.725,-4.6573,-4.5926,-4.5249,-4.461,-4.461,-4.461,-4.461,-4.461,-4.461,-4.461,-4.461,-4.461,-4.4685,-4.5769,-4.6163,-4.6234,-4.6655,-4.655,-4.6127,-4.5949,-4.6304,-4.6828,-4.6932,-4.6898,-4.6828,-4.6828,-4.7033,-4.7339,-4.7803,-4.8129,-4.845,-4.8892,-4.8767,-4.845,-4.7999,-4.7439,-4.6864,-4.6413,-4.5769,-4.5253,-4.5253,-4.488,-4.461,-4.461,-4.461,-4.4517,-4.424,-4.4178,-4.4048,-4.3697,-4.3216,-4.286,-4.2748,-4.2122,-4.1693,-4.1693,-4.1535,-4.1422,-4.1422,-4.1422,-4.1422,-4.1422,-4.1422,-4.1602,-4.1991,-4.1991,-4.2132,-4.2521,-4.2791,-4.2791,-4.2521,-4.2791,-4.291,-5.3518,-5.3518,-5.3518,-5.3518,-5.3518,-5.3348,-5.2773,-5.2638,-5.2469,-5.1961,-5.1217,0.0,0.0,0.0,0.0,0.0,0.0,-5.23,-5.23,-5.2976,-5.328,-5.2694,-5.1215,-4.9908,-4.9056,-4.8728,-4.8604,-4.8604,-4.8604,-4.8604,-4.8604,-4.8604,-4.8604,-4.8604,-4.8604,-4.8604,-4.8604,-4.8112,-4.7558,-4.688,-4.6172,-4.5495,-4.4887,-4.4664,-4.461,-4.461,-4.461,-4.461,-4.461,-4.461,-4.461,-4.4648,-4.5179,-4.5515,-4.5805,-4.655,-4.648,-4.6092,-4.6588,-4.6931,-4.7137,-4.7473,-4.7372,-4.7033,-4.6622,-4.6655,-4.6896,-4.7204,-4.7439,-4.777,-4.8513,-4.8704,-4.8608,-4.8257,-4.8064,-4.7737,-4.7204,-4.6518,-4.602,-4.602,-4.5437,-4.488,-4.488,-4.4723,-4.461,-4.461,-4.461,-4.4572,-4.4534,-4.3983,-4.3563,-4.3487,-4.2804,-4.2342,-4.2342,-4.2152,-4.2,-4.1923,-4.1923,-4.1923,-4.1923,-4.1923,-4.2132,-4.2611,-4.2641,-4.2851,-4.329,-4.329,-4.329,-4.329,-4.329,-4.329,-5.3518,-5.3518,-5.3518,-5.3518,-5.3518,-5.3484,-5.3484,-5.345,-5.345,-5.345,-5.2807,-5.2232,-5.2266,0.0,0.0,0.0,0.0,0.0,0.0,-5.2976,-5.3518,-5.345,-5.2059,-5.0729,-4.9947,-4.9097,-4.8604,-4.8604,-4.8604,-4.8604,-4.8604,-4.8604,-4.8604,-4.8604,-4.8604,-4.8604,-4.8604,-4.8604,-4.8235,-4.7558,-4.688,-4.6203,-4.5526,-4.4918,-4.461,-4.461,-4.461,-4.461,-4.461,-4.461,-4.461,-4.461,-4.461,-4.5067,-4.5805,-4.655,-4.6793,-4.6793,-4.6793,-4.7272,-4.7737,-4.7035,-4.7305,-4.7605,-4.6166,-4.6202,-4.6655,-4.5985,-4.6304,-4.7033,-4.7737,-4.7934,-4.8096,-4.8798,-4.8418,-4.7868,-4.7869,-4.7272,-4.6761,-4.6761,-4.6163,-4.566,-4.566,-4.5067,-4.461,-4.461,-4.461,-4.4534,-4.4305,-4.4305,-4.4159,-4.3996,-4.3927,-4.3927,-4.3927,-4.3732,-4.3536,-4.3269,-4.323,-4.323,-4.323,-4.323,-4.323,-4.326,-4.326,-4.326,-4.329,-4.329,-4.329,-4.329,-4.329,-4.329,-5.3348,-5.3518,-5.3518,-5.3518,-5.3518,-5.3518,-5.3518,-5.3518,-5.3518,-5.3518,-5.2875,-5.23,-5.23,0.0,0.0,0.0,0.0,0.0,0.0,-5.2976,-5.3518,-5.3518,-5.2555,-5.1364,-5.0026,-4.963,-4.9219,-4.8646,-4.8604,-4.8604,-4.8604,-4.8604,-4.8604,-4.8604,-4.8604,-4.8604,-4.8604,-4.8604,-4.8266,-4.7588,-4.6911,-4.6234,-4.5557,-4.4918,-4.461,-4.461,-4.461,-4.461,-4.461,-4.461,-4.461,-4.461,-4.461,-4.4761,-4.5067,-4.5805,-4.641,-4.6828,-4.6828,-4.6932,-4.7204,-4.7439,-4.7372,-4.7171,-4.7171,-4.6657,-4.6127,-4.6375,-4.6269,-4.6269,-4.6967,-4.7171,-4.7204,-4.7505,-4.7339,-4.7305,-4.777,-4.7305,-4.6932,-4.7406,-4.6932,-4.6445,-4.6445,-4.5805,-4.5179,-4.4685,-4.461,-4.4572,-4.4496,-4.4381,-4.4266,-4.422,-4.3949,-4.3793,-4.3793,-4.3596,-4.3369,-4.329,-4.329,-4.329,-4.329,-4.329,-4.329,-4.329,-4.329,-4.329,-4.329,-4.329,-4.329,-4.329,-4.329,-4.329,-5.2868,-5.3041,-5.3144,-5.3416,-5.3518,-5.3518,-5.3518,-5.3518,-5.3518,-5.3518,-5.3078,-5.2739,-5.2739,-5.2334,0.0,0.0,0.0,0.0,0.0,-5.3179,-5.3518,-5.3518,-5.2799,-5.1769,-5.0493,-5.0065,-4.951,-4.8646,-4.8604,-4.8604,-4.8604,-4.8604,-4.8604,-4.8604,-4.8604,-4.8604,-4.8604,-4.8604,-4.8389,-4.7958,-4.7034,-4.6357,-4.5926,-4.5003,-4.461,-4.461,-4.461,-4.461,-4.461,-4.461,-4.461,-4.461,-4.461,-4.461,-4.4685,-4.5437,-4.6308,-4.7137,-4.6896,-4.6967,-4.7204,-4.7439,-4.7171,-4.683,-4.7035,-4.6622,-4.6028,-4.5738,-4.5687,-4.5742,-4.5984,-4.6252,-4.6448,-4.6759,-4.6828,-4.6931,-4.7406,-4.7137,-4.6932,-4.7406,-4.6898,-4.641,-4.641,-4.5805,-4.5253,-4.503,-4.4761,-4.4572,-4.4496,-4.4381,-4.4297,-4.422,-4.4026,-4.3871,-4.3793,-4.3675,-4.3488,-4.329,-4.329,-4.329,-4.329,-4.329,-4.329,-4.329,-4.329,-4.329,-4.329,-4.329,-4.329,-4.329,-4.329,-4.329]},{"header":{"parameterUnit":"m.s-1","parameterCategory":1,"la1":30.6,"la2":29.2853,"lo1":-89.7004,"lo2":-87.6739,"dy":0.0162,"dx":0.0183,"nx":112,"ny":82,"refTime":"2024-04-12T06:00:00:Z","depth":0,"parameterNumber":3,"parameterNumberName":"V-component_of_WINDS"},"data":[0.0,0.0,0.0,0.0,0.0,0.0,0.0,0.0,0.0,0.0,0.0,0.0,0.0,0.0,0.0,0.0,0.0,0.0,0.0,0.0,0.0,0.0,0.0,0.0,0.0,0.0,0.0,0.0,0.0,0.0,0.0,0.0,0.0,0.0,0.0,0.0,0.0,0.0,0.0,0.0,0.0,0.0,0.0,0.0,0.0,0.0,0.0,0.0,0.0,0.0,0.0,0.0,0.0,0.0,0.0,0.0,0.0,0.0,0.0,0.0,0.0,0.0,0.0,0.0,0.0,0.0,0.0,0.0,0.0,0.0,0.0,0.0,0.0,0.0,0.0,0.0,0.0,0.0,0.0,0.0,0.0,0.0,0.0,0.0,0.0,0.0,0.0,0.0,0.0,0.0,0.9735,0.9333,0.9434,0.9575,0.9575,0.9335,0.8634,0.7273,0.0,0.0,0.0,0.0,0.0,0.0,0.0,0.0,0.0,0.0,0.0,0.0,0.0,0.0,0.0,0.0,0.0,0.0,0.0,0.0,0.0,0.0,0.0,0.0,0.0,0.0,0.0,0.0,0.0,0.0,0.0,0.0,0.0,0.0,0.0,0.0,0.0,0.0,0.0,0.0,0.0,0.0,0.0,0.0,0.0,0.0,0.0,0.0,0.0,0.0,0.0,0.0,0.0,0.0,0.0,0.0,0.0,0.0,0.0,0.0,0.0,0.0,0.0,0.0,0.0,0.0,0.0,0.0,0.0,0.0,0.0,0.0,0.0,0.0,0.0,0.0,0.0,0.0,0.0,0.0,0.0,0.0,0.0,0.0,0.0,0.0,0.0,0.0,0.0,0.0,0.0,0.0,0.0,0.0,0.0,0.0,0.0,0.0,0.0,0.0,0.0,0.0,0.0,0.0,0.9579,0.9549,0.9385,0.9335,0.9575,0.9335,0.8634,0.7273,0.0,0.0,0.0,0.0,0.0,0.0,0.0,0.0,0.0,0.0,0.0,0.0,0.0,0.0,0.0,0.0,0.0,0.0,0.0,0.0,0.0,0.0,0.0,0.0,0.0,0.0,0.0,0.0,0.0,0.0,0.0,0.0,0.0,0.0,0.0,0.0,0.0,0.0,0.0,0.0,0.0,0.0,0.0,0.0,0.0,0.0,0.0,0.0,0.0,0.0,0.0,0.0,0.0,0.0,0.0,0.0,0.0,0.0,0.0,0.0,0.0,0.0,0.0,0.0,0.0,0.0,0.0,0.0,0.0,0.0,0.0,0.0,0.0,0.0,0.0,0.0,0.0,0.0,0.0,0.0,0.0,0.0,0.0,0.0,0.0,0.0,0.0,0.0,0.0,0.0,0.0,0.0,0.0,0.0,0.0,0.0,0.0,0.0,0.0,0.0,0.0,0.0,0.0,0.9606,0.9564,0.9583,0.9385,0.9236,0.9385,0.9286,0.8832,0.7925,0.6874,0.0,0.0,0.0,0.0,0.0,0.0,0.0,0.0,0.0,0.0,0.0,0.0,0.0,0.0,0.0,0.0,0.0,0.0,0.0,0.0,0.0,0.0,0.0,0.0,0.0,0.0,0.0,0.0,0.0,0.0,0.0,0.0,0.0,0.0,0.0,0.0,0.0,0.0,0.0,0.0,0.0,0.0,0.0,0.0,0.0,0.0,0.0,0.0,0.0,0.0,0.0,0.0,0.0,0.0,0.0,0.0,0.0,0.0,0.0,0.0,0.0,0.0,0.0,0.0,0.0,0.0,0.0,0.0,0.0,0.0,0.0,0.0,0.0,0.0,0.0,0.0,0.0,0.0,0.0,0.0,0.0,0.0,0.0,0.0,0.0,0.0,0.0,0.0,0.0,0.0,0.0,0.0,0.0,0.0,0.0,0.0,0.0,0.0,0.0,0.0,0.0,0.0,0.9705,0.9575,0.9575,0.9385,0.9236,0.9286,0.9236,0.8981,0.8528,0.7925,0.0,0.0,0.0,0.0,0.0,0.0,0.0,0.0,0.0,0.0,0.0,0.0,0.0,0.0,0.0,0.0,0.0,0.0,0.0,0.0,0.0,0.0,0.0,0.0,0.0,0.0,0.0,0.0,0.0,0.0,0.0,0.0,0.0,0.0,0.0,0.0,0.0,0.0,0.0,0.0,0.0,0.0,0.0,0.0,0.0,0.0,0.0,0.0,0.0,0.0,0.0,0.0,0.0,0.0,0.0,0.0,0.0,0.0,0.0,0.0,0.0,0.0,0.0,0.0,0.0,0.0,0.0,0.0,0.0,0.0,0.0,0.0,0.0,0.0,0.0,0.0,0.0,0.0,0.0,0.0,0.0,0.0,0.0,0.0,0.0,0.0,0.0,0.0,0.0,0.0,0.0,0.0,0.0,0.0,0.0,0.0,0.0,0.0,0.0,0.0,0.0,0.0,0.9583,0.9575,0.9575,0.9385,0.9286,0.9525,0.9335,0.908,0.8775,0.8726,0.0,0.0,0.0,0.0,0.0,0.0,0.0,0.0,0.0,0.0,0.0,0.0,0.0,0.0,0.0,0.0,0.0,0.0,0.0,0.0,0.0,0.0,0.0,0.0,0.0,0.0,0.0,0.0,0.0,0.0,0.0,0.0,0.0,0.0,0.0,0.0,0.0,0.0,0.0,0.0,0.0,0.0,0.0,0.0,0.0,0.0,0.0,0.0,0.0,0.0,0.0,0.0,0.0,0.0,0.0,0.0,0.0,0.0,0.0,0.0,0.0,0.0,0.0,0.0,0.0,0.0,0.0,0.0,0.0,0.0,0.0,0.0,0.0,0.0,0.0,0.0,0.0,0.0,0.0,0.0,0.0,0.0,0.0,0.0,0.0,0.0,0.0,0.0,0.0,0.0,0.0,0.0,0.0,0.0,0.0,0.0,0.0,0.0,0.0,0.0,0.0,0.0,0.9721,0.9786,0.9786,0.9535,0.9442,0.9535,0.9341,0.908,0.8825,0.0,0.0,0.0,0.0,0.0,0.0,0.0,0.0,0.0,0.0,0.0,0.0,0.0,0.0,0.0,0.0,0.0,0.0,0.0,0.0,0.0,0.0,0.0,0.0,0.0,0.0,0.0,0.0,0.0,0.0,0.0,0.0,0.0,0.0,0.0,0.0,0.0,0.0,0.0,0.0,0.0,0.0,0.0,0.0,0.0,0.0,0.0,0.0,0.0,0.0,0.0,0.0,0.0,0.0,0.0,0.0,0.0,0.0,0.0,0.0,0.0,0.0,0.0,0.0,0.0,0.0,0.0,0.0,0.0,0.0,0.0,0.0,0.0,0.0,0.0,0.0,0.0,0.0,0.0,0.0,0.0,0.0,0.0,0.0,0.0,0.0,0.0,0.0,0.0,0.0,0.0,0.0,0.0,0.0,0.0,0.0,0.0,0.0,0.0,0.0,0.0,0.0,1.0203,1.0365,1.0348,0.9943,0.9684,0.9535,0.9472,0.9265,0.9065,0.8766,0.0,0.0,0.0,0.0,0.0,0.0,0.0,0.0,0.0,0.0,0.0,0.0,0.0,0.0,0.0,0.0,0.0,0.0,0.0,0.0,0.0,0.0,0.0,0.0,0.0,0.0,0.0,0.0,0.0,0.0,0.0,0.0,0.0,0.0,0.0,0.0,0.0,0.0,0.0,0.0,0.0,0.0,0.0,0.0,0.0,0.0,0.0,0.0,0.0,0.0,0.0,0.0,0.0,0.0,0.0,0.0,0.0,0.0,0.0,0.0,0.0,0.0,0.0,0.0,0.0,0.0,0.0,0.0,0.0,0.0,0.0,0.0,0.0,0.0,0.0,0.0,0.0,0.0,0.0,0.0,0.0,0.0,0.0,0.0,0.0,0.0,0.0,0.0,0.0,0.0,0.0,0.0,0.0,0.0,0.0,0.0,0.0,0.0,0.0,0.0,0.0,0.0,1.1592,1.1722,1.141,1.0053,0.973,0.9559,0.942,0.9202,0.9003,0.0,0.0,0.0,0.0,0.0,0.0,0.0,0.0,0.0,0.0,0.0,0.0,0.0,0.0,0.0,0.0,0.0,0.0,0.0,0.0,0.0,0.0,0.0,0.0,0.0,0.0,0.0,0.0,0.0,0.0,0.0,0.0,0.0,0.0,0.0,0.0,0.0,0.0,0.0,0.0,0.0,0.0,0.0,0.0,0.0,0.0,0.0,0.0,0.0,0.0,0.0,0.0,0.0,0.0,0.0,0.0,0.0,0.0,0.0,0.0,0.0,0.0,0.0,0.0,0.0,0.0,0.0,0.0,0.0,0.0,0.0,0.0,0.0,0.0,0.0,0.0,0.0,0.0,0.0,0.0,0.0,0.0,0.0,0.0,0.0,0.0,0.0,0.0,0.0,0.0,0.0,0.0,0.0,0.0,0.0,0.0,0.0,0.0,0.0,0.0,0.0,0.0,0.0,1.2754,1.2232,1.1667,1.1006,1.0289,0.9738,0.9559,0.938,0.9226,0.9011,0.0,0.0,0.0,0.0,0.0,0.0,0.0,0.0,0.0,0.0,0.0,0.0,0.0,0.0,0.0,0.0,0.0,0.0,0.0,0.0,0.0,0.0,0.0,0.0,0.0,0.0,0.0,0.0,0.0,0.0,0.0,0.0,0.0,0.0,0.0,0.0,0.0,0.0,0.0,0.0,0.0,0.0,0.0,0.0,0.0,0.0,0.0,0.0,0.0,0.0,0.0,0.0,0.0,0.0,0.0,0.0,0.0,0.0,0.0,0.0,0.0,0.0,0.0,0.0,0.0,0.0,0.0,0.0,0.0,0.0,0.0,0.0,0.0,0.0,0.0,0.0,0.0,0.0,0.0,0.0,0.0,0.0,0.0,0.0,0.0,0.0,0.0,0.0,0.0,0.0,0.0,0.0,0.0,0.0,0.0,0.0,0.0,0.0,0.0,0.0,0.0,0.0,1.3861,1.3388,1.2832,1.2113,1.1416,1.0901,1.0578,1.0415,1.0084,0.9477,0.0,0.0,0.0,0.0,0.0,0.0,0.0,0.0,0.0,0.0,0.0,0.0,0.0,0.0,0.0,0.0,0.0,0.0,0.0,0.0,0.0,0.0,0.0,0.0,0.0,0.0,0.0,0.0,0.0,0.0,0.0,0.0,0.0,0.0,0.0,0.0,0.0,0.0,0.0,0.0,0.0,0.0,0.0,0.0,0.0,0.0,0.0,0.0,0.0,0.0,0.0,0.0,0.0,0.0,0.0,0.0,0.0,0.0,0.0,0.0,0.0,0.0,0.0,0.0,0.0,0.0,0.0,0.0,0.0,0.0,0.0,0.0,0.0,0.0,0.0,0.0,0.0,0.0,0.0,0.0,0.0,0.0,0.0,0.0,0.0,0.0,0.0,0.0,0.0,0.0,0.0,0.0,0.0,0.0,0.0,0.0,0.0,0.0,0.0,0.0,0.0,0.0,1.4912,1.4883,1.448,1.3242,1.2867,1.2485,1.2048,1.1878,1.1287,1.0091,0.0,0.0,0.0,0.0,0.0,0.0,0.0,0.0,0.0,0.0,0.0,0.0,0.0,0.0,0.0,0.0,0.0,0.0,0.0,0.0,0.0,0.0,0.0,0.0,0.0,0.0,0.0,0.0,0.0,0.0,0.0,0.0,0.0,0.0,0.0,0.0,0.0,0.0,0.0,0.0,0.0,0.0,0.0,0.0,0.0,0.0,0.0,0.0,0.0,0.0,0.0,0.0,0.0,0.0,0.0,0.0,0.0,0.0,0.0,0.0,1.8805,1.8708,0.0,0.0,0.0,0.0,0.0,0.0,0.0,0.0,0.0,0.0,0.0,0.0,0.0,0.0,0.0,0.0,0.0,0.0,0.0,0.0,0.0,0.0,0.0,0.0,0.0,0.0,0.0,0.0,0.0,0.0,0.0,0.0,0.0,0.0,0.0,0.0,0.0,0.0,0.0,0.0,1.6006,1.5233,1.4568,1.4062,1.3255,1.2485,1.2048,1.1973,1.1679,1.1046,1.0982,0.0,0.0,0.0,0.0,0.0,0.0,0.0,0.0,0.0,0.0,0.0,0.0,0.0,0.0,0.0,0.0,0.0,0.0,0.0,0.0,0.0,0.0,0.0,0.0,0.0,0.0,0.0,0.0,0.0,0.0,0.0,0.0,0.0,0.0,0.0,0.0,0.0,0.0,0.0,0.0,0.0,0.0,0.0,0.0,0.0,0.0,0.0,0.0,0.0,0.0,0.0,0.0,0.0,0.0,0.0,0.0,0.0,0.0,0.0,1.8584,1.8704,0.0,0.0,0.0,0.0,0.0,0.0,0.0,0.0,0.0,0.0,0.0,0.0,0.0,0.0,0.0,0.0,0.0,0.0,0.0,0.0,0.0,0.0,0.0,0.0,0.0,0.0,0.0,0.0,0.0,0.0,0.0,0.0,0.0,0.0,0.0,0.0,0.0,0.0,0.0,0.0,1.6099,1.5577,1.5175,1.5035,1.4519,1.3968,1.3486,1.3438,1.3031,1.2049,1.1972,0.0,0.0,0.0,0.0,0.0,0.0,0.0,0.0,0.0,0.0,0.0,0.0,0.0,0.0,0.0,0.0,0.0,0.0,0.0,0.0,0.0,0.0,0.0,0.0,0.0,0.0,0.0,0.0,0.0,0.0,0.0,0.0,0.0,0.0,0.0,0.0,0.0,0.0,0.0,0.0,0.0,0.0,0.0,0.0,0.0,0.0,0.0,0.0,0.0,0.0,0.0,0.0,0.0,1.8225,1.8117,1.7916,1.7916,1.7916,1.7929,1.8223,1.8504,1.8715,1.8715,0.0,0.0,0.0,0.0,0.0,0.0,0.0,0.0,0.0,0.0,0.0,0.0,0.0,0.0,0.0,0.0,0.0,0.0,0.0,0.0,0.0,0.0,1.6126,1.5885,1.5824,1.6032,1.6526,0.0,0.0,0.0,0.0,0.0,0.0,0.0,0.0,0.0,0.0,0.0,1.5858,1.5784,1.5784,1.5784,1.5784,1.5618,1.5129,1.5035,1.4414,1.3108,1.2991,1.2528,0.0,0.0,0.0,0.0,0.0,0.0,0.0,0.0,0.0,0.0,0.0,0.0,0.0,0.0,0.0,0.0,0.0,0.0,0.0,0.0,0.0,0.0,0.0,0.0,0.0,0.0,0.0,0.0,0.0,0.0,0.0,0.0,2.4167,2.3143,0.0,0.0,0.0,0.0,0.0,0.0,0.0,0.0,0.0,0.0,0.0,0.0,0.0,2.0555,2.0555,2.0555,2.0074,1.904,1.904,1.8569,1.7649,1.7649,1.7649,1.7649,1.7689,0.0,1.8115,1.8115,0.0,0.0,0.0,0.0,0.0,0.0,0.0,0.0,0.0,0.0,0.0,0.0,0.0,0.0,0.0,0.0,0.0,0.0,0.0,0.0,0.0,0.0,1.5824,1.5798,1.6019,1.6233,1.6362,1.6099,1.5899,1.5891,1.6126,1.6335,0.0,0.0,0.0,0.0,0.0,0.0,1.5832,1.5784,1.5784,1.5784,1.5784,1.5698,1.5364,1.511,1.4772,1.4309,1.4045,1.3476,1.2528,1.2521,0.0,0.0,0.0,0.0,0.0,0.0,0.0,0.0,0.0,0.0,0.0,0.0,0.0,0.0,0.0,0.0,0.0,0.0,0.0,0.0,0.0,0.0,0.0,0.0,0.0,0.0,0.0,0.0,0.0,2.5937,2.5288,2.4726,2.4481,2.4291,0.0,0.0,0.0,0.0,0.0,0.0,0.0,0.0,0.0,2.1064,2.0956,2.0877,2.0877,2.0877,2.0672,2.0158,2.0158,1.9901,1.9435,1.9435,1.9138,1.8513,1.8513,1.8326,1.8009,1.8169,1.837,1.8504,0.0,0.0,0.0,0.0,1.8384,1.8424,1.7996,1.7836,1.7756,1.7248,0.0,0.0,0.0,0.0,0.0,0.0,0.0,1.5784,1.5784,1.5784,1.5784,1.5784,1.5925,1.6019,1.6019,1.5925,1.5878,1.6259,1.6299,1.6321,1.6321,1.6321,0.0,0.0,0.0,1.5784,1.5784,1.5784,1.5784,1.5784,1.5784,1.5712,1.5418,1.5284,1.5017,1.4549,1.4402,1.4084,1.3532,1.3489,1.3327,0.0,0.0,0.0,0.0,0.0,0.0,0.0,0.0,0.0,0.0,0.0,0.0,0.0,0.0,0.0,0.0,0.0,0.0,0.0,0.0,0.0,0.0,0.0,0.0,0.0,0.0,0.0,0.0,2.6205,2.5966,2.5874,2.5598,2.5378,0.0,0.0,0.0,0.0,0.0,0.0,2.1759,2.1759,2.1759,2.1759,2.1759,2.1759,2.1759,2.1759,2.1607,2.1302,2.1302,2.1183,2.0877,2.0877,2.0416,1.9642,1.9642,1.9322,1.8747,1.8469,1.8424,1.8517,1.8731,1.8677,1.8477,1.8317,1.8263,1.821,1.7836,1.7649,1.7543,1.6927,1.67,1.662,1.6192,0.0,0.0,0.0,0.0,1.6478,1.6478,1.6669,1.6832,1.6748,1.6734,1.6706,1.6588,1.6574,1.6572,1.6491,1.6313,1.6152,1.6152,1.6152,0.0,1.5858,1.5784,1.5784,1.5784,1.5784,1.5784,1.5784,1.5784,1.5738,1.5524,1.5444,1.5177,1.4669,1.4563,1.4389,1.4095,1.4082,1.4082,1.4082,0.0,0.0,0.0,0.0,0.0,0.0,0.0,0.0,0.0,0.0,0.0,0.0,0.0,0.0,0.0,0.0,0.0,0.0,0.0,0.0,0.0,0.0,0.0,0.0,0.0,0.0,0.0,0.0,0.0,2.5506,2.5433,0.0,0.0,0.0,0.0,2.4157,2.4071,2.4071,2.4053,2.4053,2.4053,2.4053,2.4053,2.4053,2.4053,2.4053,2.3488,2.2434,2.2434,2.1912,2.0877,2.0877,2.0877,2.0826,2.0826,2.079,2.0632,1.8786,1.8237,1.849,1.8504,1.8504,1.8424,1.7836,1.7635,1.7542,1.6967,1.678,1.6767,1.6714,1.67,1.67,1.6673,1.666,0.0,0.0,1.7442,1.8282,1.8282,1.9018,1.9701,1.9304,1.9225,1.9083,1.872,1.8657,1.8102,1.6191,1.5811,1.5845,1.5845,0.0,1.5798,1.5784,1.5784,1.5784,1.5784,1.5784,1.5784,1.5784,1.5784,1.5771,1.5758,1.5551,1.5271,1.5008,1.4669,1.4389,1.4095,1.4082,1.4082,1.4082,1.4095,0.0,0.0,0.0,0.0,0.0,0.0,0.0,0.0,0.0,0.0,0.0,0.0,0.0,0.0,0.0,0.0,0.0,0.0,0.0,0.0,0.0,0.0,0.0,0.0,0.0,0.0,0.0,0.0,2.5014,2.4808,0.0,2.444,2.4422,2.4367,2.422,2.4459,2.4606,2.4606,2.4845,2.4992,2.4992,2.4992,2.4992,2.4992,2.4992,2.4787,2.4358,2.4358,2.401,2.3423,2.3423,2.2859,2.1912,2.1912,2.1556,2.0842,2.0141,1.9949,2.0084,2.024,2.0195,2.0039,1.9784,1.9694,1.9664,1.9475,1.94,1.937,1.9145,1.8984,1.8818,1.8818,1.8818,1.8818,1.8818,1.9112,1.9455,1.9455,1.9525,1.9558,1.9431,1.9176,1.8985,1.8812,1.8796,1.8611,1.787,1.7232,1.6763,1.6763,1.6258,1.6021,1.6669,1.6197,1.6021,1.6669,1.6197,1.5784,1.5784,1.5927,1.6082,1.6082,1.6115,1.597,1.5545,1.5187,1.4832,1.4376,1.4188,1.4082,1.4082,1.425,1.4279,0.0,0.0,0.0,0.0,0.0,0.0,0.0,0.0,0.0,0.0,0.0,0.0,0.0,0.0,0.0,0.0,0.0,0.0,0.0,0.0,0.0,0.0,0.0,0.0,0.0,2.5447,2.4974,2.4725,2.4577,2.4504,2.4422,2.4532,2.4606,2.4606,2.4882,2.4977,2.4977,2.5286,2.5414,2.5414,2.5414,2.5414,2.5414,2.5414,2.5414,2.5414,2.5414,2.5286,2.4977,2.4977,2.4383,2.3281,2.3281,2.2807,2.1996,2.1996,2.1996,2.1979,2.139,2.1084,2.0877,2.0877,2.0877,2.0877,2.0877,2.0877,2.0845,2.0657,2.0434,2.0293,2.0293,2.0293,2.0293,2.0293,2.054,2.0802,2.0687,2.0716,2.0704,2.0453,2.0155,1.9954,1.9837,1.9803,1.9803,1.9803,1.8703,1.7824,1.7824,1.7264,1.703,1.7684,1.7311,1.7171,1.7824,1.7404,1.7077,1.7077,1.7217,1.7311,1.7311,1.7171,1.704,1.6917,1.6413,1.5963,1.5677,1.512,1.4796,1.4741,1.4559,1.4475,1.4475,0.0,0.0,0.0,0.0,0.0,0.0,0.0,0.0,0.0,0.0,0.0,0.0,0.0,0.0,0.0,0.0,0.0,0.0,0.0,0.0,0.0,0.0,0.0,2.5547,2.5497,2.5246,2.4603,2.4902,2.5061,2.4845,2.5194,2.5433,2.5414,2.5433,2.5433,2.5433,2.5451,2.547,2.547,2.547,2.547,2.547,2.547,2.547,2.547,2.547,2.5451,2.5433,2.5433,2.5231,2.4794,2.4794,2.4606,2.422,2.4202,2.4202,2.4003,2.1844,2.0979,2.0979,2.0979,2.0979,2.0979,2.0979,2.0979,2.0979,2.0979,2.0979,2.0979,2.0979,2.0979,2.0979,2.0979,2.1759,2.2432,2.2038,2.2735,2.3279,2.2474,2.2272,2.2163,2.1778,2.1687,2.1687,2.1687,2.0167,1.8888,1.8888,1.8842,1.8842,1.8888,1.901,0.0,1.9177,1.936,1.9497,1.9497,1.9497,1.9497,1.9497,1.8626,1.8347,1.909,1.8211,1.7777,1.8029,1.6969,1.6293,1.6057,1.5242,1.4824,1.4824,0.0,0.0,0.0,0.0,0.0,0.0,0.0,0.0,0.0,0.0,0.0,0.0,0.0,0.0,0.0,0.0,0.0,0.0,0.0,0.0,0.0,2.7065,2.6543,2.596,2.5717,2.5509,2.5296,2.5451,2.561,2.5526,2.5618,2.5641,2.5414,2.5848,2.6067,2.5855,2.6096,2.6261,2.6261,2.6261,2.6261,2.6261,2.6261,2.6261,2.6261,2.6261,2.6096,2.5855,2.5855,2.5635,2.5197,2.4904,2.4721,2.4643,2.433,2.4202,2.4152,2.3538,2.3288,2.3288,2.3288,2.3288,2.3288,2.3288,2.3288,2.3288,2.3288,2.3288,2.3288,2.3288,2.3288,2.3288,2.3288,2.3488,2.3647,2.3201,2.3087,2.2931,2.24,2.2053,2.1815,2.1705,2.1687,2.1687,2.1687,2.1419,2.0952,2.024,1.9633,1.9542,2.0268,1.9815,1.9633,2.0359,1.9906,1.9497,1.9497,1.9695,1.9786,1.9786,1.9695,1.96,1.9698,1.919,1.8853,1.8802,1.8278,1.7881,1.7689,1.7423,1.7185,0.0,0.0,0.0,0.0,0.0,0.0,0.0,0.0,0.0,0.0,0.0,0.0,0.0,0.0,0.0,0.0,0.0,0.0,0.0,0.0,0.0,0.0,2.8349,2.7923,2.7192,2.6415,2.5944,2.5996,2.6243,2.6352,2.6248,2.6364,2.6352,2.6088,2.6451,2.6528,2.6278,2.6463,2.6591,2.6591,2.6591,2.6591,2.6591,2.6591,2.6591,2.6591,2.6591,2.6463,2.6278,2.6278,2.6058,2.5653,2.5381,2.5087,2.4757,2.4569,2.4367,2.4202,0.0,0.0,0.0,0.0,2.4202,2.4202,2.4202,2.4202,2.4202,2.4202,2.4202,2.4202,2.4202,2.4202,2.4202,2.4202,2.4073,2.3804,2.3352,2.295,2.2547,2.2126,2.1851,2.1687,2.1687,2.1776,2.1883,2.1883,2.2132,0.0,2.1606,2.1051,2.0917,2.1516,2.1186,2.1096,2.1695,2.132,2.0989,2.0989,2.1141,2.1248,2.1248,2.0962,0.0,0.0,0.0,2.0228,1.9895,1.9618,0.0,0.0,0.0,1.8581,1.8377,1.8957,0.0,0.0,1.8129,1.817,0.0,0.0,0.0,0.0,0.0,0.0,0.0,0.0,0.0,0.0,0.0,0.0,0.0,0.0,0.0,0.0,2.9749,2.9589,2.9112,2.7772,2.6861,2.6724,2.7026,2.7137,2.6892,2.716,2.726,2.6989,2.6989,2.6899,2.6591,2.6591,0.0,0.0,0.0,2.6591,2.6591,2.6591,2.6591,2.6591,2.6591,2.6591,2.6591,2.6591,2.6389,2.6076,2.6039,2.5598,2.4849,2.4794,2.4537,2.4202,2.4202,2.4202,2.4202,2.4202,2.4202,2.4202,2.4202,0.0,0.0,2.4202,2.4202,2.4202,2.4202,2.4202,2.4202,2.4202,2.3859,2.3407,2.3004,2.2602,2.2226,2.1823,2.1731,2.1731,2.1776,2.1954,2.215,2.215,2.2485,2.2794,2.2794,2.2618,2.2485,2.2485,2.2662,2.2838,2.2838,2.3013,2.3101,2.3101,2.3101,0.0,2.3101,2.2334,2.2183,2.3057,2.2334,2.1662,2.1145,2.0985,2.0401,1.9307,1.9521,1.9632,1.9579,2.0413,2.0829,2.0787,1.9742,1.9384,0.0,0.0,0.0,0.0,0.0,0.0,0.0,0.0,0.0,0.0,0.0,0.0,0.0,0.0,0.0,3.1358,3.1381,3.1445,3.163,3.0723,2.9425,2.7675,2.7434,2.7362,2.7308,2.7168,2.6935,2.6682,2.6899,2.6899,2.6591,2.6591,2.6591,2.6591,2.6591,2.6591,2.6591,2.6591,2.6591,2.6591,2.6591,0.0,2.6591,2.6591,2.6554,2.6444,2.6168,2.5745,2.5286,2.4922,2.4537,2.4202,2.4202,2.4202,2.4202,2.4202,2.4202,2.4202,2.4202,2.4202,2.4202,2.4202,2.4202,2.4202,2.4202,2.4202,0.0,2.4202,2.3859,2.3407,2.3004,2.2602,2.2272,2.2065,2.2017,2.2043,2.222,2.2309,2.2353,2.2353,2.2574,2.2794,2.2794,2.2882,2.2969,2.2969,2.3013,2.3057,2.3057,2.3101,2.3101,2.3101,2.3101,2.3101,2.3101,2.2906,2.2925,2.3101,2.2925,2.278,2.2703,2.2626,2.2371,2.1812,2.1854,2.1744,2.14,2.187,2.2129,2.2109,2.1572,2.1358,0.0,0.0,0.0,0.0,0.0,0.0,0.0,0.0,0.0,0.0,0.0,3.1529,3.2066,0.0,3.263,3.2889,3.2912,3.2909,3.2814,3.2365,3.1466,2.9859,2.9076,2.8615,2.8615,2.8048,2.753,2.7279,2.7368,2.726,2.6845,2.6791,2.6736,2.6591,2.6591,2.6591,2.6591,2.6591,2.6591,2.6591,2.6591,2.6591,2.6591,2.6591,2.6591,2.6573,2.6371,2.5984,2.5378,2.4771,2.4385,2.4202,2.4202,2.4202,2.4202,2.4202,2.4202,2.4202,2.4202,2.4202,2.4202,2.4202,2.4202,2.4202,2.4202,2.4202,2.4165,2.411,2.3758,2.3352,2.3019,2.2657,2.2329,2.2276,2.2264,2.2264,2.2397,2.253,2.2618,2.2618,2.2794,2.2969,2.2969,2.3057,2.3101,2.3101,2.3101,2.3101,2.3101,2.3101,2.3101,2.3101,2.3101,2.3101,2.3101,2.3101,2.3101,2.3101,2.3101,2.3101,2.3101,2.3101,2.3003,2.2789,2.2789,2.2672,2.2519,2.2672,2.2789,2.2812,2.2617,2.2519,0.0,0.0,0.0,0.0,0.0,0.0,0.0,0.0,3.2779,3.3212,3.3356,3.3428,3.3428,3.3525,3.3717,3.4078,3.415,3.3982,3.3552,3.3499,3.3201,3.2325,3.1,3.0068,2.9859,2.9006,2.8281,2.7853,2.7799,2.7584,2.7098,2.7098,2.6935,2.67,2.6682,2.6646,2.6591,2.6591,2.6591,2.6591,2.6591,2.6591,2.6591,2.6591,2.6646,2.6682,2.6534,2.6039,2.5359,2.4532,2.4202,2.4202,2.4202,2.4202,2.4202,2.4202,2.4202,2.4202,2.4202,2.4202,2.4202,2.4202,2.4202,2.4202,2.4202,2.4146,2.4116,2.3929,2.3578,2.3224,2.3051,2.27,2.2397,2.2485,2.2485,2.2485,2.253,2.2706,2.2838,2.2838,2.3013,2.3101,2.3101,2.3101,2.3101,2.3101,2.3101,2.3101,2.3101,2.3101,2.3101,2.3101,2.3101,2.3101,2.3101,2.3101,2.3101,2.3101,2.3101,2.3101,2.3101,2.3101,2.3101,2.3101,2.3101,2.3101,2.3101,2.3101,2.3101,2.3101,2.3101,2.3101,3.2359,3.2496,3.238,3.2309,3.2309,3.2474,0.0,0.0,3.3212,3.3284,3.3645,3.391,3.391,3.4294,3.4631,3.4679,3.4703,3.4703,3.4628,3.4628,3.458,3.4482,3.2404,3.0596,2.9629,2.923,2.8562,2.753,2.7476,2.7422,2.7368,2.7368,2.7206,2.6935,2.6935,2.6845,2.6591,2.6591,2.6591,2.6591,2.6591,2.6591,2.6591,2.6591,2.6736,2.6898,2.6191,2.5715,2.5359,2.4532,2.4202,2.4202,2.4202,2.4202,2.4202,2.4202,2.4202,2.4202,2.4202,2.4202,2.4202,2.4202,2.4202,2.4202,2.4202,2.4091,2.394,2.3903,2.3467,2.3013,2.3021,2.27,2.2441,2.2706,2.275,2.2794,2.2969,2.3057,2.3057,2.3057,2.3101,2.3101,2.3101,2.3101,2.3101,2.3101,2.3101,2.3101,2.3101,2.3101,2.3101,2.3101,2.3101,2.3101,2.3101,2.3101,2.3101,2.3101,2.3101,2.3101,2.3101,2.3101,2.3101,2.3101,2.3101,2.3101,2.3101,2.3101,2.3101,2.3101,2.3101,2.3101,3.192,3.225,3.2491,0.0,3.2731,3.3092,3.3597,3.3717,3.3813,3.4126,3.4294,3.4462,3.4462,3.4631,3.4775,0.0,3.4775,3.4775,3.4775,3.4775,3.4775,3.4775,3.3895,3.2805,3.1746,3.1,3.0068,2.8933,2.8827,2.8528,2.7745,2.7691,2.753,2.726,2.7206,2.7152,2.7062,2.6899,2.6845,2.6845,2.6682,2.6591,2.6591,2.6591,2.6627,2.6754,2.594,2.5485,2.5359,2.4532,2.4202,2.4202,2.4202,2.4202,2.4202,2.4202,2.4202,2.4202,2.4202,2.4202,2.4202,2.4202,2.4202,2.4202,2.4202,2.3975,2.3684,2.3748,2.3428,2.2991,2.3057,2.2909,2.2838,2.2969,2.2969,2.3013,2.3101,2.3101,2.3101,2.3101,2.3101,2.3101,2.3101,2.3101,2.3101,2.3101,2.3101,2.3101,2.3101,2.3101,2.3101,2.3101,2.3101,2.3101,2.3101,2.3101,2.3101,2.3101,2.3101,2.3101,2.3101,2.3101,2.3101,2.3101,2.3101,2.3101,2.3101,2.3101,2.3101,2.3101,2.3101,2.3101,3.1934,0.0,0.0,3.2899,3.3212,3.3621,3.4102,3.4222,3.4318,3.4703,3.4775,3.4775,3.4775,3.4775,3.4775,3.4775,3.4775,3.4775,3.4775,3.4775,3.4775,3.4775,3.4775,3.4482,3.372,3.27,3.1564,3.0432,3.0193,2.9644,2.8706,2.8349,2.8026,2.772,2.7606,2.7476,2.7368,2.7206,2.7098,2.7098,2.6845,2.6682,2.6682,2.6682,2.67,2.6536,2.5835,2.5518,2.5463,2.4633,2.4301,2.4301,2.4301,2.4251,2.4202,2.4202,2.4251,2.4301,2.4301,2.435,2.4399,2.4399,2.4399,2.4399,2.4301,2.398,2.3643,2.3711,2.3358,2.3025,2.3091,2.3101,2.3101,2.3101,2.3101,2.3101,2.3101,2.3101,2.3101,2.3101,2.3101,2.3101,2.3101,2.3101,2.3101,2.3101,2.3101,2.3101,2.3101,2.3101,2.3101,2.3101,2.3101,2.3101,2.3101,2.3101,2.3101,2.3101,2.3101,2.3101,2.3101,2.3101,2.3101,2.3101,2.3101,2.3101,2.3101,2.3101,2.3101,2.3101,2.3101,2.3101,0.0,0.0,3.338,3.3814,3.3958,3.4102,3.4631,3.4751,3.4751,3.4775,3.4775,3.4775,3.4775,3.4775,3.4775,3.4775,3.4775,3.4775,3.4775,3.4775,3.4775,3.4775,3.4775,3.4775,0.0,3.377,3.27,3.1637,3.0979,3.0541,3.0541,2.9485,2.8742,2.8487,2.8083,2.7745,2.7368,2.7368,2.7368,2.7368,2.7098,2.6989,2.6989,2.6989,2.6845,2.6536,2.6045,2.5796,2.5722,2.4833,2.448,2.448,2.448,2.4399,2.4202,2.4202,2.435,2.448,2.448,2.4677,2.4892,2.4892,2.4892,2.4843,2.4578,2.4239,2.397,2.3757,2.3422,2.312,2.3101,2.3101,2.3101,2.3101,2.3101,2.3101,2.3101,2.3101,2.3101,2.3101,2.3101,2.3101,2.3101,2.3101,2.3101,2.3101,2.3101,2.3101,2.3101,2.3101,2.3101,2.3101,2.3101,2.3101,2.3101,2.3101,2.3101,2.3101,2.3101,2.3101,2.3101,2.3101,2.3101,2.3101,2.3101,2.3101,2.3101,2.3101,2.3101,2.3101,2.3101,2.3101,0.0,0.0,3.379,3.3958,3.4246,3.4558,3.4751,3.4775,3.4775,3.4775,3.5112,3.5256,3.4895,3.5112,3.5183,3.4847,3.4775,3.4775,3.4775,3.4775,3.4775,3.4775,3.4775,0.0,0.0,0.0,0.0,3.3254,3.2249,3.1519,3.1158,2.9555,2.8616,2.8507,2.7867,2.753,2.7368,2.7368,2.7368,2.7368,2.7314,2.726,2.726,2.7098,2.6935,2.6789,2.5922,2.5641,2.5722,2.4883,2.4578,2.4794,2.4794,2.4646,2.4399,2.4399,2.443,2.448,2.448,2.4578,2.4677,2.4843,2.4892,2.4892,2.4775,2.4287,2.3812,2.3858,2.3403,2.2925,2.3057,2.3101,2.3101,2.3101,2.3101,2.3101,2.3101,2.3101,2.3101,2.3101,2.3101,2.3101,2.3101,2.3101,2.3101,2.3101,2.3101,2.3101,2.3101,2.3101,2.3101,2.3101,2.3101,2.3101,2.3101,2.3101,2.3101,2.3101,2.3101,2.3101,2.3101,2.3101,2.3101,2.3101,2.3101,2.3101,2.3101,2.3101,2.3101,2.3101,2.3101,2.3101,0.0,3.3933,3.427,3.427,3.4534,3.4775,3.4775,3.4775,3.4775,3.4775,3.5256,3.5449,3.4919,3.5256,3.5449,3.4871,3.4775,3.4775,3.4775,3.4775,3.4775,3.4775,3.4775,3.4775,0.0,0.0,0.0,3.4594,3.3634,3.3008,3.2847,3.0731,2.9525,2.9525,2.825,2.7584,2.7584,2.7584,2.7584,2.7584,2.7584,2.753,2.7368,2.7206,2.7152,2.7114,2.6175,2.5804,2.5877,2.5133,2.4857,2.4892,2.499,2.4892,2.4627,2.4529,2.448,2.4529,2.4578,2.4677,2.4824,2.5088,2.5186,2.5167,2.4917,2.4431,2.3913,2.3806,2.3358,2.2925,2.3057,2.3101,2.3101,2.3101,2.3101,2.3101,2.3101,2.3101,2.3101,2.3101,2.3101,2.3101,2.3101,2.3101,2.3101,2.3101,2.3101,2.3101,2.3101,2.3101,2.3101,2.3101,2.3101,2.3101,2.3101,2.3101,2.3101,2.3101,2.3101,2.3101,2.3101,2.3101,2.3101,2.3101,2.3101,2.3101,2.3101,2.3101,2.3101,2.3101,2.3101,2.3101,3.3886,3.439,3.4775,3.4775,3.4775,3.4775,3.4775,3.4775,3.4775,3.4775,3.5256,3.5449,0.0,0.0,3.5449,3.4871,3.4775,3.4775,3.4775,3.4775,3.4775,0.0,0.0,0.0,0.0,0.0,0.0,3.5689,3.5053,3.487,3.5352,3.2814,3.1387,3.1311,2.907,2.7853,2.7853,2.7906,2.7906,2.7906,2.7906,2.7745,2.7422,2.7422,2.7422,2.7403,2.672,2.636,2.6186,2.5718,2.5301,2.499,2.5235,2.5137,2.4892,2.4627,2.4529,2.4578,2.4843,2.5088,2.5333,2.5577,2.5693,2.5567,2.4919,2.4617,2.429,2.3609,2.3274,2.3101,2.3101,2.3101,2.3101,2.3101,2.3101,2.3101,2.3101,2.3101,2.3101,2.3101,2.3101,2.3101,2.3101,2.3101,2.3101,2.3101,2.3101,2.3101,2.3101,2.3101,2.3101,2.3101,2.3101,2.3101,2.3101,2.3101,2.3101,2.3101,2.3101,2.3101,2.3101,2.3101,2.3101,2.3101,2.3101,2.3101,2.3101,2.3101,2.3101,2.3101,2.3101,2.3101,3.4438,3.4679,3.4775,3.4775,3.4775,3.4775,3.4775,3.4775,3.4775,3.4775,3.5256,3.5449,0.0,0.0,0.0,3.4871,3.4775,0.0,3.4775,3.4775,0.0,3.4775,0.0,3.5425,3.5425,3.5881,0.0,3.6771,3.5829,3.526,3.5375,3.2598,3.086,3.0458,2.8535,2.753,2.753,2.7799,2.8014,2.8174,2.8174,2.8121,2.8067,2.7853,2.7745,2.7726,2.6986,2.6622,2.6461,2.604,2.5718,2.5479,2.5577,2.543,2.5186,2.5137,2.499,2.4843,2.5088,2.5137,2.5039,2.5333,2.5528,2.5674,2.5509,2.4944,2.4348,2.4185,2.3621,2.3101,2.3101,2.3101,2.3101,2.3101,2.3101,2.3101,2.3101,2.3101,2.3101,2.3101,2.3101,2.3101,2.3101,2.3101,2.3101,2.3101,2.3101,2.3101,2.3101,2.3101,2.3101,2.3101,2.3101,2.3101,2.3101,2.3101,2.3101,2.3101,2.3101,2.3101,2.3101,2.3101,2.3101,2.3101,2.3101,2.3101,2.3101,2.3101,2.3101,2.3101,2.3101,2.3101,3.4631,3.4775,3.4775,3.4775,3.4775,3.4775,3.4775,3.4775,3.4775,3.4775,3.5256,0.0,0.0,0.0,0.0,0.0,0.0,0.0,3.4775,3.4775,3.4871,0.0,3.5449,0.0,3.593,3.6435,3.6867,3.718,3.6583,3.6309,3.652,3.4053,3.2212,3.1422,2.9413,2.8101,2.7638,2.7799,2.8014,2.8301,2.8301,2.8301,2.8281,2.8121,2.8067,2.8067,2.7496,2.7003,2.6583,2.6333,2.5891,2.5382,2.5596,2.5528,2.5284,2.5284,2.5186,2.5088,2.5137,2.5088,2.5137,2.5382,2.5596,2.5654,2.5508,2.4961,2.4375,2.4199,2.3652,2.3101,2.3101,2.3101,2.3101,2.3101,2.3101,2.3101,2.3101,2.3101,2.3101,2.3101,2.3101,2.3101,2.3101,2.3101,2.3101,2.3101,2.3101,2.3101,2.3101,2.3101,2.3101,2.3101,2.3101,2.3256,2.3691,2.3691,2.3691,2.3691,2.4059,2.4102,2.3734,2.4059,2.4274,2.4274,2.3907,2.3691,2.3691,2.3299,2.3101,2.3101,2.3101,2.3101,3.4655,3.4775,3.4775,3.4775,3.4775,3.4775,3.4775,3.4727,3.4703,3.4775,0.0,3.528,3.4847,3.5159,3.5352,3.4895,0.0,3.4775,3.4775,3.4775,3.4967,3.5545,3.5689,3.593,3.6459,3.6988,3.73,3.73,3.73,3.7416,3.7618,3.5853,3.4155,3.2734,3.0621,2.9039,2.796,2.796,2.8067,2.8301,2.8301,2.8301,2.8301,2.8301,2.8301,2.8301,2.8067,2.7516,2.6731,2.6673,2.6021,2.5164,2.5567,2.5547,2.5333,2.5333,2.5333,2.5333,2.5088,2.5137,2.5382,2.5596,2.5693,2.5615,2.5273,2.4844,2.4414,2.3984,2.3555,2.3159,2.312,2.3101,2.3101,2.3101,2.3101,2.3101,2.3101,2.3101,2.3101,2.3101,2.3101,2.3101,2.3101,2.3101,2.3101,2.3101,2.3101,2.3144,2.3256,2.3299,2.3299,2.3299,2.3387,2.3777,2.4616,2.4659,2.4659,2.4659,2.5358,2.5442,2.4701,2.54,2.5777,2.5777,2.5084,2.4659,2.4659,2.3734,2.3299,2.3256,2.3188,2.3101,3.4556,3.4775,3.4775,3.4775,3.4775,3.4775,3.4775,3.4438,0.0,0.0,3.451,3.4366,3.4727,3.4847,3.4895,3.4799,0.0,0.0,0.0,0.0,3.4967,0.0,0.0,0.0,0.0,0.0,0.0,0.0,3.7853,3.7239,3.5908,3.5172,3.3473,3.0548,3.0047,2.9303,2.8228,2.8228,2.8228,2.8301,2.8301,2.8301,2.8301,2.8301,2.8301,2.8301,2.8228,2.7955,2.7467,2.7117,2.6618,2.6131,2.583,2.5693,2.5645,2.5645,2.5645,2.5645,2.5596,2.5577,2.5596,2.543,2.5528,2.5674,2.5644,2.5312,2.4863,2.4434,2.4004,2.3594,2.3198,2.3101,2.3101,2.3101,2.3101,2.3101,2.3101,2.3101,2.3101,2.3101,2.3101,2.3101,2.3101,2.3101,2.3101,2.3101,2.3101,2.3387,2.4166,2.4251,2.4251,2.4251,2.4914,2.54,2.5568,2.5568,2.5568,2.5568,2.5694,2.5735,2.5568,2.5694,2.5777,2.5777,2.5652,2.5568,2.5568,2.4701,2.4251,2.4251,2.3474,2.3101,3.3819,3.436,3.4775,3.4775,3.4775,3.4703,3.4438,0.0,0.0,0.0,3.3982,3.4078,3.4318,0.0,0.0,0.0,0.0,0.0,0.0,0.0,0.0,0.0,0.0,0.0,0.0,0.0,3.7974,3.7974,3.7974,3.7642,3.6773,3.5497,3.3821,3.1688,3.0484,2.967,2.9164,2.8601,2.8301,2.8301,2.8301,2.8301,2.8301,2.8301,2.8301,2.8301,2.8301,2.8047,2.7689,2.7187,2.6657,2.6129,2.582,2.5577,2.5499,2.5645,2.5693,2.5693,2.5693,2.5693,2.5693,2.5547,2.5596,2.5693,2.5693,2.543,2.498,2.4531,2.4121,2.3691,2.3198,2.3101,2.3101,2.3101,2.3101,2.3101,2.3101,2.3101,2.3101,2.3101,2.3101,2.3276,2.3734,2.382,2.3993,2.4445,2.4102,2.4145,2.5084,2.5168,2.5168,2.5168,2.5526,2.5986,2.6505,2.6547,2.6547,2.6547,2.6958,2.6999,2.6547,2.6958,2.7203,2.7203,2.6753,2.6547,2.6547,2.5631,2.5168,2.5168,2.4231,2.382,3.3051,3.3819,3.4531,3.4726,3.4775,3.4631,3.4102,3.391,0.0,0.0,3.3597,3.3862,3.3958,0.0,0.0,0.0,0.0,0.0,0.0,0.0,0.0,0.0,0.0,0.0,0.0,3.7974,0.0,3.7974,3.7974,3.7878,3.7661,3.5835,3.4285,3.3224,3.1308,3.012,2.9932,2.8847,2.8301,2.8301,2.8301,2.8301,2.8301,2.8301,2.8301,2.8301,2.8301,2.8105,2.7806,2.7226,2.6715,2.6164,2.5839,2.5577,2.543,2.5645,2.5693,2.5693,2.5693,2.5693,2.5693,2.5693,2.5693,2.5693,2.5693,2.5488,2.5117,2.4687,2.4258,2.3828,2.3354,2.3159,2.3101,2.3101,2.3101,2.3101,2.3101,2.3101,2.3101,2.3101,2.3101,2.3387,2.4317,2.4488,2.4787,2.5652,2.521,2.5084,2.5986,2.6069,2.6152,2.6359,2.6359,2.667,2.7429,2.747,2.747,2.747,2.8139,2.8179,2.751,2.8139,2.8522,2.8522,2.7857,2.747,2.747,2.6547,2.5986,2.5777,2.4914,2.4402,3.2627,3.325,3.3549,3.458,3.4775,3.4631,3.4102,0.0,0.0,3.3308,3.3332,3.3501,3.391,3.4414,3.4775,0.0,0.0,0.0,0.0,0.0,0.0,0.0,0.0,0.0,0.0,3.7974,3.7974,3.7974,3.7974,3.7565,3.6603,3.5333,3.4182,3.3224,3.2072,3.0949,2.9911,2.8847,2.8301,2.8301,2.8301,2.8301,2.8301,2.8301,2.8301,2.8301,2.8301,2.8262,2.8164,2.7344,2.6941,2.6824,2.6005,2.5693,2.5693,2.5693,2.5693,2.5693,2.5693,2.5693,2.5693,2.5693,2.5693,2.5693,2.5693,2.5654,2.5586,2.5137,2.4687,2.4258,2.3848,2.3437,2.3101,2.3101,2.3101,2.3101,2.3101,2.3101,2.3101,2.3101,2.3101,2.3387,2.4317,2.4488,2.4787,2.5652,2.5735,2.6027,2.6958,2.7062,2.7389,2.8179,2.8259,2.8299,2.8379,2.8379,2.8379,2.8379,2.8459,2.8459,2.8379,2.8459,2.8522,2.8522,2.8419,2.8379,2.8379,2.751,2.6629,2.5777,2.4914,2.4036,3.1,3.2174,3.33,3.372,3.4311,3.4607,3.3789,0.0,3.3116,3.2488,3.2587,3.2971,3.3477,3.3958,3.4414,0.0,0.0,0.0,0.0,0.0,0.0,0.0,0.0,0.0,0.0,0.0,3.7974,3.7974,3.7974,3.7517,3.6459,3.5928,3.5227,3.4211,3.3101,3.2022,3.0949,2.9828,2.8953,2.8301,2.8301,2.8301,2.8301,2.8301,2.8301,2.8301,2.8301,2.8301,2.8242,2.7656,2.7246,2.6953,2.6367,2.5977,2.5693,2.5693,2.5693,2.5693,2.5693,2.5693,2.5693,2.5693,2.5693,2.5693,2.5693,2.5693,2.5644,2.5195,2.4746,2.4316,2.3906,2.3457,2.3101,2.3101,2.3101,2.3101,2.3101,2.3101,2.3101,2.3101,2.356,2.4231,2.5126,2.5757,2.6423,2.7284,2.6958,2.6958,2.7898,2.751,2.751,2.8419,2.8522,2.8522,2.8522,2.8522,2.8522,2.8522,2.8522,2.8522,2.8522,2.8522,2.8522,2.8522,2.8522,2.8522,2.8522,2.8139,2.7794,2.7406,2.6547,2.5631,2.9786,3.1308,3.2801,3.3101,3.3899,3.4366,0.0,0.0,3.2779,3.191,3.2106,3.2659,3.3188,3.3693,3.4174,0.0,0.0,0.0,0.0,0.0,0.0,0.0,0.0,3.6819,0.0,3.7974,3.7974,3.7974,3.7974,3.7517,3.6459,3.6411,3.593,3.4799,3.377,3.2851,3.2095,3.0639,2.9513,2.8761,2.8441,2.8301,2.8301,2.8301,2.8301,2.8301,2.8301,2.8301,2.8262,2.7885,2.7402,2.6973,2.6562,2.6113,2.5693,2.5693,2.5693,2.5693,2.5693,2.5693,2.5693,2.5693,2.5693,2.5693,2.5693,2.5693,2.5615,2.5352,2.4863,2.4297,2.373,2.3379,2.3101,2.3101,2.3101,2.3101,2.3101,2.3101,2.3101,2.3101,2.3864,2.4787,2.5652,2.6588,2.751,2.8379,2.7978,2.7817,2.8419,2.7978,2.7794,2.8419,2.8522,2.8522,2.8522,2.8522,2.8522,2.8522,2.8522,2.8522,2.8522,2.8522,2.8522,2.8522,2.8522,2.8522,2.8522,2.8522,2.8379,2.8099,2.7551,2.667,2.9495,3.0742,3.1869,3.2951,3.364,3.3862,0.0,0.0,3.2346,3.1813,3.2106,3.2659,3.3188,3.3693,3.4174,3.4703,3.4775,0.0,0.0,0.0,0.0,0.0,0.0,3.6819,3.7878,3.7974,3.7974,3.7974,3.7974,3.7517,3.6459,3.6411,3.593,3.4799,3.377,3.3201,3.3201,3.1,2.9859,2.988,2.8794,2.8301,2.8301,2.8301,2.8301,2.8301,2.8301,2.8301,2.8262,2.7885,2.7402,2.6973,2.6562,2.6113,2.5693,2.5693,2.5693,2.5693,2.5693,2.5693,2.5693,2.5693,2.5693,2.5693,2.5693,2.5693,2.5693,2.5674,2.505,2.4219,2.3315,2.3101,2.3101,2.3101,2.3101,2.3101,2.3101,2.3101,2.3101,2.3101,2.3864,2.4787,2.5652,2.6588,2.751,2.8379,2.8483,2.8483,2.8522,2.8483,2.8483,2.8522,2.8522,2.8522,2.8522,2.8522,2.8522,2.8522,2.8522,2.8522,2.8522,2.8522,2.8522,2.8522,2.8522,2.8522,2.8522,2.8522,2.8059,2.7226,2.7406,2.6625,2.8284,2.9963,3.1666,3.2044,3.3079,3.3862,3.3404,0.0,3.2346,3.1813,3.1862,3.2202,3.3116,3.3428,3.3813,3.4631,3.4775,0.0,0.0,0.0,0.0,0.0,0.0,3.7613,0.0,3.7974,3.7974,3.7974,3.7974,3.7517,3.6459,3.6411,3.593,3.4799,3.4482,3.3967,3.3201,3.1768,3.0639,2.988,2.8794,2.8301,2.8301,2.8301,2.8301,2.8301,2.8301,2.8301,2.8281,2.8144,2.7851,2.7422,2.6992,2.6562,2.6152,2.581,2.5693,2.5693,2.5693,2.5693,2.5693,2.5693,2.5693,2.5693,2.5693,2.5693,2.5557,2.5,2.4582,2.4219,2.3315,2.3101,2.3101,2.3101,2.3101,2.3101,2.3101,2.3101,2.3299,2.395,2.4787,2.5652,2.6588,2.751,2.8179,2.8459,2.8522,2.8522,2.8522,2.8522,2.8522,2.8522,2.8522,2.8522,2.8522,2.8522,2.8522,2.8522,2.8522,2.8522,2.8522,2.8522,2.8522,2.8522,2.8657,2.8736,2.8736,2.8855,2.8776,2.8474,2.7931,2.718,0.0,2.9208,3.104,3.104,3.2259,0.0,0.0,0.0,3.2082,3.1789,3.1886,3.225,3.3116,3.3452,3.3837,3.4703,3.4775,0.0,0.0,0.0,0.0,0.0,0.0,0.0,0.0,3.7974,3.7974,3.7974,3.7974,3.7517,3.6459,3.6411,3.593,3.4799,3.4775,3.4482,3.3819,3.275,3.1615,3.0535,2.9408,2.8708,2.8301,2.8301,2.8301,2.8301,2.8301,2.8301,0.0,2.8301,2.8047,2.7669,2.7187,2.6758,2.6328,2.5849,2.5693,2.5693,2.5693,2.5693,2.5693,2.5693,2.5693,2.5693,2.5693,2.5693,2.5538,2.4863,2.4551,2.4258,2.353,2.3218,2.3101,2.3101,2.3343,2.3517,2.3188,2.3387,2.382,2.4402,2.5189,2.6069,2.7062,2.7938,2.8522,2.8522,2.8522,2.8522,2.8522,2.8522,2.8522,2.8522,2.8522,2.8522,2.8522,2.8522,2.8522,2.8522,2.8522,2.8522,2.8522,2.8522,2.8522,2.8522,2.8618,2.8736,2.8791,2.9013,2.9131,2.9184,2.8331,2.773,0.0,2.8475,3.0095,3.0095,3.1341,3.2491,0.0,0.0,0.0,0.0,3.213,3.2683,3.3236,3.3717,3.4174,3.4703,3.4775,0.0,0.0,0.0,0.0,0.0,3.7685,0.0,3.7974,3.7974,3.7974,3.7974,3.7974,3.7517,3.6459,3.6411,3.593,3.4799,3.4775,3.4775,3.4775,3.377,3.265,3.1586,3.0432,2.9375,2.8301,2.8301,2.8301,2.8301,2.8301,2.8301,2.8301,2.8301,2.8066,2.7708,2.7187,2.6777,2.6367,2.5849,2.5693,2.5693,2.5693,2.5693,2.5693,2.5693,2.5693,2.5693,2.5693,2.5693,2.5644,2.5195,2.4793,2.4408,2.3906,2.3501,2.3188,2.3144,2.3777,2.4166,2.3387,2.3864,2.4531,2.4659,2.5337,2.6193,2.7144,2.7978,2.8522,2.8522,2.8522,2.8522,2.8522,2.8522,2.8522,2.8522,2.8522,2.8522,2.8522,2.8522,2.8522,2.8522,2.8522,2.8522,2.8522,2.8522,2.8522,2.8522,2.8522,2.8657,2.887,2.9052,2.9248,2.9419,2.8569,2.8291,2.5966,0.0,3.0095,3.0095,3.1341,3.2491,0.0,0.0,0.0,0.0,0.0,0.0,0.0,0.0,3.4174,3.4703,3.4775,3.4919,0.0,0.0,0.0,3.7709,3.7902,3.7974,3.7974,3.7974,3.7974,3.7974,3.7974,3.7517,3.6459,3.6411,3.593,3.4799,3.4775,3.4775,3.4775,3.377,3.265,3.1586,3.0432,2.9375,2.8301,2.8301,2.8301,2.8301,2.8301,2.8301,2.8301,2.8301,2.8242,2.8066,2.7305,2.6953,2.6777,2.5966,2.5693,2.5693,2.5693,2.5693,2.5693,2.5693,2.5693,2.5693,2.5693,2.5693,2.5644,2.5195,2.5305,2.5209,2.4067,2.3987,2.3993,2.3256,2.3256,2.356,2.4079,2.4317,2.4914,2.6299,2.6712,2.7144,2.8059,2.8339,2.8522,2.8522,2.8522,2.8522,2.8522,2.8522,2.8522,2.8522,2.8522,2.8522,2.8522,2.8522,2.8522,2.8522,2.8522,2.8522,2.8522,2.8522,2.8522,2.8522,2.8776,2.9131,2.9585,2.9624,2.9663,2.9702,2.9507,2.9091,2.6284,2.7887,2.9467,2.9467,3.079,3.2178,3.2442,0.0,0.0,0.0,0.0,0.0,0.0,0.0,0.0,0.0,3.504,0.0,0.0,0.0,0.0,3.7926,3.7974,3.7974,3.7974,3.7974,3.7974,3.7974,3.7757,3.7252,3.6459,3.617,3.5665,3.4847,3.4775,3.4775,3.4775,3.4213,3.3151,3.1564,3.0949,2.9828,2.8301,2.8301,2.8301,2.8301,2.8301,2.8301,2.8301,2.8301,2.8301,2.8223,2.7578,2.7187,2.6934,2.6269,2.5849,2.5693,2.5693,2.5693,2.5693,2.5693,2.5693,2.5693,2.5693,2.5693,2.5635,2.5449,2.5605,2.5612,2.4892,2.4898,2.4956,2.4445,2.4659,2.4999,2.5084,2.5421,2.6049,2.7021,2.7185,2.747,2.8339,2.8522,2.8522,2.8522,2.8522,2.8522,2.8522,2.8522,2.8522,2.8522,2.8522,2.8522,2.8522,2.8522,2.8522,2.8522,2.8522,2.8522,2.8522,2.8522,2.8522,2.8522,2.8816,2.9131,2.9468,2.9585,2.9702,2.9804,2.9804,2.9546,2.6914,2.7977,2.8836,2.9022,3.0421,3.1982,3.2491,0.0,0.0,0.0,0.0,0.0,0.0,0.0,0.0,0.0,0.0,0.0,0.0,0.0,3.7469,3.7926,3.7974,3.7974,3.7974,3.7974,3.7974,3.7974,3.7493,3.6964,3.6435,3.5905,3.5376,3.4799,3.4775,3.4775,3.4775,3.4775,3.3819,3.1819,3.1688,3.0557,2.8548,2.8388,2.8301,2.8301,2.8301,2.8301,2.8301,2.8301,2.8301,2.8262,2.7885,2.7402,2.6973,2.6543,2.6113,2.5693,2.5693,2.5693,2.5693,2.5693,2.5693,2.5693,2.5693,2.5693,2.5693,2.5693,2.5873,2.6118,2.6034,2.6087,2.6074,2.5841,2.6423,2.6794,2.6152,2.6629,2.7226,2.7389,2.7389,2.7632,2.8379,2.8522,2.8522,2.8522,2.8522,2.8522,2.8522,2.8522,2.8522,2.8522,2.8522,2.8522,2.8522,2.8522,2.8522,2.8522,2.8522,2.8522,2.8522,2.8522,2.8498,2.8538,2.8736,2.891,2.917,2.9302,2.956,2.9804,2.9804,2.9804,2.6914,2.8279,2.9598,3.0418,3.1504,3.2515,0.0,0.0,0.0,0.0,0.0,0.0,0.0,0.0,0.0,0.0,0.0,3.6507,0.0,0.0,3.7878,3.7974,3.7974,3.7974,3.7974,3.7974,3.7974,3.7974,3.7493,3.6964,3.6435,3.5905,3.5376,3.4799,3.4775,3.4775,3.4775,3.4775,3.4164,3.2951,3.2022,3.0918,2.9618,2.8708,2.8301,2.8301,2.8301,2.8301,2.8301,2.8301,2.8301,2.8262,2.7885,2.7402,2.6973,2.6543,2.6113,2.5693,2.5693,2.5693,2.5693,2.5693,2.5693,2.5693,2.5693,2.5693,2.5693,2.5693,2.6613,2.7493,2.7148,2.7364,2.7356,2.6096,2.5902,2.6216,2.6835,2.7103,2.7429,2.8179,2.8299,2.8339,2.8483,2.8522,2.8522,2.8522,2.8522,2.8522,2.8522,2.8522,2.8522,2.8522,2.8522,2.8522,2.8522,2.8522,2.8522,2.8522,2.8522,2.8522,2.8522,2.8522,2.8578,2.8752,2.8791,2.8988,2.9341,2.938,2.956,2.9804,2.9804,2.9804,2.8004,2.9111,3.0267,3.2135,3.2791,3.3068,3.3573,0.0,0.0,0.0,0.0,0.0,0.0,0.0,0.0,0.0,0.0,3.7012,3.7541,3.7829,3.7974,3.7974,3.7974,3.7974,3.7974,3.7974,3.7974,3.7974,3.7228,3.6675,3.6411,3.5641,3.5039,3.4799,3.4775,3.4775,3.4775,3.4775,3.4262,3.3201,3.2095,3.1,2.9859,2.9408,2.8847,2.8354,2.89,2.8847,2.8301,2.8301,2.8301,2.8281,2.8086,2.7734,2.7285,2.6621,2.6113,2.5693,2.5693,2.5693,2.5693,2.5693,2.5693,2.5693,2.5693,2.5693,2.582,2.638,2.7196,2.7805,2.7347,2.7946,2.8469,2.7504,2.7244,2.7366,2.7794,2.7874,2.8018,2.8419,2.8522,2.8522,2.8522,2.8522,2.8522,2.8522,2.8522,2.8522,2.8522,2.8522,2.8522,2.8522,2.8522,2.8522,2.8522,2.8522,2.8522,2.8522,2.8522,2.8522,2.8522,2.8522,2.8538,2.8657,2.8657,2.8855,2.9248,2.9248,2.9443,2.9804,2.9804,2.9804,2.9048,2.9947,3.0874,3.3386,3.3741,3.3597,3.4054,0.0,0.0,0.0,0.0,0.0,0.0,0.0,0.0,3.6411,3.694,3.7372,3.7902,3.7974,3.7974,3.7974,3.7974,3.7974,3.7974,3.7974,3.7974,3.7974,3.7012,3.6411,3.6411,3.54,3.4775,3.4775,3.4775,3.4775,3.4775,3.4775,3.436,3.3549,3.2246,3.1154,3.0276,3.0016,2.9303,2.8335,2.9408,2.9408,2.8654,2.8388,2.8441,2.8654,2.8388,2.7969,2.7422,2.666,2.6113,2.5693,2.5693,2.5693,2.5693,2.5693,2.5693,2.5693,2.5693,2.5693,2.5868,2.6648,2.7446,2.8003,2.7591,2.8464,2.9316,2.8667,2.8522,2.8522,2.8522,2.8522,2.8522,2.8522,2.8522,2.8522,2.8522,2.8522,2.8522,2.8522,2.8522,2.8522,2.8522,2.8522,2.8522,2.8522,2.8522,2.8522,2.8522,2.8522,2.8522,2.8522,2.8522,2.8522,2.8522,2.8522,2.8522,2.8522,2.8522,2.8697,2.9091,2.9091,2.9351,2.9804,2.9804,2.9804,2.9385,3.0428,3.1345,3.3481,3.3958,0.0,3.4607,3.4727,0.0,0.0,0.0,0.0,0.0,0.0,3.5905,3.6964,3.7156,3.7372,3.7902,3.7974,3.7974,3.7974,3.7974,3.7974,3.7974,3.7974,3.7974,3.7974,3.7012,3.6411,3.6411,3.54,3.4775,3.4775,3.4775,3.4775,3.4775,3.4775,3.4775,3.4677,3.26,3.1586,3.141,3.038,2.9303,2.8335,2.9408,2.988,2.9723,2.8708,2.89,2.967,2.8708,2.7793,2.7012,2.6562,2.6113,2.5693,2.5693,2.5693,2.5693,2.5693,2.5693,2.5693,2.5693,2.5693,2.5742,2.5791,2.7179,2.8602,2.8515,2.9253,2.9773,2.8763,2.8522,2.8522,2.8522,2.8522,2.8522,2.8522,2.8522,2.8522,2.8522,2.8522,2.8522,2.8522,2.8522,2.8522,2.8522,2.8522,2.8522,2.8522,2.8522,2.8522,2.8522,2.8522,2.8522,2.8522,2.8522,2.8522,2.8522,2.8522,2.8522,2.8522,2.8522,2.8697,2.9091,2.9091,2.9351,2.9804,2.9804,2.9804,2.9161,3.0428,3.1655,3.3123,0.0,0.0,0.0,0.0,0.0,0.0,0.0,0.0,0.0,0.0,3.6723,3.7132,3.7469,3.7757,3.795,3.7974,3.7974,3.7974,3.7974,3.7974,3.7974,3.7974,3.7974,3.7974,3.73,3.6747,3.6411,3.5713,3.5111,3.4799,3.4775,3.4775,3.4775,3.4775,3.4775,3.4775,3.33,3.2246,3.1586,3.1154,2.9984,2.8335,2.9408,2.9513,2.8847,2.8441,2.8548,2.8847,2.8441,2.7773,2.6992,2.6836,2.6348,2.5693,2.5693,2.5693,2.5693,2.5693,2.5693,2.5693,2.5693,2.5693,2.5693,2.5693,2.7173,2.862,2.8277,2.9124,2.9893,2.9172,2.8739,2.8522,2.8522,2.8522,2.8522,2.8522,2.8522,2.8522,2.8522,2.8522,2.8522,2.8522,2.8522,2.8522,2.8522,2.8522,2.8522,2.8522,2.8522,2.8522,2.8522,2.8522,2.8522,2.8522,2.8522,2.8522,2.8522,2.8618,2.8697,2.8697,2.8816,2.9013,2.9263,2.9263,2.9443,2.9804,2.9804,2.9804,2.9589,3.0815,3.1942,0.0,0.0,0.0,0.0,0.0,0.0,0.0,0.0,0.0,0.0,0.0,0.0,0.0,3.7733,3.7974,3.7974,3.7974,3.7974,3.7974,3.7974,3.7974,3.7974,3.7974,3.7974,3.7974,3.7493,3.6964,3.6435,3.5905,3.5376,3.4799,3.4775,3.4775,3.4775,3.4775,3.4775,3.4775,3.4066,3.2951,3.1586,3.1586,3.0608,2.8847,2.9565,2.967,2.927,2.8601,2.8301,2.8301,2.8301,2.7773,2.7012,2.7012,2.6484,2.5693,2.5693,2.5693,2.5693,2.5693,2.5693,2.5693,2.5693,2.5693,2.5693,2.5693,2.6935,2.8222,2.8174,2.923,3.0158,2.946,2.9027,2.8715,2.8546,2.8522,2.8522,2.8522,2.8522,2.8522,2.8522,2.8522,2.8522,2.8522,2.8522,2.8522,2.8522,2.8522,2.8522,2.8522,2.8522,2.8522,2.8522,2.8522,2.8522,2.8522,2.8538,2.8578,2.8578,2.8736,2.8831,2.887,2.9013,2.9209,2.9419,2.9419,2.956,2.9804,2.9804,2.9804,3.0841,3.1586,3.2095,0.0,0.0,0.0,0.0,0.0,0.0,0.0,0.0,0.0,0.0,0.0,0.0,3.7902,3.7974,3.7974,3.7974,3.7974,3.7974,3.7974,3.7974,3.7974,3.7974,3.7974,3.7974,3.7974,3.7493,3.6964,3.6435,3.5905,3.5376,3.4799,3.4775,3.4775,3.4775,3.4775,3.4775,3.4775,3.4775,3.3671,3.1637,3.1586,3.0949,2.9932,2.9859,3.0535,3.141,2.9217,2.8301,2.8281,2.8301,2.7773,2.7031,2.7012,2.6484,2.5693,2.5693,2.5693,2.5693,2.5693,2.5693,2.5693,2.5693,2.5693,2.5693,2.5693,2.6408,2.7463,2.8448,2.9802,3.0657,2.9556,2.9316,2.9172,2.8643,2.8522,2.8522,2.8522,2.8522,2.8522,2.8522,2.8522,2.8522,2.8522,2.8522,2.8522,2.8522,2.8522,2.8522,2.8522,2.8522,2.8522,2.8522,2.8522,2.8522,2.8522,2.8697,2.8791,2.8791,2.8791,2.887,2.9091,2.9091,2.9209,2.9419,2.9419,2.956,2.9804,2.9804,2.9804,2.9092,3.0401,0.0,0.0,0.0,0.0,0.0,0.0,0.0,0.0,0.0,3.7132,3.7637,3.7733,0.0,3.795,3.7974,3.7974,3.7974,3.7974,3.7974,3.7974,3.7974,3.7974,3.7974,3.7974,3.7974,3.7974,3.7829,3.7348,3.6459,3.6266,3.5761,3.4799,3.4775,3.4775,3.4775,3.4775,3.4775,3.4775,3.4775,3.4066,3.27,3.192,3.1432,3.1,2.946,2.9375,3.0276,2.8847,2.8741,2.9355,2.8601,2.7949,2.7441,2.7129,2.666,2.6152,2.5791,2.5693,2.5693,2.5693,2.5693,2.5693,2.5693,2.5693,2.5868,2.6552,2.7484,2.8495,2.9464,3.0617,3.1308,3.0567,3.0134,2.9821,2.9653,2.9629,2.9629,2.9629,2.9629,2.9629,2.9629,2.9629,2.9484,2.9124,2.9051,2.8931,2.857,2.8522,2.8522,2.8522,2.8522,2.8538,2.8697,2.8736,2.8776,2.8895,2.8973,2.8973,2.8791,2.9067,2.9263,2.9302,2.9507,2.9624,2.9702,2.9702,2.9702,2.9804,2.9804,3.0005,2.8854,0.0,0.0,0.0,0.0,0.0,0.0,0.0,0.0,0.0,0.0,3.7613,3.7926,3.7974,3.7974,3.7974,3.7974,3.7974,3.7974,3.7974,3.7974,3.7974,3.7974,3.7974,3.7974,3.7974,3.7974,3.7974,3.7974,3.7613,3.6771,3.6507,3.6026,3.5111,3.4895,3.4775,3.4775,3.4775,3.4775,3.4775,3.4775,3.4482,3.377,3.2297,3.1841,3.2145,3.0401,2.9723,2.9828,2.8761,2.8708,2.9217,2.8548,2.8027,2.7669,2.7168,2.6758,2.6328,2.5849,2.5693,2.5693,2.5693,2.5693,2.5693,2.5693,2.5693,2.582,2.6408,2.7342,2.8355,2.9326,3.0351,3.1063,3.0956,3.0639,3.035,3.0134,3.0086,3.0086,3.0086,3.0086,3.0086,3.0086,3.0086,2.9989,2.9653,2.9436,2.9172,2.8859,2.8643,2.8522,2.8522,2.8522,2.8578,2.8791,2.8791,2.887,2.9091,2.917,2.9145,2.9028,2.9263,2.9457,2.956,2.9702,2.9804,2.9804,2.9804,2.9804,2.9804,2.9804,3.008,2.9623,0.0,0.0,0.0,0.0,0.0,0.0,0.0,0.0,0.0,0.0,3.7974,3.7974,3.7974,3.7974,3.7974,3.7974,3.7974,3.7974,3.7974,3.7974,3.7974,3.7974,3.7974,3.7974,3.7974,3.7974,3.7974,3.7974,3.7757,3.7228,3.6699,3.617,3.5641,3.5112,3.4775,3.4775,3.4775,3.4775,3.4775,3.4775,3.4775,3.4726,3.27,3.2246,3.3001,3.192,3.0897,2.9984,2.89,2.8441,2.8441,2.8441,2.8153,2.7708,2.7187,2.6777,2.6387,2.5898,2.5693,2.5693,2.5693,2.5693,2.5693,2.5693,2.5693,2.5742,2.5917,2.6552,2.7463,2.868,2.9555,3.0325,3.083,3.0995,3.085,3.0326,3.023,3.023,3.023,3.023,3.023,3.023,3.023,3.0206,3.0158,2.9701,2.9364,2.9364,2.8955,2.8643,2.8643,2.8643,2.8723,2.8937,2.8937,2.9041,2.9278,2.9401,2.9493,2.9493,2.9443,2.956,2.9804,2.9804,2.9804,2.9804,2.9804,2.9804,2.9804,2.9804,3.0105,0.0,3.0359,0.0,0.0,0.0,0.0,0.0,0.0,0.0,3.795,3.7974,3.7974,3.7974,3.7974,3.7974,3.7974,3.7974,3.7974,3.7974,3.7974,3.7974,3.7974,3.7974,3.7974,3.7974,3.7974,3.7974,3.7974,3.7974,3.7757,3.7228,3.6699,3.617,3.5641,3.5112,3.4775,3.4775,3.4775,3.4775,3.4775,3.4775,3.4775,3.4775,3.3449,3.2549,3.1869,3.0742,3.0639,3.1154,3.0037,2.9565,2.9565,2.9565,2.8999,2.8066,2.7305,2.6953,2.6777,2.5947,2.5693,2.5693,2.5693,2.5693,2.5693,2.5693,2.5693,2.6014,2.7626,2.7652,2.7793,3.0396,3.0621,3.0418,3.1328,3.1548,3.15,3.1404,3.138,3.138,3.138,3.138,3.138,3.138,3.138,3.1235,3.0802,3.0254,2.9917,2.9917,2.9821,2.9749,2.9749,2.9749,2.9915,3.0327,3.0162,3.0286,3.0873,3.0328,3.0104,3.0353,2.9927,2.974,2.9804,2.9804,2.9804,2.9804,2.9804,2.9804,2.9804,2.9804,3.0306,0.0,0.0,0.0,0.0,0.0,0.0,0.0,0.0,0.0,3.7974,3.7974,3.7974,3.7974,3.7974,3.7974,3.7974,3.7974,3.7974,3.7974,3.7974,3.7974,3.7974,3.7974,3.7974,3.7974,3.7974,3.7974,3.7974,3.7974,3.7853,3.7589,3.706,3.6531,3.6002,3.5473,3.5088,3.4775,3.4775,3.4775,3.4775,3.4775,3.4775,3.4775,3.3697,3.26,3.1586,3.0949,3.0742,3.0742,3.012,2.9618,2.9112,2.9112,2.8794,2.8184,2.7324,2.7012,2.6894,2.5986,2.5693,2.5693,2.5693,2.5693,2.5693,2.5693,2.5693,2.6014,2.7558,2.7934,2.8402,3.0441,3.0958,3.1048,3.156,3.1717,3.1717,3.1717,3.1717,3.1717,3.1717,3.1717,3.1717,3.1717,3.1717,3.1621,3.1332,3.085,3.047,3.047,3.0254,3.0086,3.0086,3.0086,3.0253,3.057,3.0487,3.0629,3.1207,3.0891,3.0717,3.0984,3.0708,3.0306,2.9804,2.9804,2.9804,2.9804,2.9804,2.9804,2.9804,3.0055,3.0608,0.0,0.0,0.0,0.0,0.0,0.0,0.0,0.0,0.0,3.7974,3.7974,3.7974,3.7974,3.7974,3.7974,3.7974,3.7974,3.7974,3.7974,3.7974,3.7974,3.7974,3.7974,3.7974,3.7974,3.7974,3.7974,3.7974,3.7974,3.7974,3.7974,3.7469,3.694,3.6411,3.5881,3.5352,3.4799,3.4775,3.4775,3.4775,3.4775,3.4775,3.4775,3.3697,3.275,3.1891,3.1666,3.1051,3.0172,3.0172,2.9565,2.8601,2.8814,2.8654,2.8256,2.7609,2.7224,2.6914,2.6133,2.5752,2.5693,2.5693,2.5693,2.5693,2.5693,2.5693,2.5965,2.7152,2.7934,2.8773,3.0125,3.0958,3.1472,3.1673,3.1717,3.1717,3.1717,3.1717,3.1717,3.1717,3.1717,3.1717,3.1717,3.1717,3.1717,3.1717,3.1332,3.1043,3.1043,3.0639,3.0374,3.0374,3.0374,3.0459,3.067,3.0628,3.0838,3.1298,3.1241,3.1249,3.1414,3.1395,3.0984,3.0041,2.998,2.993,2.993,2.993,2.993,2.9955,3.0507,3.1035,0.0,0.0,0.0,0.0,0.0,0.0,0.0,0.0,3.7974,0.0,3.7974,3.7974,3.7974,3.7974,3.7974,3.7974,3.7974,3.7974,3.7974,3.7974,3.7974,3.7974,3.7974,3.7974,3.7974,3.7974,3.7974,3.7974,3.7974,3.7974,3.7974,3.7469,3.694,3.6411,3.5881,3.5352,3.4799,3.4775,3.4775,3.4775,3.4775,3.4775,3.4775,3.3697,3.3101,3.2951,3.1971,3.1534,3.1381,3.1381,3.0691,2.9775,3.0742,2.9984,2.8329,2.8807,2.8126,2.6953,2.6465,2.6055,2.5693,2.5693,2.5693,2.5693,2.5693,2.5693,2.611,2.7981,2.7981,2.8028,3.0779,3.0958,3.0644,3.1472,3.1717,3.1717,3.1717,3.1717,3.1717,3.1717,3.1717,3.1717,3.1717,3.1717,3.1717,3.1717,3.1645,3.1597,3.1597,3.1548,3.15,3.15,3.15,3.1588,3.1763,3.1632,3.1719,3.2222,3.1754,3.1441,3.1484,3.1431,3.1254,3.0925,3.0613,3.0507,3.0507,3.0507,3.0507,3.0507,3.1035,3.1587,0.0,0.0,0.0,0.0,0.0,0.0,0.0,0.0,3.6543,3.6543,3.6859,3.7276,3.7878,3.7974,3.7974,3.7974,3.7974,3.7974,3.7974,3.7974,3.7974,3.7974,3.7974,3.7974,3.7974,3.7974,3.7974,3.7974,3.7974,3.7974,3.7974,3.7757,3.7397,3.6867,3.6338,3.5809,3.5231,3.4919,3.4775,3.4775,3.4775,3.4775,3.4775,3.4311,3.3449,3.2297,3.2448,3.1768,3.0691,3.133,3.0949,2.988,2.9775,2.9533,2.9104,2.8577,2.8186,2.7723,2.6774,2.6094,2.5693,2.5693,2.5693,2.5693,2.5693,2.5693,2.6014,2.7437,2.7934,2.8495,3.0351,3.0958,3.116,3.156,3.1717,3.1717,3.1717,3.1717,3.1717,3.1717,3.1717,3.1717,3.1717,3.1717,3.1717,3.1717,3.1717,3.1717,3.1717,3.1717,3.1717,3.1717,3.1717,3.1761,3.1981,3.1937,3.2069,3.255,3.2198,3.2118,3.2393,3.2212,3.2172,3.2214,3.1446,3.106,3.106,3.106,3.106,3.106,3.1612,3.1989,0.0,0.0,0.0,0.0,0.0,0.0,0.0,0.0,3.5054,0.0,3.5741,3.6367,3.756,3.7781,3.7829,3.795,3.7974,3.7974,3.7974,3.7974,3.7974,3.7974,3.7974,3.7974,3.7974,3.7974,3.7974,3.7974,3.7974,3.7974,3.7974,3.7974,3.7733,3.7204,3.6819,3.629,3.5617,3.5039,3.4775,3.4775,3.4775,3.4775,3.4775,3.4775,3.377,3.2044,3.2851,3.2123,3.038,3.1278,3.0949,2.988,2.9323,2.927,2.942,2.8906,2.8553,2.8238,2.7262,2.6498,2.583,2.5732,2.5693,2.5693,2.5693,2.5693,2.5917,2.6914,2.7746,2.8634,2.9897,3.0779,3.1383,3.1649,3.1717,3.1717,3.1717,3.1717,3.1717,3.1717,3.1717,3.1717,3.1717,3.1717,3.1717,3.1717,3.1717,3.1717,3.1717,3.1717,3.1717,3.1717,3.1717,3.1761,3.1981,3.1981,3.2157,3.2593,3.2506,3.2593,3.2896,3.2853,3.2853,3.2982,3.224,3.1738,3.1587,3.1587,3.1587,3.1612,3.2164,3.2441,0.0,0.0,0.0,0.0,0.0,0.0,0.0,0.0,3.4193,3.5161,3.509,3.5346,3.6976,3.7228,3.7397,3.7902,3.7974,3.7974,3.7974,3.7974,3.7974,3.7974,3.7974,3.7974,3.7974,3.7974,3.7974,3.7974,3.7974,3.7974,3.7974,3.7974,3.7733,3.7204,3.7156,3.6651,3.5617,3.5039,3.4775,3.4775,3.4775,3.4775,3.4775,3.4775,3.4164,3.3101,3.3201,3.2549,3.1534,3.1586,3.0949,3.0016,3.1,3.0193,2.8654,3.0618,2.988,2.7818,2.8309,2.7562,2.6289,2.583,2.5693,2.5693,2.5693,2.5693,2.5917,2.6914,2.7226,2.7746,2.9692,3.026,3.0531,3.1472,3.1717,3.1717,3.1717,3.1717,3.1717,3.1717,3.1717,3.1717,3.1717,3.1717,3.1717,3.1717,3.1717,3.1717,3.1717,3.1717,3.1717,3.1717,3.1717,3.1761,3.1981,3.1981,3.2113,3.24,3.2593,3.2593,3.2444,3.2853,3.2982,3.2723,3.2932,3.2717,3.2164,3.2164,3.2164,3.219,3.2767,3.3043,0.0,0.0,0.0,0.0,0.0,0.0,0.0,3.1948,3.2217,3.2652,3.3242,3.4042,3.4983,3.626,3.7372,3.7902,3.7974,3.7974,3.7974,3.7974,3.7974,3.7974,3.7974,3.7974,3.7974,3.7974,3.7974,3.7974,3.7974,3.7974,3.7974,3.7974,3.7902,3.7709,3.7372,3.6675,3.5617,3.5039,3.4775,3.4775,3.4775,3.4775,3.4775,3.4775,3.458,3.4164,3.2801,3.1942,3.1586,3.1586,3.0949,2.9911,3.0328,3.0037,2.9408,3.0245,3.0209,2.9644,2.8882,2.8078,2.7227,2.6074,2.5693,2.5693,2.5693,2.5693,2.5771,2.6139,2.6696,2.7369,2.8075,2.9235,3.0441,3.1472,3.1717,3.1717,3.1717,3.1717,3.1717,3.1717,3.1717,3.1717,3.1717,3.1717,3.1717,3.1717,3.1717,3.1717,3.1717,3.1717,3.1717,3.1717,3.1717,3.1761,3.1981,3.2181,3.2332,3.2593,3.268,3.2766,3.2878,3.2853,3.2896,3.2939,3.3025,3.2968,3.2767,3.2767,3.2767,3.2767,3.2993,3.3111,0.0,0.0,0.0,0.0,0.0,0.0,3.0098,0.0,3.0913,3.1134,3.1772,3.2683,3.3788,3.532,3.6668,3.7584,3.7853,3.7974,3.7974,3.7974,3.7974,3.7974,3.7974,3.7974,3.7974,3.7974,3.7974,3.7974,3.7974,3.7974,3.7974,3.7974,3.7974,3.7974,3.73,3.6603,3.5881,3.5184,3.4775,3.4775,3.4775,3.4775,3.4775,3.4775,3.4775,3.4677,3.2901,3.1942,3.1586,3.1176,3.0587,2.9932,2.9932,2.9932,2.9984,3.0328,3.0499,3.0514,3.0091,2.9282,2.8206,2.6899,2.6231,2.5937,2.5732,2.5693,2.5693,2.5693,2.6187,2.6771,2.7084,2.868,3.0351,3.1048,3.1472,3.1717,3.1717,3.1717,3.1717,3.1717,3.1717,3.1717,3.1717,3.1717,3.1717,3.1717,3.1717,3.1717,3.1717,3.1717,3.1717,3.1717,3.1717,3.1761,3.1981,3.2181,3.2376,3.268,3.2723,3.281,3.3068,3.2939,3.2896,3.3111,3.3111,3.3111,3.3111,3.3111,3.3111,3.3111,3.3111,3.3111,0.0,0.0,0.0,0.0,0.0,0.0,3.0078,3.0176,3.0399,3.0997,3.0892,3.1307,3.3498,3.4395,3.5318,3.69,3.7637,3.7974,3.7974,3.7974,3.7974,3.7974,3.7974,3.7974,3.7974,3.7974,3.7974,3.7974,3.7974,3.7974,3.7974,3.7974,3.7974,3.7974,3.6964,3.6411,3.6411,3.5376,3.4799,3.4775,3.4775,3.4775,3.4775,3.4775,3.4775,3.4726,3.3671,3.26,3.1564,3.0432,2.9932,2.9932,2.9932,2.9932,3.0016,3.1154,3.0897,3.0213,3.1937,3.1164,2.9256,2.8312,2.7308,2.6378,2.5879,2.5713,2.5713,2.5693,2.5742,2.5965,2.6962,2.868,3.0125,3.017,3.0958,3.1649,3.1693,3.1717,3.1717,3.1717,3.1717,3.1717,3.1717,3.1717,3.1717,3.1717,3.1717,3.1717,3.1717,3.1717,3.1717,3.1717,3.1717,3.1761,3.1981,3.1981,3.2201,3.2636,3.268,3.281,3.3068,3.3068,3.3068,3.3111,3.3111,3.3111,3.3111,3.3111,3.3111,3.3111,3.3111,3.3111,2.8379,0.0,0.0,0.0,0.0,0.0,2.9648,2.9746,2.9898,3.0356,3.0762,3.1254,3.1826,3.3768,3.5396,3.5852,3.7086,3.7974,3.7974,3.7974,3.7974,3.7974,3.7974,3.7974,3.7974,3.7974,3.7974,3.7974,3.7974,3.7974,3.7974,3.7974,3.7974,3.7974,3.7324,3.6795,3.6411,3.5737,3.5159,3.4775,3.4775,3.4775,3.4775,3.4775,3.4775,3.4726,3.3671,3.3051,3.27,3.1564,3.0639,2.9984,3.0794,3.0639,3.0016,3.1154,3.1432,3.1141,3.1318,3.1511,3.1323,2.9162,2.8231,2.7772,2.6576,2.6211,2.6133,2.5771,2.6235,2.701,2.8028,2.8168,2.8402,2.9829,3.0396,3.0824,3.1516,3.1717,3.1717,3.1717,3.1717,3.1717,3.1717,3.1717,3.1717,3.1717,3.1717,3.1717,3.1717,3.1717,3.1717,3.1717,3.1717,3.1717,3.1761,3.1893,3.2069,3.2201,3.2376,3.2593,3.281,3.281,3.2896,3.3111,3.3111,3.3111,3.3111,3.3111,3.3111,3.3111,3.3111,3.3111,0.0,0.0,0.0,0.0,0.0,0.0,2.9238,2.957,2.9844,2.9922,3.037,3.0843,3.1155,3.2726,3.4139,3.4571,3.6102,3.7441,3.7921,3.7974,3.7974,3.7974,3.7974,3.7974,3.7974,3.7974,3.7974,3.7974,3.7974,3.7974,3.7974,3.7974,3.7974,3.7974,3.7469,3.7036,3.6747,3.5978,3.5449,3.516,3.4944,3.4775,3.4775,3.4775,3.4775,3.4775,3.4115,3.3598,3.3151,3.2549,3.1615,3.0639,3.0794,3.0794,3.0691,3.1381,3.1586,3.1644,3.1812,3.2022,3.1883,3.0134,2.9258,2.8622,2.7111,2.6641,2.6602,2.6348,2.697,2.7807,2.7952,2.8046,2.8327,2.9055,2.9893,3.0697,3.1311,3.1908,3.2247,3.1789,3.1717,3.1717,3.1717,3.1717,3.1717,3.1717,3.1717,3.1717,3.1805,3.1761,3.1717,3.1805,3.1761,3.1717,3.1805,3.1937,3.2069,3.2288,3.2419,3.2636,3.2853,3.2853,3.2939,3.3111,3.3111,3.3111,3.3111,3.3111,3.3111,3.3111,3.3111,3.3111,0.0,0.0,0.0,0.0,2.8652,0.0,2.8926,2.9512,2.9961,2.9629,2.9902,3.0362,3.1003,3.1622,3.2413,3.3332,3.4933,3.6394,3.7655,3.7921,3.7974,3.7974,3.7974,3.7974,3.7974,3.7974,3.7974,3.7974,3.7974,3.7974,3.7974,3.7974,3.7974,3.7974,3.7517,3.7252,3.7204,3.6194,3.5665,3.5617,3.5088,3.4775,3.4775,3.4775,3.4775,3.4775,3.4775,3.4262,3.335,3.325,3.26,3.1483,3.0484,3.0691,3.1586,3.1586,3.1586,3.1717,3.2851,3.26,3.1702,3.1262,3.0428,2.9249,2.7699,2.7192,2.707,2.7184,2.7784,2.8236,2.7399,2.8276,2.9176,2.8327,2.9653,3.1089,3.1252,3.2323,3.2996,3.2078,3.1886,3.1886,3.1886,3.1886,3.1862,3.1813,3.1789,3.1834,3.2006,3.1849,3.1805,3.2025,3.1893,3.1849,3.2025,3.2025,3.2201,3.2636,3.268,3.2766,3.3025,3.3068,3.3068,3.3111,3.3111,3.3111,3.3111,3.3111,3.3111,3.3111,3.3144,3.3212,0.0,0.0,0.0,0.0,2.8848,0.0,2.8926,2.9043,2.9238,2.9512,2.9902,3.0233,3.0362,3.1552,3.2654,3.2824,3.3957,3.5168,3.6394,3.7388,3.7974,3.7974,3.7974,3.7974,3.7974,3.7974,3.7974,3.7974,3.7974,3.7974,3.7974,3.7974,3.7974,3.7974,3.7878,3.7637,3.7204,3.6579,3.6026,3.5617,3.5088,3.4775,3.4775,3.4775,3.4775,3.4775,3.4775,3.4677,3.4433,3.3572,3.26,3.1586,3.1381,3.1432,3.1586,3.1586,3.1586,3.1717,3.2851,3.3051,3.2878,3.2787,3.204,3.0837,2.9321,2.8224,2.7668,2.8107,2.7804,2.745,2.8036,2.8504,2.8936,2.9504,3.0689,3.1877,3.2698,3.3073,3.3236,3.302,3.2971,3.2971,3.2971,3.2971,3.2827,3.2394,3.2346,3.2268,3.2054,3.1981,3.2025,3.2313,3.2313,3.2269,3.2313,3.2313,3.2356,3.2444,3.2487,3.255,3.2766,3.2766,3.2896,3.3111,3.3111,3.3111,3.3111,3.3111,3.3111,3.3136,3.352,3.3746,0.0,0.0,0.0,2.9355,0.0,0.0,0.0,2.9082,2.9238,2.9238,2.959,2.9941,3.0156,3.0886,3.1506,3.1747,3.2799,3.3741,3.4357,3.6013,3.7096,3.7096,3.7655,3.7974,3.7974,3.7974,3.7974,3.7974,3.7974,3.7974,3.7974,3.7974,3.7974,3.7974,3.7974,3.7853,3.7589,3.6795,3.6266,3.6002,3.5159,3.4775,3.4775,3.4775,3.4775,3.4775,3.4775,3.4775,3.4775,3.4213,3.335,3.2348,3.1841,3.1942,3.2348,3.179,3.1942,3.2398,3.2398,3.2398,3.2398,3.2398,3.2044,3.1338,3.0025,2.8842,2.8035,2.8321,2.8396,2.8448,2.8396,2.8697,2.9069,2.955,3.0543,3.1641,3.2745,3.3529,3.4054,3.4054,3.4054,3.3885,3.338,3.3284,3.3212,3.2923,3.2899,3.2871,3.2831,3.2564,3.2528,3.2749,3.2548,3.2444,3.255,3.255,3.2593,3.2748,3.2748,3.2766,3.2896,3.2896,3.3064,3.347,3.3495,3.3621,3.3897,3.3897,3.3746,3.3495,3.4048,3.4299,0.0,0.0,0.0,0.0,0.0,2.957,0.0,0.0,0.0,2.9121,2.9336,2.9668,0.0,3.0078,3.0195,3.0566,3.1549,3.2219,3.2219,3.4125,3.563,3.585,3.6935,3.7655,3.7655,3.7868,3.7974,3.7974,3.7974,3.7974,3.7974,3.7974,3.7974,3.7974,3.7974,3.7974,3.7974,3.7036,3.6507,3.6386,3.5449,3.4919,3.4775,3.4775,3.4775,3.4775,3.4775,3.4775,3.4775,3.4775,3.4262,3.335,3.2095,3.2145,3.2801,3.1942,3.2145,3.2851,3.2398,3.1942,3.1637,3.1819,3.179,3.1432,3.0484,2.946,2.8601,2.8601,2.9059,2.9408,2.8495,2.885,2.9445,2.9445,3.0392,3.1595,3.2506,3.3832,3.4775,3.4775,3.4775,3.451,3.3717,3.3597,3.3549,3.3452,3.3428,3.3473,3.3608,3.3196,3.3088,3.3314,3.301,3.2827,3.2978,3.3065,3.3177,3.3395,3.3395,3.3395,3.3395,3.3395,3.3596,3.4048,3.4048,3.4274,3.468,3.4781,3.46,3.4073,3.4625,3.4831,0.0,0.0,0.0,0.0,3.0137,3.0019,2.959,0.0,2.9551,2.9512,0.0,2.959,2.9629,0.0,0.0,2.9707,3.0133,3.0502,3.0502,3.1962,3.3459,3.4503,3.5685,3.6394,3.6394,3.7388,3.7974,3.7974,3.7974,3.7974,3.7974,3.7974,3.7974,3.7974,3.7974,3.7974,3.7974,3.7397,3.6867,3.6386,3.5809,3.528,3.4775,3.4775,3.4775,3.4775,3.4775,3.4775,3.4775,3.4775,3.4726,3.4433,3.2398,3.1688,3.179,3.1637,3.1688,3.2044,3.3819,3.3201,3.179,3.27,3.2398,3.1586,3.1483,3.0587,2.9723,2.9723,2.9112,2.8441,2.8354,2.9071,2.9849,2.9849,3.1425,3.2959,3.3109,3.4019,3.4775,3.4775,3.4775,3.4751,3.4631,3.4655,3.4438,3.3982,3.391,3.3836,3.3633,3.3536,3.3625,3.3879,3.4033,3.4074,3.4119,3.4345,3.4505,3.4525,3.4525,3.4525,3.4525,3.4525,3.4575,3.4625,3.4625,3.465,3.468,3.5182,3.5132,3.465,3.5157,3.5408,0.0,0.0,0.0,0.0,3.0605,3.0488,3.0039,2.9941,2.9863,2.9685,0.0,0.0,0.0,0.0,0.0,0.0,2.9922,3.0195,3.0195,3.1047,3.2076,3.3289,3.5057,3.6449,3.7173,3.7708,3.7974,3.7974,3.7974,3.7974,3.7974,3.7974,3.7974,3.7974,3.7974,3.7974,3.7974,3.7469,3.6916,3.6386,3.5881,3.5352,3.4775,3.4775,3.4775,3.4775,3.4775,3.4775,3.4775,3.4775,3.4775,3.4677,3.3101,3.2549,3.2448,3.1841,3.1993,3.26,3.2851,3.2348,3.1586,3.1359,3.141,3.1586,3.1586,3.1278,3.0742,3.0089,2.9565,2.9112,2.8441,2.8654,2.9112,2.9775,3.0587,3.1462,3.2123,3.3101,3.3869,3.3869,3.436,3.4775,3.4775,3.4775,3.4703,3.4486,3.4438,3.4414,3.4293,3.4146,3.4092,3.4232,3.4262,3.4293,3.4293,3.4545,3.468,3.468,3.468,3.468,3.468,3.468,3.4831,3.5157,3.5157,3.5353,3.568,3.5906,3.5906,3.568,3.5906,3.6006,3.0898,3.0898,3.0898,3.0898,3.0898,3.0801,3.0469,3.0391,3.0293,3.0,2.957,0.0,0.0,0.0,0.0,0.0,0.0,3.0195,3.0195,3.0586,3.1228,3.2133,3.4302,3.6177,3.7388,3.7814,3.7974,3.7974,3.7974,3.7974,3.7974,3.7974,3.7974,3.7974,3.7974,3.7974,3.7974,3.7589,3.7156,3.6627,3.6074,3.5545,3.4991,3.4895,3.4775,3.4775,3.4775,3.4775,3.4775,3.4775,3.4775,3.4726,3.3967,3.3449,3.3051,3.1993,3.2095,3.265,3.1869,3.1432,3.1051,3.0535,3.0691,3.1278,3.1819,3.1841,3.1483,3.0949,3.0587,3.0141,2.9006,2.8761,2.8847,2.9355,2.967,3.012,3.0949,3.1971,3.275,3.275,3.3621,3.436,3.436,3.4628,3.4775,3.4775,3.4775,3.4823,3.4872,3.4751,3.4652,3.4747,3.4662,3.4672,3.4672,3.4902,3.5086,3.5177,3.5177,3.5177,3.5177,3.5177,3.5353,3.5755,3.578,3.5956,3.6405,3.6405,3.6405,3.6405,3.6405,3.6405,3.0898,3.0898,3.0898,3.0898,3.0898,3.0879,3.0879,3.0859,3.0859,3.0859,3.0488,3.0156,3.0176,0.0,0.0,0.0,0.0,0.0,0.0,3.0586,3.0898,3.0937,3.3006,3.4947,3.6122,3.7334,3.7974,3.7974,3.7974,3.7974,3.7974,3.7974,3.7974,3.7974,3.7974,3.7974,3.7974,3.7974,3.7685,3.7156,3.6627,3.6098,3.5569,3.5015,3.4775,3.4775,3.4775,3.4775,3.4775,3.4775,3.4775,3.4775,3.4775,3.4115,3.3051,3.1993,3.1637,3.1637,3.1637,3.0845,3.012,3.1206,3.0794,3.0328,3.2476,3.2426,3.1841,3.2801,3.2348,3.1278,3.012,2.988,2.9618,2.8601,2.9164,2.9911,2.9984,3.0845,3.1615,3.1615,3.2549,3.325,3.325,3.4115,3.4775,3.4775,3.4775,3.4872,3.5163,3.5163,3.5283,3.5548,3.5571,3.5571,3.5571,3.581,3.6048,3.6307,3.6355,3.6355,3.6355,3.6355,3.6355,3.638,3.638,3.638,3.6405,3.6405,3.6405,3.6405,3.6405,3.6405,3.1112,3.0898,3.0898,3.0898,3.0898,3.0898,3.0898,3.0898,3.0898,3.0898,3.0527,3.0195,3.0195,0.0,0.0,0.0,0.0,0.0,0.0,3.0586,3.0898,3.0898,3.2285,3.4078,3.6013,3.6557,3.7173,3.7921,3.7974,3.7974,3.7974,3.7974,3.7974,3.7974,3.7974,3.7974,3.7974,3.7974,3.7709,3.718,3.6651,3.6122,3.5593,3.5015,3.4775,3.4775,3.4775,3.4775,3.4775,3.4775,3.4775,3.4775,3.4775,3.458,3.4115,3.3051,3.2196,3.1586,3.1586,3.1359,3.0949,3.0587,3.0691,3.1,3.1,3.1768,3.26,3.2246,3.2398,3.2398,3.1308,3.1,3.0949,3.0557,3.0742,3.0794,3.0068,3.0794,3.1359,3.0639,3.1359,3.2145,3.2145,3.3051,3.3967,3.4677,3.4775,3.4823,3.492,3.5066,3.5211,3.5332,3.5668,3.586,3.586,3.6098,3.631,3.6405,3.6405,3.6405,3.6405,3.6405,3.6405,3.6405,3.6405,3.6405,3.6405,3.6405,3.6405,3.6405,3.6405,3.6405,3.1845,3.1556,3.146,3.0995,3.0898,3.0898,3.0898,3.0898,3.0898,3.0898,3.0644,3.0449,3.0449,3.0215,0.0,0.0,0.0,0.0,0.0,3.0703,3.0898,3.0898,3.196,3.3459,3.5356,3.5959,3.6719,3.7921,3.7974,3.7974,3.7974,3.7974,3.7974,3.7974,3.7974,3.7974,3.7974,3.7974,3.7805,3.7469,3.6747,3.6218,3.5881,3.516,3.4775,3.4775,3.4775,3.4775,3.4775,3.4775,3.4775,3.4775,3.4775,3.4775,3.4677,3.3621,3.2275,3.1051,3.1483,3.1308,3.0949,3.0587,3.1,3.1513,3.1206,3.1819,3.2605,3.2474,3.2814,3.3005,3.2124,3.2012,3.2072,3.1688,3.1586,3.1432,3.0639,3.1051,3.1359,3.0639,3.141,3.2196,3.2196,3.3051,3.3869,3.4164,3.458,3.4823,3.492,3.5066,3.5235,3.5332,3.5572,3.5764,3.586,3.6003,3.6168,3.6405,3.6405,3.6405,3.6405,3.6405,3.6405,3.6405,3.6405,3.6405,3.6405,3.6405,3.6405,3.6405,3.6405,3.6405]}]]